[[{"header":{"parameterUnit":"m.s-1","parameterCategory":1,"la1":31.0,"la2":29.5877,"lo1":-88.7671,"lo2":-86.6584,"dy":0.0162,"dx":0.0185,"nx":115,"ny":88,"refTime":"2024-02-12T06:00:00:Z","depth":0,"parameterNumber":2,"parameterNumberName":"U-component_of_WINDS"},"data":[0.0,0.0,0.0,0.0,0.0,0.0,0.0,0.0,0.0,0.0,0.0,0.0,0.0,0.0,0.0,0.0,0.0,0.0,0.0,0.0,0.0,0.0,0.0,0.0,0.0,0.0,0.0,0.0,0.0,0.0,0.0,0.0,0.0,0.0,0.0,0.0,0.0,0.0,0.0,0.0,0.0,0.0,0.0,0.0,0.0,0.0,0.0,0.0,0.0,0.0,0.0,0.0,0.0,0.0,0.0,0.0,0.0,0.0,0.0,0.0,0.0,0.0,0.0,0.0,0.0,0.0,0.0,0.0,0.0,0.0,0.0,0.0,0.0,0.0,0.0,0.0,0.0,0.0,0.0,0.0,0.0,0.0,0.0,0.0,0.0,0.0,0.0,0.0,0.0,0.0,0.0,0.0,0.0,0.0,0.0,0.0,0.0,0.0,0.0,0.0,0.0,0.0,0.0,0.0,0.0,0.0,0.0,0.0,0.0,0.0,0.0,0.0,0.0,0.0,0.0,0.0,0.0,0.0,0.0,0.0,0.0,0.0,0.0,0.0,0.0,0.0,0.0,0.0,0.0,0.0,0.0,0.0,0.0,0.0,0.0,0.0,0.0,0.0,0.0,0.0,0.0,0.0,0.0,0.0,0.0,0.0,0.0,0.0,0.0,0.0,0.0,0.0,0.0,0.0,0.0,0.0,0.0,0.0,0.0,0.0,0.0,0.0,0.0,0.0,0.0,0.0,0.0,0.0,0.0,0.0,0.0,0.0,0.0,0.0,0.0,0.0,0.0,0.0,0.0,0.0,0.0,0.0,0.0,0.0,0.0,0.0,0.0,0.0,0.0,0.0,0.0,0.0,0.0,0.0,0.0,0.0,0.0,0.0,0.0,0.0,0.0,0.0,0.0,0.0,0.0,0.0,0.0,0.0,0.0,0.0,0.0,0.0,0.0,0.0,0.0,0.0,0.0,0.0,0.0,0.0,0.0,0.0,0.0,0.0,0.0,0.0,0.0,0.0,0.0,0.0,0.0,0.0,0.0,0.0,0.0,0.0,0.0,0.0,0.0,0.0,0.0,0.0,0.0,0.0,0.0,0.0,0.0,0.0,0.0,0.0,0.0,0.0,0.0,0.0,0.0,0.0,0.0,0.0,0.0,0.0,0.0,0.0,0.0,0.0,0.0,0.0,0.0,0.0,0.0,0.0,0.0,0.0,0.0,0.0,0.0,0.0,0.0,0.0,0.0,0.0,0.0,0.0,0.0,0.0,0.0,0.0,0.0,0.0,0.0,0.0,0.0,0.0,0.0,0.0,0.0,0.0,0.0,0.0,0.0,0.0,0.0,0.0,0.0,0.0,0.0,0.0,0.0,0.0,0.0,0.0,0.0,0.0,0.0,0.0,0.0,0.0,0.0,0.0,0.0,0.0,0.0,0.0,0.0,0.0,0.0,0.0,0.0,0.0,0.0,0.0,0.0,0.0,0.0,0.0,0.0,0.0,0.0,0.0,0.0,0.0,0.0,0.0,0.0,0.0,0.0,0.0,0.0,0.0,0.0,0.0,0.0,0.0,0.0,0.0,0.0,0.0,0.0,0.0,0.0,0.0,0.0,0.0,0.0,0.0,0.0,0.0,0.0,0.0,0.0,0.0,0.0,0.0,0.0,0.0,0.0,0.0,0.0,0.0,0.0,0.0,0.0,0.0,0.0,0.0,0.0,0.0,0.0,0.0,0.0,0.0,0.0,0.0,0.0,0.0,0.0,0.0,0.0,0.0,0.0,0.0,0.0,0.0,0.0,0.0,0.0,0.0,0.0,0.0,0.0,0.0,0.0,0.0,0.0,0.0,0.0,0.0,0.0,0.0,0.0,0.0,0.0,0.0,0.0,0.0,0.0,0.0,0.0,0.0,0.0,0.0,0.0,0.0,0.0,0.0,0.0,0.0,0.0,0.0,0.0,0.0,0.0,0.0,0.0,0.0,0.0,0.0,0.0,0.0,0.0,0.0,0.0,0.0,0.0,0.0,0.0,0.0,0.0,0.0,0.0,0.0,0.0,0.0,0.0,0.0,0.0,0.0,0.0,0.0,0.0,0.0,0.0,0.0,0.0,0.0,0.0,0.0,0.0,0.0,0.0,0.0,0.0,0.0,0.0,0.0,0.0,0.0,0.0,0.0,0.0,0.0,0.0,0.0,0.0,0.0,0.0,0.0,0.0,0.0,0.0,0.0,0.0,0.0,0.0,0.0,0.0,0.0,0.0,0.0,0.0,0.0,0.0,0.0,0.0,0.0,0.0,0.0,0.0,0.0,0.0,0.0,0.0,0.0,0.0,0.0,0.0,0.0,0.0,0.0,0.0,0.0,0.0,0.0,0.0,0.0,0.0,0.0,0.0,0.0,0.0,0.0,0.0,0.0,0.0,0.0,0.0,0.0,0.0,0.0,0.0,0.0,0.0,0.0,0.0,0.0,0.0,0.0,0.0,0.0,0.0,0.0,0.0,0.0,0.0,0.0,0.0,0.0,0.0,0.0,0.0,0.0,0.0,0.0,0.0,0.0,0.0,0.0,0.0,0.0,0.0,0.0,0.0,0.0,0.0,0.0,0.0,0.0,0.0,0.0,0.0,0.0,0.0,0.0,0.0,0.0,0.0,0.0,0.0,0.0,0.0,0.0,0.0,0.0,0.0,0.0,0.0,0.0,0.0,0.0,0.0,0.0,0.0,0.0,0.0,0.0,0.0,0.0,0.0,0.0,0.0,0.0,0.0,0.0,0.0,0.0,0.0,0.0,0.0,0.0,0.0,0.0,0.0,0.0,0.0,0.0,0.0,0.0,0.0,0.0,0.0,0.0,0.0,0.0,0.0,0.0,0.0,0.0,0.0,0.0,0.0,0.0,0.0,0.0,0.0,0.0,0.0,0.0,0.0,0.0,0.0,0.0,0.0,0.0,0.0,0.0,0.0,0.0,0.0,0.0,0.0,0.0,0.0,0.0,0.0,0.0,0.0,0.0,0.0,0.0,0.0,0.0,0.0,0.0,0.0,0.0,0.0,0.0,0.0,0.0,0.0,0.0,0.0,0.0,0.0,0.0,0.0,0.0,0.0,0.0,0.0,0.0,0.0,0.0,0.0,0.0,0.0,0.0,0.0,0.0,0.0,0.0,0.0,0.0,0.0,0.0,0.0,0.0,0.0,0.0,0.0,0.0,0.0,0.0,0.0,0.0,0.0,0.0,0.0,0.0,0.0,0.0,0.0,0.0,0.0,0.0,0.0,0.0,0.0,0.0,0.0,0.0,0.0,0.0,0.0,0.0,0.0,0.0,0.0,0.0,0.0,0.0,0.0,0.0,0.0,0.0,0.0,0.0,0.0,0.0,0.0,0.0,0.0,0.0,0.0,0.0,0.0,0.0,0.0,0.0,0.0,0.0,0.0,0.0,0.0,0.0,0.0,0.0,0.0,0.0,0.0,0.0,0.0,0.0,0.0,0.0,0.0,0.0,0.0,0.0,0.0,0.0,0.0,0.0,0.0,0.0,0.0,0.0,0.0,0.0,0.0,0.0,0.0,0.0,0.0,0.0,0.0,0.0,0.0,0.0,0.0,0.0,0.0,0.0,0.0,0.0,0.0,0.0,0.0,0.0,0.0,0.0,0.0,0.0,0.0,0.0,0.0,0.0,0.0,0.0,0.0,0.0,0.0,0.0,0.0,0.0,0.0,0.0,0.0,0.0,0.0,0.0,0.0,0.0,0.0,0.0,0.0,0.0,0.0,0.0,0.0,0.0,0.0,0.0,0.0,0.0,0.0,0.0,0.0,0.0,0.0,0.0,0.0,0.0,0.0,0.0,0.0,0.0,0.0,0.0,0.0,0.0,0.0,0.0,0.0,0.0,0.0,0.0,0.0,0.0,0.0,0.0,0.0,0.0,0.0,0.0,0.0,0.0,0.0,0.0,0.0,0.0,0.0,0.0,0.0,0.0,0.0,0.0,0.0,0.0,0.0,0.0,0.0,0.0,0.0,0.0,0.0,0.0,0.0,0.0,0.0,0.0,0.0,0.0,0.0,0.0,0.0,0.0,0.0,0.0,0.0,0.0,0.0,0.0,0.0,0.0,0.0,0.0,0.0,0.0,0.0,0.0,0.0,0.0,0.0,0.0,0.0,0.0,0.0,0.0,0.0,0.0,0.0,0.0,0.0,0.0,0.0,0.0,0.0,0.0,0.0,0.0,0.0,0.0,0.0,0.0,0.0,0.0,0.0,0.0,0.0,0.0,0.0,0.0,0.0,0.0,0.0,0.0,0.9816,0.0,0.0,0.0,0.0,0.0,0.0,0.0,0.0,0.0,0.0,0.0,0.0,0.0,0.0,0.0,0.0,0.0,0.0,0.0,0.0,0.0,0.0,0.0,0.0,0.0,0.0,0.0,0.0,0.0,0.0,0.0,0.0,0.0,0.0,0.0,0.0,0.0,0.0,0.0,0.0,0.0,0.0,0.0,0.0,0.0,0.0,0.0,0.0,0.0,0.0,0.0,0.0,0.0,0.0,0.0,0.0,0.0,0.0,0.0,0.0,0.0,0.0,0.0,0.0,0.0,0.0,0.0,0.0,0.0,0.0,0.0,0.0,0.0,0.0,0.0,0.0,0.0,0.0,0.0,0.0,0.0,0.0,0.0,0.0,0.0,0.0,0.0,0.0,0.0,0.0,0.0,0.0,0.0,0.0,0.0,0.0,0.0,0.0,0.0,0.0,0.0,0.0,0.0,0.0,0.0,0.0,0.0,0.0,0.0,0.0,0.8918,0.8918,0.8918,0.926,0.997,0.0,0.0,0.0,0.0,0.0,0.0,0.0,0.0,0.0,0.0,0.0,0.0,0.0,0.0,0.0,0.0,0.0,0.0,0.0,0.0,0.0,0.0,0.0,0.0,0.0,0.0,0.0,0.0,0.0,0.0,0.0,0.0,0.0,0.0,0.0,0.0,0.0,0.0,0.0,0.0,0.0,0.0,0.0,0.0,0.0,0.0,0.0,0.0,0.0,0.0,0.0,0.0,0.0,0.0,0.0,0.0,0.0,0.0,0.0,0.0,0.0,0.0,0.0,0.0,0.0,0.0,0.0,0.0,0.0,0.0,0.0,0.0,0.0,0.0,0.0,0.0,0.0,0.0,0.0,0.0,0.0,0.0,0.0,0.0,0.0,0.0,0.0,0.0,0.0,0.0,0.0,0.0,0.0,0.0,0.0,0.0,0.0,0.0,0.0,0.0,0.0,0.0,0.0,0.0,0.0,0.0,0.0,0.0,0.0,0.0,0.0,0.0,0.9401,0.9829,1.0751,0.0,0.0,0.0,0.0,0.0,0.0,0.0,0.0,0.0,0.0,0.0,0.0,0.0,0.0,0.0,0.0,0.0,0.0,0.0,0.0,0.0,0.0,0.0,0.0,0.0,0.0,0.0,0.0,0.0,0.0,0.0,0.0,0.0,0.0,0.0,0.0,0.0,0.0,0.0,0.0,0.0,0.0,0.0,0.0,0.0,0.0,0.0,0.0,0.0,0.0,0.0,0.0,0.0,0.0,0.0,0.0,0.0,0.0,0.0,0.0,0.0,0.0,0.0,0.0,0.0,0.0,0.0,0.0,0.0,0.0,0.0,0.0,0.0,0.0,0.0,0.0,0.0,0.0,0.0,0.0,0.0,0.0,0.0,0.0,0.0,0.0,0.0,0.0,0.0,0.0,0.0,0.0,0.0,0.0,0.0,0.0,0.0,0.0,0.0,0.0,0.0,0.0,0.0,0.0,0.0,0.0,0.0,0.0,0.0,0.0,0.9535,1.0847,1.0896,0.0,1.2965,0.0,0.0,0.0,0.0,0.0,0.0,0.0,0.0,0.0,0.0,0.0,0.0,0.0,0.0,0.0,0.0,0.0,0.0,0.0,0.0,0.0,0.0,0.0,0.0,0.0,0.0,0.0,0.0,0.0,0.0,0.0,0.0,0.0,0.0,0.0,0.0,0.0,0.0,0.0,0.0,0.0,0.0,0.0,0.0,0.0,0.0,0.0,0.0,0.0,0.0,0.0,0.0,0.0,0.0,0.0,0.0,0.0,0.0,0.0,0.0,0.0,0.0,0.0,0.0,0.0,0.0,0.0,0.0,0.0,0.0,0.0,0.0,0.0,0.0,0.0,0.0,0.0,0.0,0.0,0.0,0.0,0.0,0.0,0.0,0.0,0.0,0.0,0.0,0.0,0.0,0.0,0.0,0.0,0.0,0.0,0.0,0.0,0.0,0.0,0.0,0.0,0.0,0.0,0.0,0.0,0.0,0.0,0.0,0.0,0.0,1.0046,1.1057,1.1983,1.254,0.0,0.0,0.0,0.0,0.0,0.0,0.0,0.0,0.0,0.0,0.0,0.0,0.0,0.0,0.0,0.0,0.0,0.0,0.0,0.0,0.0,0.0,0.0,0.0,0.0,0.0,0.0,0.0,0.0,0.0,0.0,0.0,0.0,0.0,0.0,0.0,0.0,0.0,0.0,0.0,0.0,0.0,0.0,0.0,0.0,0.0,0.0,0.0,0.0,0.0,0.0,0.0,0.0,0.0,0.0,0.0,0.0,0.0,0.0,0.0,0.0,0.0,0.0,0.0,0.0,0.0,0.0,0.0,0.0,0.0,0.0,0.0,0.0,0.0,0.0,0.0,0.0,0.0,0.0,0.0,0.0,0.0,0.0,0.0,0.0,0.0,0.0,0.0,0.0,0.0,0.0,0.0,0.0,0.0,0.0,0.0,0.0,0.0,0.0,0.0,0.0,0.0,0.0,0.0,0.0,0.0,0.0,0.0,0.0,0.0,1.0252,1.0756,1.1692,1.241,1.2717,1.2624,0.0,0.0,0.0,0.0,0.0,0.0,0.0,0.0,0.0,0.0,0.0,0.0,0.0,0.0,0.0,0.0,0.0,0.0,0.0,0.0,0.0,0.0,0.0,0.0,0.0,0.0,0.0,0.0,0.0,0.0,0.0,0.0,0.0,0.0,0.0,0.0,0.0,0.0,0.0,0.0,0.0,0.0,0.0,0.0,0.0,0.0,0.0,0.0,0.0,0.0,0.0,0.0,0.0,0.0,0.0,0.0,0.0,0.0,0.0,0.0,0.0,0.0,0.0,0.0,0.0,0.0,0.0,0.0,0.0,0.0,0.0,0.0,0.0,0.0,0.0,0.0,0.0,0.0,0.0,0.0,0.0,0.0,0.0,0.0,0.0,0.0,0.0,0.0,0.0,0.0,0.0,0.0,0.0,0.0,0.0,0.0,0.0,0.0,0.0,0.0,0.0,0.0,0.0,0.0,0.0,0.0,0.0,0.0,1.2937,1.1763,1.1782,1.3144,1.1951,1.1883,0.0,0.0,0.0,0.0,0.0,0.0,0.0,0.0,0.0,0.0,0.0,0.0,0.0,0.0,0.0,0.0,0.0,0.0,0.0,0.0,0.0,0.0,0.0,0.0,0.0,0.0,0.0,0.0,0.0,0.0,0.0,0.0,0.0,0.0,0.0,0.0,0.0,0.0,0.0,0.0,0.0,0.0,0.0,0.0,0.0,0.0,0.0,0.0,0.0,0.0,0.0,0.0,0.0,0.0,0.0,0.0,0.0,0.0,0.0,0.0,0.0,0.0,0.0,0.0,0.0,0.0,0.0,0.0,0.0,0.0,0.0,0.0,0.0,0.0,0.0,0.0,0.0,0.0,0.0,0.0,0.0,0.0,0.0,0.0,0.0,0.0,0.0,0.0,0.0,0.0,0.0,0.0,0.0,0.0,0.0,0.0,0.0,0.0,0.0,0.0,0.0,0.0,0.0,0.0,0.0,0.0,0.0,0.0,0.0,1.0465,1.0878,1.1594,1.2626,1.2611,1.2839,0.0,0.0,0.0,0.0,0.0,0.0,0.0,0.0,0.0,0.0,0.0,0.0,0.0,0.0,0.0,0.0,0.0,0.0,0.0,0.0,0.0,0.0,0.0,0.0,0.0,0.0,0.0,0.0,0.0,0.0,0.0,0.0,0.0,0.0,0.0,0.0,0.0,0.0,0.0,0.0,0.0,0.0,0.0,0.0,0.0,0.0,0.0,0.0,0.0,0.0,0.0,0.0,0.0,0.0,0.0,0.0,0.0,0.0,0.0,0.0,0.0,0.0,0.0,0.0,0.0,0.0,0.0,0.0,0.0,0.0,0.0,0.0,0.0,0.0,0.0,0.0,0.0,0.0,0.0,0.0,0.0,0.0,0.0,0.0,0.0,0.0,0.0,0.0,0.0,0.0,0.0,0.0,0.0,0.0,0.0,0.0,0.0,0.0,0.0,0.0,0.0,0.0,0.0,0.0,0.0,0.0,0.0,0.0,0.0,1.0001,0.0,1.1998,1.2299,1.2791,1.2922,0.0,0.0,0.0,0.0,0.0,0.0,0.0,0.0,0.0,0.0,0.0,0.0,0.0,0.0,0.0,0.0,0.0,0.0,0.0,0.0,0.0,0.0,0.0,0.0,0.0,0.0,0.0,0.0,0.0,0.0,0.0,0.0,0.0,0.0,0.0,0.0,0.0,0.0,0.0,0.0,0.0,0.0,0.0,0.0,0.0,0.0,0.0,0.0,0.0,0.0,0.0,0.0,0.0,0.0,0.0,0.0,0.0,0.0,0.0,0.0,0.0,0.0,0.0,0.0,0.0,0.0,0.0,0.0,0.0,0.0,0.0,0.0,0.0,0.0,0.0,0.0,0.0,0.0,0.0,0.0,0.0,0.0,0.0,0.0,0.0,0.0,0.0,0.0,0.0,0.0,0.0,0.0,0.0,0.0,0.0,0.0,0.0,0.0,0.0,0.0,0.0,0.0,0.0,0.0,0.0,0.0,0.0,0.0,1.0038,1.2124,1.2916,1.2982,1.2361,1.2342,1.1974,0.0,0.0,0.0,0.0,0.0,0.0,0.0,0.0,0.0,0.0,0.0,0.0,0.0,0.0,0.0,0.0,0.0,0.0,0.0,0.0,0.0,0.0,0.0,0.0,0.0,0.0,0.0,0.0,0.0,0.0,0.0,0.0,0.0,0.0,0.0,0.0,0.0,0.0,0.0,0.0,0.0,0.0,0.0,0.0,0.0,0.0,0.0,0.0,0.0,0.0,0.0,0.0,0.0,0.0,0.0,0.0,0.0,0.0,0.0,0.0,0.0,0.0,0.0,0.0,0.0,0.0,0.0,0.0,0.0,0.0,0.0,0.0,0.0,0.0,0.0,0.0,0.0,0.0,0.0,0.0,0.0,0.0,0.0,0.0,0.0,0.0,0.0,0.0,0.0,0.0,0.0,0.0,0.0,0.0,0.0,0.0,0.0,0.0,0.0,0.0,0.0,0.0,0.0,0.0,0.0,0.0,0.0,0.0,0.0,1.0768,1.1977,1.3007,1.3743,1.284,1.2893,0.0,0.0,0.0,0.0,0.0,0.0,0.0,0.0,0.0,0.0,0.0,0.0,0.0,0.0,0.0,0.0,0.0,0.0,0.0,0.0,0.0,0.0,0.0,0.0,0.0,0.0,0.0,0.0,0.0,0.0,0.0,0.0,0.0,0.0,0.0,0.0,0.0,0.0,0.0,0.0,0.0,0.0,0.0,0.0,0.0,0.0,0.0,0.0,0.0,0.0,0.0,0.0,0.0,0.0,0.0,0.0,0.0,0.0,0.0,0.0,0.0,0.0,0.0,0.0,0.0,0.0,0.0,0.0,0.0,0.0,0.0,0.0,0.0,0.0,0.0,0.0,0.0,0.0,0.0,0.0,0.0,0.0,0.0,0.0,0.0,0.0,0.0,0.0,0.0,0.0,0.0,0.0,0.0,0.0,0.0,0.0,0.0,0.0,0.0,0.0,0.0,0.0,0.0,0.0,0.0,0.0,0.0,0.0,0.0,1.2595,1.3434,1.4102,1.4487,1.3872,1.3794,1.4312,0.0,0.0,0.0,0.0,0.0,0.0,0.0,0.0,0.0,0.0,0.0,0.0,0.0,0.0,0.0,0.0,0.0,0.0,0.0,0.0,0.0,0.0,0.0,0.0,0.0,0.0,0.0,0.0,0.0,0.0,0.0,0.0,0.0,0.0,0.0,0.0,0.0,0.0,0.0,0.0,0.0,0.0,0.0,0.0,0.0,0.0,0.0,0.0,0.0,0.0,0.0,0.0,0.0,0.0,0.0,0.0,0.0,0.0,0.0,0.0,0.0,0.0,0.0,0.0,0.0,0.0,0.0,0.0,0.0,0.0,0.0,0.0,0.0,0.0,0.0,0.0,0.0,0.0,0.0,0.0,0.0,0.0,0.0,0.0,0.0,0.0,0.0,0.0,0.0,0.0,0.0,0.0,0.0,0.0,0.0,0.0,0.0,0.0,0.0,0.0,0.0,0.0,0.0,0.0,0.0,0.0,0.0,0.0,1.6964,1.7119,1.6536,1.5081,1.5474,1.4733,0.0,0.0,0.0,0.0,0.0,0.0,0.0,0.0,0.0,0.0,0.0,0.0,0.0,0.0,0.0,0.0,0.0,0.0,0.0,0.0,0.0,0.0,0.0,0.0,0.0,0.0,0.0,0.0,0.0,0.0,0.0,0.0,0.0,0.0,0.0,0.0,0.0,0.0,0.0,0.0,0.0,0.0,0.0,0.0,0.0,0.0,0.0,0.0,0.0,0.0,0.0,0.0,0.0,0.0,0.0,0.0,0.0,0.0,0.0,0.0,0.0,0.0,0.0,0.0,0.0,0.0,0.0,0.0,0.0,0.0,0.0,0.0,0.0,0.0,0.0,0.0,0.0,0.0,0.0,0.0,0.0,0.0,0.0,0.0,0.0,0.0,0.0,0.0,0.0,0.0,0.0,0.0,0.0,0.0,0.0,0.0,0.0,0.0,0.0,0.0,0.0,0.0,0.0,0.0,0.0,0.0,0.0,0.0,0.0,2.0043,2.2145,2.2303,2.0305,1.8293,1.6957,0.0,0.0,0.0,0.0,0.0,0.0,0.0,0.0,0.0,0.0,0.0,0.0,0.0,0.0,0.0,0.0,0.0,0.0,0.0,0.0,0.0,0.0,0.0,0.0,0.0,0.0,0.0,0.0,0.0,0.0,0.0,0.0,0.0,0.0,0.0,0.0,0.0,0.0,0.0,0.0,0.0,0.0,0.0,0.0,0.0,0.0,0.0,0.0,0.0,0.0,0.0,0.0,0.0,0.0,0.0,0.0,0.0,0.0,0.0,0.0,0.0,0.0,0.0,0.0,0.0,0.0,0.0,0.0,0.0,0.0,0.0,0.0,0.0,0.0,0.0,0.0,0.0,0.0,0.0,0.0,0.0,0.0,0.0,0.0,0.0,0.0,0.0,0.0,0.0,0.0,0.0,0.0,0.0,0.0,0.0,0.0,0.0,0.0,0.0,0.0,0.0,0.0,0.0,0.0,0.0,0.0,0.0,0.0,2.0747,2.2561,2.5799,2.6733,2.5152,2.1901,1.9246,0.0,0.0,0.0,0.0,0.0,0.0,0.0,0.0,0.0,0.0,0.0,0.0,0.0,0.0,0.0,0.0,0.0,0.0,0.0,0.0,0.0,0.0,0.0,0.0,0.0,0.0,0.0,0.0,0.0,0.0,0.0,0.0,0.0,0.0,0.0,0.0,0.0,0.0,0.0,0.0,0.0,0.0,0.0,0.0,0.0,0.0,0.0,0.0,0.0,0.0,0.0,0.0,0.0,0.0,0.0,0.0,0.0,0.0,0.0,0.0,0.0,0.0,0.0,0.0,0.0,0.0,0.0,0.0,0.0,0.0,0.0,0.0,0.0,0.0,0.0,0.0,0.0,0.0,0.0,0.0,0.0,0.0,0.0,0.0,0.0,0.0,0.0,0.0,0.0,0.0,0.0,0.0,0.0,0.0,0.0,0.0,0.0,0.0,0.0,0.0,0.0,0.0,0.0,0.0,0.0,0.0,0.0,0.0,2.2409,2.4698,2.8332,2.9905,2.9157,2.5519,2.1488,0.0,0.0,0.0,0.0,0.0,0.0,0.0,0.0,0.0,0.0,0.0,0.0,0.0,0.0,0.0,0.0,0.0,0.0,0.0,0.0,0.0,0.0,0.0,0.0,0.0,0.0,0.0,0.0,0.0,0.0,0.0,0.0,0.0,0.0,0.0,0.0,0.0,0.0,0.0,0.0,0.0,0.0,0.0,0.0,0.0,0.0,0.0,0.0,0.0,0.0,0.0,0.0,0.0,0.0,0.0,0.0,0.0,0.0,0.0,0.0,0.0,0.0,0.0,0.0,0.0,0.0,0.0,0.0,0.0,0.0,0.0,0.0,0.0,0.0,0.0,0.0,0.0,0.0,0.0,0.0,0.0,0.0,0.0,0.0,0.0,0.0,0.0,0.0,0.0,0.0,0.0,0.0,0.0,0.0,0.0,0.0,0.0,0.0,0.0,0.0,0.0,0.0,0.0,0.0,0.0,0.0,0.0,0.0,2.3427,2.6209,2.9334,3.0903,3.0705,2.6534,2.272,0.0,0.0,0.0,0.0,0.0,0.0,0.0,0.0,0.0,0.0,0.0,0.0,0.0,0.0,0.0,0.0,0.0,0.0,0.0,0.0,0.0,0.0,0.0,0.0,0.0,0.0,0.0,0.0,0.0,0.0,0.0,0.0,0.0,0.0,0.0,0.0,0.0,0.0,0.0,0.0,0.0,0.0,0.0,0.0,0.0,0.0,0.0,0.0,1.708,0.0,0.0,0.0,0.0,0.0,0.0,0.0,0.0,0.0,0.0,0.0,0.0,0.0,0.0,0.0,0.0,0.0,0.0,0.0,0.0,0.0,0.0,0.0,0.0,0.0,0.0,0.0,0.0,0.0,0.0,0.0,0.0,0.0,0.0,0.0,0.0,0.0,0.0,0.0,0.0,0.0,0.0,0.0,0.0,0.0,0.0,0.0,0.0,0.0,0.0,0.0,0.0,0.0,0.0,0.0,0.0,0.0,0.0,0.0,2.4771,2.7715,3.0016,3.1043,3.0586,2.7347,2.3972,0.0,0.0,0.0,0.0,0.0,0.0,0.0,0.0,0.0,0.0,0.0,0.0,0.0,0.0,0.0,0.0,0.0,0.0,0.0,0.0,0.0,0.0,0.0,0.0,0.0,0.0,0.0,0.0,0.0,0.0,0.0,0.0,0.0,0.0,0.0,0.0,0.0,0.0,0.0,0.0,0.0,0.0,0.0,0.0,0.0,0.0,0.0,0.0,0.0,0.0,0.0,0.0,0.0,0.0,0.0,0.0,0.0,0.0,0.0,0.0,0.0,0.0,0.0,0.0,0.0,0.0,0.0,0.0,0.0,0.0,0.0,0.0,0.0,0.0,0.0,0.0,0.0,0.0,0.0,0.0,0.0,0.0,0.0,0.0,0.0,0.0,0.0,0.0,0.0,0.0,0.0,0.0,0.0,0.0,0.0,0.0,0.0,0.0,0.0,0.0,0.0,0.0,0.0,0.0,0.0,0.0,0.0,2.2926,2.5794,2.9039,3.0405,3.0739,3.0077,2.7769,2.4927,2.1495,0.0,0.0,0.0,0.0,0.0,0.0,0.0,0.0,0.0,0.0,0.0,0.0,0.0,0.0,0.0,0.0,0.0,0.0,0.0,0.0,0.0,0.0,0.0,0.0,0.0,0.0,0.0,0.0,0.0,0.0,0.0,0.0,0.0,0.0,0.0,0.0,0.0,0.0,1.4382,1.6941,0.0,0.0,0.0,0.0,0.0,0.0,0.0,0.0,2.1102,0.0,0.0,0.0,0.0,0.0,0.0,0.0,0.0,0.0,0.0,0.0,0.0,0.0,0.0,0.0,0.0,0.0,0.0,0.0,0.0,0.0,0.0,0.0,0.0,0.0,0.0,0.0,0.0,0.0,0.0,0.0,0.0,0.0,0.0,0.0,0.0,0.0,0.0,0.0,0.0,0.0,0.0,0.0,0.0,0.0,0.0,0.0,0.0,0.0,0.0,0.0,0.0,0.0,0.0,0.0,0.0,2.2754,2.2726,2.5013,2.9782,3.0149,3.0217,3.0035,2.7291,2.4624,2.2185,0.0,0.0,0.0,0.0,0.0,0.0,0.0,0.0,0.0,0.0,0.0,0.0,0.0,0.0,0.0,0.0,0.0,0.0,0.0,0.0,0.0,0.0,0.0,0.0,0.0,0.0,0.0,0.0,0.0,0.0,0.0,0.0,0.0,0.0,0.0,0.0,0.0,0.0,0.0,2.0741,2.2053,0.0,0.0,0.0,0.0,0.0,0.0,0.0,0.0,2.0306,0.0,0.0,0.0,0.0,0.0,0.0,0.0,0.0,0.0,0.0,0.0,0.0,0.0,0.0,0.0,0.0,0.0,0.0,0.0,0.0,0.0,0.0,0.0,0.0,0.0,0.0,0.0,0.0,0.0,0.0,0.0,0.0,0.0,0.0,0.0,0.0,0.0,0.0,0.0,0.0,0.0,0.0,0.0,0.0,0.0,0.0,0.0,0.0,0.0,0.0,0.0,0.0,0.0,0.0,0.0,2.2615,2.3985,2.6556,3.0475,3.0306,2.9722,2.8893,2.6387,2.3816,0.0,0.0,0.0,0.0,0.0,0.0,0.0,0.0,0.0,0.0,0.0,0.0,0.0,0.0,0.0,0.0,0.0,0.0,0.0,0.0,0.0,0.0,0.0,0.0,0.0,0.0,0.0,0.0,0.0,0.0,0.0,0.0,0.0,0.0,0.0,0.0,0.0,0.0,0.0,0.0,2.1562,2.2486,2.2374,0.0,0.0,0.0,0.0,0.0,0.0,2.1567,2.1567,0.0,0.0,0.0,0.0,0.0,0.0,0.0,0.0,0.0,0.0,0.0,0.0,0.0,0.0,0.0,0.0,0.0,0.0,0.0,0.0,0.0,0.0,0.0,0.0,0.0,0.0,0.0,0.0,0.0,0.0,0.0,0.0,0.0,0.0,0.0,0.0,0.0,0.0,0.0,0.0,0.0,0.0,0.0,0.0,0.0,0.0,0.0,0.0,0.0,0.0,0.0,0.0,0.0,0.0,0.0,2.2465,2.4987,2.7791,3.0768,3.0243,2.9135,2.7608,2.5423,2.2989,0.0,0.0,0.0,0.0,0.0,0.0,0.0,0.0,0.0,0.0,0.0,0.0,0.0,0.0,0.0,0.0,0.0,0.0,0.0,0.0,0.0,0.0,0.0,0.0,0.0,0.0,0.0,0.0,0.0,0.0,0.0,0.0,0.0,0.0,0.0,0.0,0.0,0.0,0.0,0.0,0.0,2.3035,2.2439,2.3381,0.0,0.0,0.0,0.0,2.1783,2.4147,0.0,0.0,0.0,0.0,0.0,0.0,0.0,0.0,0.0,0.0,0.0,0.0,0.0,0.0,0.0,0.0,0.0,0.0,0.0,0.0,0.0,0.0,0.0,0.0,0.0,0.0,0.0,0.0,0.0,0.0,0.0,0.0,0.0,0.0,0.0,0.0,0.0,0.0,0.0,0.0,0.0,0.0,0.0,0.0,0.0,0.0,0.0,0.0,0.0,0.0,0.0,0.0,0.0,0.0,0.0,0.0,2.3092,2.4237,2.6518,2.9968,2.9508,2.8396,2.6848,2.4568,2.2636,0.0,0.0,0.0,0.0,0.0,0.0,0.0,0.0,0.0,0.0,0.0,0.0,0.0,0.0,0.0,0.0,0.0,0.0,0.0,0.0,0.0,0.0,0.0,0.0,0.0,0.0,0.0,0.0,0.0,0.0,0.0,0.0,0.0,0.0,0.0,0.0,0.0,0.0,0.0,0.0,0.0,2.556,2.3159,2.3446,2.3894,0.0,0.0,2.1269,2.2352,2.6938,0.0,0.0,0.0,0.0,0.0,0.0,0.0,0.0,0.0,0.0,0.0,0.0,0.0,0.0,0.0,0.0,0.0,0.0,0.0,0.0,0.0,0.0,0.0,0.0,0.0,0.0,0.0,0.0,0.0,0.0,0.0,0.0,0.0,0.0,0.0,0.0,0.0,0.0,0.0,0.0,0.0,0.0,0.0,0.0,0.0,0.0,0.0,0.0,0.0,0.0,0.0,0.0,0.0,0.0,0.0,1.8465,2.2102,2.3828,2.5936,2.8433,2.7849,2.6766,2.5316,2.3121,2.1314,0.0,0.0,0.0,0.0,0.0,0.0,0.0,0.0,0.0,0.0,0.0,0.0,0.0,0.0,0.0,0.0,0.0,0.0,0.0,0.0,0.0,0.0,0.0,0.0,0.0,0.0,0.0,0.0,0.0,0.0,0.0,0.0,0.0,0.0,0.0,0.0,0.0,0.0,0.0,0.0,0.0,0.0,2.4157,2.5571,0.0,0.0,0.0,2.5199,2.6179,0.0,0.0,0.0,0.0,0.0,0.0,0.0,0.0,0.0,0.0,0.0,0.0,0.0,0.0,0.0,0.0,0.0,0.0,0.0,0.0,0.0,0.0,0.0,0.0,0.0,0.0,0.0,0.0,0.0,0.0,0.0,0.0,0.0,0.0,0.0,0.0,0.0,0.0,0.0,0.0,0.0,0.0,0.0,0.0,0.0,0.0,0.0,0.0,0.0,0.0,0.0,0.0,0.0,0.0,0.0,0.0,0.0,2.171,2.3831,2.5703,2.7291,2.6833,2.5706,2.3948,2.2149,0.0,0.0,0.0,0.0,0.0,0.0,0.0,0.0,0.0,0.0,0.0,0.0,0.0,0.0,0.0,0.0,0.0,0.0,0.0,0.0,0.0,0.0,0.0,0.0,0.0,0.0,0.0,1.361,0.0,0.0,0.0,0.0,0.0,0.0,0.0,0.0,0.0,0.0,0.0,0.0,0.0,0.0,2.6379,2.5378,2.7564,2.8838,0.0,0.0,2.89,2.9592,2.9696,2.8738,0.0,0.0,0.0,0.0,0.0,0.0,0.0,0.0,0.0,0.0,0.0,0.0,0.0,0.0,0.0,0.0,0.0,0.0,0.0,0.0,0.0,0.0,0.0,0.0,0.0,0.0,0.0,0.0,0.0,0.0,0.0,0.0,0.0,0.0,0.0,0.0,0.0,0.0,0.0,0.0,0.0,0.0,0.0,0.0,0.0,0.0,0.0,0.0,0.0,0.0,0.0,0.0,0.0,0.0,0.0,2.2855,2.4429,2.583,2.7246,2.7252,2.5944,2.3254,2.2239,2.0825,0.0,0.0,0.0,0.0,0.0,0.0,0.0,0.0,0.0,0.0,0.0,0.0,0.0,0.0,0.0,0.0,0.0,0.0,0.0,0.0,0.0,0.0,0.0,0.0,0.0,0.0,0.0,0.0,0.0,0.0,0.0,0.0,0.0,0.0,0.0,0.0,0.0,0.0,0.0,0.0,0.0,2.7813,2.689,2.8628,3.0463,0.0,0.0,3.0992,3.1058,3.4816,3.5036,2.6936,0.0,0.0,0.0,0.0,0.0,0.0,0.0,0.0,0.0,0.0,0.0,0.0,0.0,0.0,0.0,0.0,0.0,0.0,0.0,0.0,0.0,0.0,0.0,0.0,0.0,0.0,0.0,0.0,0.0,0.0,0.0,0.0,0.0,0.0,0.0,0.0,0.0,0.0,0.0,0.0,0.0,0.0,0.0,0.0,0.0,0.0,0.0,0.0,0.0,0.0,0.0,0.0,0.0,1.8293,2.1748,2.327,2.4548,2.5584,2.5644,2.4568,2.2283,2.1512,2.0192,0.0,0.0,0.0,0.0,0.0,0.0,0.0,0.0,0.0,0.0,0.0,0.0,0.0,0.0,0.0,0.0,0.0,0.0,0.0,0.0,0.0,0.0,0.0,0.0,0.0,0.0,0.0,0.0,1.6098,1.6307,1.5739,0.0,0.0,0.0,0.0,0.0,0.0,0.0,0.0,0.0,0.0,2.8817,2.8862,3.1113,0.0,0.0,3.283,3.3395,3.3841,3.3971,3.3113,3.0403,2.7643,0.0,0.0,0.0,0.0,0.0,0.0,0.0,0.0,0.0,0.0,0.0,0.0,0.0,0.0,0.0,0.0,0.0,0.0,0.0,0.0,0.0,0.0,0.0,0.0,0.0,0.0,0.0,0.0,0.0,0.0,0.0,0.0,0.0,0.0,0.0,0.0,0.0,0.0,0.0,0.0,0.0,0.0,0.0,0.0,0.0,0.0,0.0,0.0,0.0,0.0,0.0,0.0,1.8045,2.1168,2.2848,2.4093,2.4894,2.4898,2.3883,2.1794,2.1256,2.007,0.0,0.0,0.0,0.0,0.0,0.0,0.0,0.0,0.0,0.0,0.0,0.0,0.0,0.0,0.0,0.0,0.0,0.0,0.0,0.0,0.0,0.0,0.0,0.0,0.0,0.0,0.0,0.0,1.7024,1.6898,1.5438,0.0,0.0,0.0,0.0,0.0,0.0,0.0,0.0,0.0,0.0,2.9982,3.068,3.2899,3.419,3.3395,3.3784,3.4353,3.4861,3.3333,3.1843,3.1043,0.0,0.0,0.0,0.0,0.0,0.0,0.0,0.0,0.0,0.0,0.0,0.0,0.0,0.0,0.0,0.0,0.0,0.0,0.0,0.0,0.0,0.0,0.0,0.0,0.0,0.0,0.0,0.0,0.0,0.0,1.1821,0.0,0.0,0.0,0.0,0.0,0.0,0.0,0.0,0.0,0.0,0.0,0.0,0.0,0.0,0.0,0.0,0.0,0.0,0.0,0.0,0.0,0.0,1.8358,2.163,2.3581,2.4891,2.5549,2.5585,2.4337,2.1839,2.1685,2.0722,1.8698,0.0,0.0,0.0,0.0,0.0,0.0,0.0,0.0,0.0,0.0,0.0,0.0,0.0,0.0,0.0,0.0,0.0,0.0,0.0,0.0,0.0,0.0,0.0,0.0,0.0,0.0,1.569,1.6294,1.6197,0.0,0.0,0.0,0.0,0.0,0.0,0.0,0.0,0.0,0.0,2.8798,3.142,3.2102,3.3523,3.4742,3.5352,3.432,3.3469,3.3514,3.3817,3.2474,0.0,0.0,0.0,0.0,0.0,0.0,0.0,0.0,0.0,0.0,0.0,0.0,0.0,0.0,0.0,0.0,0.0,0.0,0.0,0.0,0.0,0.0,0.0,0.0,0.0,0.0,0.0,1.4212,1.3798,0.0,0.0,0.0,0.0,0.0,0.0,0.0,0.0,0.0,0.0,0.0,1.9057,1.9519,0.0,0.0,0.0,0.0,0.0,0.0,0.0,0.0,0.0,0.0,0.0,0.0,1.8805,2.164,2.3608,2.4928,2.5585,2.56,2.4567,2.2433,2.1944,2.0543,1.8121,0.0,0.0,0.0,0.0,0.0,0.0,0.0,0.0,0.0,0.0,0.0,0.0,0.0,0.0,0.0,0.0,0.0,0.0,0.0,0.0,0.0,0.0,0.0,0.0,0.0,1.6316,0.0,0.0,0.0,0.0,0.0,0.0,0.0,0.0,0.0,0.0,0.0,2.3849,2.6031,2.9144,3.128,3.1522,3.3677,3.5143,0.0,0.0,0.0,0.0,0.0,0.0,0.0,0.0,0.0,0.0,0.0,0.0,0.0,0.0,3.122,2.548,2.4577,2.4824,2.5154,0.0,0.0,0.0,0.0,0.0,0.0,0.0,0.0,0.0,0.0,0.0,0.0,0.0,0.0,0.0,0.0,1.5676,0.0,0.0,0.0,0.0,0.0,0.0,0.0,0.0,1.927,2.0668,2.1749,2.2632,2.2587,0.0,2.1291,1.9403,0.0,0.0,0.0,0.0,0.0,0.0,0.0,0.0,1.9367,2.1974,2.3723,2.4928,2.5552,2.5379,2.4448,2.2748,2.1819,2.0413,1.8465,1.775,1.6899,0.0,0.0,0.0,0.0,0.0,0.0,0.0,0.0,0.0,0.0,0.0,0.0,0.0,0.0,0.0,0.0,0.0,0.0,0.0,0.0,0.0,0.0,0.0,1.7752,0.0,0.0,0.0,0.0,0.0,0.0,0.0,0.0,0.0,2.5024,2.5101,2.5845,2.8328,3.0337,3.1754,3.2278,0.0,0.0,0.0,0.0,0.0,0.0,0.0,3.2234,3.4663,3.4663,3.4489,3.5103,3.5667,3.5769,3.4968,0.0,0.0,2.8935,2.8512,2.9085,2.9267,2.9767,3.0228,3.049,3.0908,3.1383,0.0,0.0,0.0,0.0,0.0,0.0,0.0,0.0,1.7122,1.7825,0.0,1.7537,0.0,0.0,0.0,0.0,0.0,1.8326,0.0,0.0,2.2856,2.4341,2.3918,2.513,2.504,2.3874,2.501,2.3963,2.0827,1.7682,0.0,0.0,0.0,0.0,0.0,0.0,2.0079,2.2668,2.4033,2.4978,2.5558,2.4978,2.4038,2.2723,2.144,2.0428,1.9744,1.9066,1.842,1.7773,1.6555,0.0,0.0,0.0,0.0,0.0,0.0,0.0,0.0,0.0,0.0,0.0,0.0,0.0,0.0,0.0,0.0,0.0,0.0,0.0,0.0,1.8769,0.0,0.0,0.0,0.0,0.0,0.0,0.0,0.0,0.0,0.0,2.8006,2.8031,2.8944,3.1814,0.0,0.0,0.0,0.0,3.4799,3.5487,3.5041,3.4878,3.5543,3.2138,2.9919,3.1348,0.0,0.0,3.5329,3.5943,3.6259,3.4077,3.503,3.5735,3.5661,3.4231,3.3567,3.4165,3.3393,3.2796,3.3401,3.3756,3.379,2.3615,0.0,0.0,0.0,0.0,2.1291,2.2447,2.3748,2.3774,2.3176,2.2148,2.1345,0.0,0.0,0.0,0.0,0.0,0.0,2.2743,2.4363,2.551,2.6677,2.7893,2.8276,2.8,2.7192,2.7072,2.6294,2.4872,2.3001,2.0075,1.6252,0.0,0.0,0.0,0.0,2.167,2.3325,2.5106,2.5884,2.5597,2.5403,2.4477,2.2733,2.1864,2.1106,2.0428,1.9769,1.9316,1.9115,1.8313,0.0,0.0,0.0,0.0,0.0,0.0,0.0,0.0,0.0,0.0,0.0,0.0,0.0,0.0,0.0,0.0,0.0,0.0,0.0,1.8983,2.0619,2.0917,0.0,0.0,0.0,0.0,0.0,0.0,0.0,0.0,0.0,3.0668,3.0142,2.9946,0.0,0.0,3.3034,3.2948,3.4269,3.5352,3.5577,0.0,0.0,0.0,3.5825,3.5504,3.5926,3.8307,3.9723,3.8662,3.8871,3.8939,3.8228,3.8526,3.8814,3.8665,3.6686,3.5904,3.7682,3.7274,3.6586,3.7229,3.7793,3.8137,2.7855,2.5369,2.4162,2.3875,2.4315,2.5196,2.6273,2.7401,2.7386,2.6976,2.6252,2.5117,2.3526,2.161,2.1231,0.0,0.0,0.0,2.5773,2.779,2.8329,2.9333,3.0716,3.1023,3.0791,3.0133,2.9475,2.868,2.7782,2.6716,2.4177,2.035,0.0,0.0,1.9168,2.1311,2.3091,2.4373,2.5579,2.6138,2.5998,2.5477,2.4403,2.2768,2.2298,2.1779,2.1116,2.0712,2.0487,2.0477,1.9859,1.9302,0.0,0.0,0.0,0.0,0.0,0.0,0.0,0.0,0.0,0.0,0.0,1.6515,0.0,0.0,0.0,0.0,1.9526,2.0548,2.1285,2.2442,0.0,0.0,0.0,0.0,0.0,0.0,0.0,2.5294,2.7237,2.9479,3.2092,3.2352,3.2449,3.2894,3.3469,3.3885,3.4065,0.0,3.6293,3.6862,3.7736,3.8278,3.8143,3.8487,3.8768,3.8768,3.9491,4.0072,4.0106,4.0106,4.0106,4.0106,4.0106,4.0106,4.0106,3.8594,3.784,3.9668,3.9389,3.8977,3.9356,3.9785,4.0106,3.0466,2.9728,2.7863,2.6979,2.6968,2.8297,2.8919,2.8962,2.9037,2.9676,3.05,2.8718,2.7854,2.7645,2.5872,0.0,2.612,2.7414,2.8723,3.0034,3.1151,3.2026,3.2669,3.323,3.317,3.2549,3.1944,3.1061,2.9922,2.9242,2.7912,2.5977,2.4199,2.3167,2.2897,2.349,2.4477,2.5722,2.5833,2.6129,2.6638,2.5324,2.4048,2.2907,2.2748,2.2403,2.1824,2.1729,2.172,2.1759,2.1186,2.0857,2.0783,0.0,0.0,0.0,0.0,0.0,0.0,0.0,0.0,0.0,0.0,0.0,0.0,0.0,0.0,0.0,2.1384,0.0,2.348,2.4185,0.0,0.0,0.0,2.4561,2.3783,2.5741,2.6701,2.5584,0.0,0.0,3.2598,0.0,3.5645,3.5537,3.5099,3.5278,3.6705,3.6908,3.7483,3.869,3.9017,3.9322,3.9768,3.9954,3.9971,3.996,4.0106,4.0106,4.0106,4.0106,4.0106,4.0106,4.0106,4.0106,4.0106,3.9973,4.0089,4.0066,4.0072,4.0056,4.0056,4.0079,4.0106,3.2237,3.1428,3.1246,3.0325,2.909,3.0609,3.156,3.2073,3.2784,3.2684,3.1966,3.0994,3.0036,2.9114,2.9101,2.9454,3.015,3.0957,3.2048,3.3283,3.3133,3.3387,3.3994,3.3657,3.3432,3.326,3.3103,3.2879,3.2549,3.1891,3.0807,2.9363,2.8861,2.7134,2.4317,2.5295,2.6285,2.7136,2.7626,2.7716,2.7336,2.5543,2.4449,2.4156,2.3206,2.2633,2.2453,2.1969,2.1929,2.2433,2.2323,2.2233,2.2224,2.0657,0.0,0.0,0.0,0.0,0.0,0.0,0.0,0.0,0.0,1.9269,1.7478,0.0,2.0223,0.0,2.3736,2.5123,2.4731,2.5284,0.0,0.0,2.5989,2.636,2.6328,2.8096,2.8918,2.7839,3.0746,3.2853,3.2786,3.495,3.6102,3.5036,3.6139,3.724,3.7618,3.8137,3.8594,3.8959,3.9443,3.9886,4.0056,4.0106,4.0033,4.0106,4.0083,4.0106,4.0083,4.0106,4.0106,4.0106,4.0106,4.0106,4.007,4.0106,4.0106,4.0106,4.0106,4.0106,4.0106,4.0106,4.0106,3.2198,3.1759,3.1972,3.1447,3.0557,3.1799,3.2535,3.2925,3.3425,3.3235,3.2534,3.2311,3.1417,3.0163,3.1309,3.1953,3.2256,3.3024,3.3948,3.4922,3.457,3.4585,3.4922,3.4562,3.4397,3.4374,3.4099,3.3941,3.3904,3.3275,3.2557,3.1854,3.1839,3.059,2.8199,2.7703,2.7527,2.7585,2.7974,2.7968,2.7576,2.5923,2.4898,2.459,2.3625,2.3102,2.3091,2.2732,2.2712,2.3076,2.3102,2.3102,2.3067,2.1859,2.0987,0.0,0.0,0.0,0.0,0.0,0.0,0.0,0.0,0.0,0.0,0.0,2.1923,0.0,2.5147,2.634,2.5572,2.6119,2.6543,2.6533,2.6887,2.7147,2.719,2.878,2.9791,2.9721,3.1654,3.3043,3.3174,3.4738,3.5577,3.4759,3.6254,3.7519,3.7855,3.8499,3.8956,3.8973,3.9223,3.9608,4.0014,3.8918,3.8388,3.9189,3.9045,3.8789,3.9015,3.9069,3.9092,3.9066,3.906,3.9174,3.9393,3.9825,3.9857,3.9062,3.9487,4.0033,4.0106,4.0106,4.0106,3.1499,3.1484,3.1434,3.1406,3.1463,3.2153,3.2472,3.2516,3.2581,3.2593,3.2619,3.2917,3.2221,3.0982,3.2626,3.3249,3.3093,3.3945,3.4751,3.5414,3.5291,3.5306,3.5422,3.5348,3.5253,3.5095,3.478,3.4552,3.4426,3.3969,3.3672,3.3522,3.3574,3.3193,3.231,3.0089,2.8607,2.7869,2.7848,2.7848,2.7824,2.6384,2.5328,2.4745,2.3988,2.3589,2.3589,2.3589,2.3589,2.3589,2.3589,2.3634,2.3699,2.2597,2.1979,0.0,2.0881,0.0,0.0,0.0,0.0,0.0,0.0,0.0,0.0,2.3162,2.3527,2.3915,2.5884,2.683,2.6151,2.6798,2.7241,2.7262,2.7432,2.7456,2.7334,2.8658,3.0006,3.097,3.1918,3.2745,3.3215,3.4101,3.468,3.4509,3.5808,3.6957,3.7437,3.8178,3.8693,3.8759,3.8613,3.8787,3.9129,3.7338,3.6329,3.7944,3.7878,3.7294,3.7822,3.7887,3.7858,3.7857,3.7924,3.7995,3.8346,3.9084,3.908,3.7749,3.8748,3.9805,3.9895,4.002,4.0106,3.2054,3.2014,3.1574,3.1406,3.1424,3.1568,3.1805,3.2138,3.2463,3.2593,3.2588,3.2659,3.2508,3.2262,3.2603,3.2742,3.2725,3.3345,3.4154,3.5079,3.4197,3.4267,3.5035,3.4542,3.3882,3.3276,3.4615,3.4876,3.4107,3.4782,3.4569,3.3537,3.4046,3.3432,3.1757,0.0,0.0,0.0,2.9232,2.9225,2.9151,2.6841,2.5543,2.5373,2.4233,0.0,2.3589,2.3589,2.3589,2.3589,2.3589,0.0,0.0,0.0,0.0,0.0,0.0,0.0,0.0,0.0,0.0,0.0,2.4012,2.3728,2.348,2.3989,2.4464,2.4778,2.5952,2.6634,2.6516,2.711,2.7516,2.7528,2.7986,2.8085,2.7686,2.9164,3.0356,3.0406,3.1668,3.2389,3.2117,3.3517,3.4196,3.3292,3.5147,3.6466,3.6053,3.7161,3.7976,3.7992,3.7892,3.7806,3.7623,3.6407,3.6029,3.7464,3.7827,3.7655,3.7691,3.7742,3.7786,3.7749,3.782,3.7626,3.7377,3.7479,3.7764,3.8185,3.8595,3.894,3.9109,3.9649,4.0106,3.2652,0.0,3.2374,3.2248,0.0,3.1913,3.1909,3.2102,3.2038,3.2019,3.2017,3.2214,3.2185,3.2053,3.3008,3.3165,3.2728,3.3498,3.3969,3.4174,3.3637,3.3538,3.3811,3.346,3.3052,3.2651,3.3599,3.3819,3.3371,3.4293,3.4404,3.3758,3.4578,3.4479,3.3491,3.3155,3.2003,3.0058,2.9749,2.9749,2.9945,2.7775,2.6578,2.6554,0.0,0.0,0.0,0.0,0.0,0.0,0.0,0.0,0.0,0.0,0.0,2.5074,2.5106,2.5231,2.5557,2.5884,2.6357,2.7009,2.7066,2.6512,2.5201,2.5992,2.6636,2.6766,2.7272,2.759,2.759,2.7615,2.7585,2.7619,2.7879,2.7919,2.7783,2.8752,2.9543,2.9694,3.0715,3.1516,3.1536,3.2365,3.281,3.2239,3.3796,3.5053,3.4826,3.6085,3.7107,3.673,3.6662,3.6585,3.6282,3.5902,3.5676,3.6492,3.6662,3.6662,3.6662,3.6662,3.6654,3.6662,3.6662,3.6545,3.6336,3.6262,3.6434,3.6976,3.7488,3.7762,3.7853,3.8697,3.9496,3.319,3.3115,3.3203,3.319,3.3052,3.2577,3.2355,3.2305,0.0,0.0,0.0,3.1742,3.1715,3.1516,3.3078,3.3347,3.2637,3.3512,3.3753,3.3474,3.3283,3.2998,3.2677,3.2554,3.2345,3.2123,3.2446,3.2513,3.2402,3.3302,3.3756,3.3848,3.4764,3.5252,3.5287,3.4779,3.335,3.1113,3.0298,3.0163,3.0605,2.8671,2.7585,2.7585,2.6303,2.56,2.56,2.56,2.56,2.5609,2.5713,2.5839,2.5944,2.6057,2.6186,2.6312,2.6839,2.7363,2.7929,2.8449,2.9018,2.9563,2.9608,2.8903,2.7243,2.8143,2.8778,2.8778,2.8778,2.8771,2.8778,2.8177,2.7779,2.7773,2.7681,2.7591,2.763,2.8073,2.8612,2.9016,2.9858,3.0635,3.1383,3.1547,3.1496,3.1675,3.2796,3.3649,3.4004,3.5392,3.6235,3.5757,3.5709,3.557,3.5506,3.5529,3.5489,3.5595,3.5578,3.5489,3.5489,3.5489,3.5489,3.562,3.5497,3.5545,3.5529,3.556,3.5546,3.566,3.6352,3.6927,3.6941,3.7685,3.8481,3.3519,3.3151,3.3607,3.3519,3.3079,3.3014,3.2977,3.2889,3.1871,3.1406,3.1404,3.1461,3.1463,3.1406,3.1699,3.1739,3.1623,3.2211,3.2948,0.0,3.2799,3.2586,3.2904,3.2357,3.1426,3.0381,3.181,3.2186,3.1573,3.2348,3.2802,3.2917,3.3739,3.4348,3.4612,3.4563,3.4024,3.3073,3.1869,3.1271,3.1316,2.8883,2.7585,2.754,2.6333,2.56,2.56,2.5644,2.56,2.5615,2.6165,2.6725,2.73,2.785,2.8427,2.8979,2.9121,2.921,2.9294,2.9405,2.9503,2.96,2.9608,2.9465,2.9219,2.9345,2.9465,2.9458,2.9458,2.9452,2.9428,2.8859,2.8449,2.8389,2.7946,2.76,2.763,2.7764,2.8304,2.9382,2.9608,3.0238,3.1271,3.1496,3.1496,3.1682,3.2594,3.3851,3.475,3.5452,3.5612,3.5514,3.5489,3.5489,3.5489,3.5489,3.5489,3.5489,3.5489,3.5489,3.5489,3.5489,3.5489,3.5489,3.5489,3.5489,3.5489,3.5489,3.5702,3.6126,3.6492,3.6768,3.7212,3.7203,3.7196,3.4198,3.3972,3.3922,3.377,3.353,3.3241,3.3113,3.3065,3.2562,3.2313,3.2286,3.1976,3.2012,3.23,3.2313,3.2324,3.2326,3.2566,3.2775,3.2883,3.243,3.2182,3.2102,3.1806,3.1328,3.0735,3.1209,3.1449,3.1351,3.168,3.1972,3.2302,3.291,3.3316,3.3458,3.3477,3.3559,3.3745,3.2629,3.2034,3.2011,3.0163,2.9016,2.8686,2.8066,2.759,2.7239,2.756,2.776,2.7767,2.8045,2.8366,2.8663,2.8971,2.9287,2.9585,2.9907,3.0073,3.0073,3.0432,3.0635,3.065,3.0628,3.0628,3.0635,3.0291,3.0095,3.008,3.0073,3.008,3.0072,2.9511,2.9003,2.8637,2.862,2.853,2.8267,2.8492,2.9054,2.9922,3.0095,3.0462,3.1384,3.1496,3.1496,3.1578,3.24,3.3365,3.4277,3.445,3.4703,3.534,3.5489,3.5489,3.5489,3.5489,3.5489,3.5489,3.5489,3.5489,3.5489,3.5489,3.5489,3.5489,3.5489,3.5489,3.5489,3.5489,3.5668,3.5831,3.5998,3.6204,3.6407,3.6227,3.6172,3.4803,3.4665,3.4388,3.4187,3.4022,3.3368,3.3165,3.3255,3.3153,3.3176,3.3192,3.2667,3.2665,3.3088,3.3113,3.3113,3.3113,3.3113,3.2851,3.2441,3.2403,3.2104,3.1635,3.1574,3.1522,3.1371,3.0974,3.0997,3.1347,3.1284,3.1572,3.214,3.2374,3.2567,3.2773,3.2662,3.3066,3.3884,3.3096,3.2741,3.2901,3.1637,3.0657,3.008,2.9864,2.9503,2.8913,2.9338,2.9608,2.9608,2.9734,2.9789,2.9803,2.9952,3.0027,3.0073,3.0477,3.0724,3.0762,3.1204,3.1496,3.1496,3.1496,3.1496,3.1458,3.1024,3.0739,3.0732,3.0717,3.0732,3.0643,3.0163,2.9586,2.9116,2.9353,2.9324,2.8973,2.9309,2.9832,3.0365,3.0478,3.0747,3.1308,3.1496,3.1578,3.1795,3.2176,3.2744,3.3357,3.3507,3.3993,3.4726,3.5272,3.5376,3.534,3.5421,3.5474,3.5489,3.5489,3.5489,3.5489,3.5489,3.5489,3.5489,3.5489,3.5489,3.5489,3.5489,3.5506,3.5578,3.5595,3.5554,3.5619,3.5611,3.5537,3.5143,3.4803,3.5156,3.5056,3.449,3.3544,3.3404,3.3696,3.3318,3.3391,3.3732,3.3253,3.3052,3.3113,3.3151,3.3153,3.3128,3.3102,3.3077,3.3016,3.3004,3.2692,3.2192,3.2152,3.1876,3.1484,3.1371,3.1361,3.1484,3.1418,3.1835,3.2578,3.2284,3.2451,3.3138,3.2816,3.3045,3.3947,3.3355,3.3458,3.4178,3.3006,3.1989,3.1338,3.0754,3.014,2.9578,2.9585,2.9615,2.9638,3.0133,3.0432,3.0477,3.0979,3.1301,3.1286,3.1369,3.1406,3.1406,3.1466,3.1548,3.1496,3.154,3.1525,3.1511,3.1436,3.1399,3.1376,3.1383,3.1346,3.1368,3.0807,3.0365,3.0178,2.9915,2.9578,2.9548,2.9563,2.9826,3.0425,3.0582,3.0761,3.1361,3.1496,3.1713,3.2131,3.225,3.2572,3.3148,3.329,3.332,3.3806,3.4629,3.504,3.4772,3.5108,3.522,3.5355,3.5474,3.5415,3.537,3.5429,3.5489,3.5489,3.5489,3.5489,3.5489,3.5489,3.5489,3.5489,3.5489,3.5489,3.5489,3.5489,3.5489,3.5917,3.568,3.5556,3.5017,3.4237,3.4074,3.3809,3.3431,3.3531,3.3696,3.3859,3.3658,3.3757,3.4059,3.4048,3.3884,3.3594,3.3581,3.3569,3.3581,3.358,3.3432,3.3232,3.3196,3.293,3.2411,3.2051,3.2074,3.2288,3.2051,3.1926,3.1938,3.1742,3.1835,3.2143,3.1686,3.1873,3.2764,3.2257,3.2693,3.3939,3.349,3.2774,3.2191,3.2205,3.1749,3.0889,3.1091,3.1128,3.0777,3.0957,3.1099,3.1099,3.1346,3.1496,3.1525,3.1892,3.2086,3.2101,3.2452,3.2519,3.2138,3.2086,3.1936,3.1548,3.1496,3.1496,3.1496,3.1496,3.1496,3.1481,3.1249,3.0949,3.062,3.0605,3.056,3.0163,3.047,3.0837,3.1069,3.1084,3.1159,3.1414,3.1496,3.1608,3.1862,3.1899,3.2101,3.2318,3.231,3.2318,3.2363,3.2819,3.3372,3.3747,3.3843,3.4067,3.4314,3.4651,3.4884,3.4989,3.5295,3.5489,3.5489,3.5489,3.5489,3.5489,3.5489,3.5489,3.5489,3.5489,3.5489,3.5489,3.5489,3.5489,3.6417,3.6318,3.5757,3.5155,3.4599,3.4651,3.4339,3.3809,3.4024,3.4176,3.4314,3.4338,3.4639,3.5078,3.4865,3.4476,3.4149,3.4123,3.4123,3.4123,3.4112,3.4099,3.4112,3.4112,3.3834,3.3343,3.3056,3.3056,3.3242,3.2729,3.224,3.1899,3.17,3.1612,3.156,3.0962,3.1064,3.1893,3.147,3.1997,3.3388,3.3639,3.3438,3.3132,3.3522,3.3222,3.2116,3.234,3.2377,3.2071,3.1884,3.1862,3.2034,3.2041,3.2034,3.2086,3.2497,3.2766,3.2774,3.3058,3.3021,3.2557,3.2362,3.2026,3.163,3.1496,3.1496,3.1496,3.1496,3.1496,3.1496,3.1496,3.1271,3.0867,3.1249,3.1264,3.0882,3.1234,3.1451,3.1496,3.1436,3.1496,3.1496,3.1496,3.1518,3.1533,3.1518,3.1496,3.1496,3.1533,3.154,3.1496,3.154,3.2011,3.2938,3.2833,3.2789,3.3634,3.4308,3.4622,3.4705,3.5258,3.5489,3.5489,3.5489,3.5489,3.5489,3.5489,3.5489,3.5489,3.5489,3.5489,3.5489,3.5489,3.5489,3.6417,3.6318,3.5769,3.5769,3.6168,3.5179,3.4966,3.5143,3.4842,3.4941,3.5307,3.537,3.5743,3.6179,3.5229,3.4715,3.4665,3.4665,3.4665,3.4665,3.4665,3.4654,3.4677,3.4664,3.4377,3.3935,3.4223,3.42,3.3822,3.3318,3.3052,3.2977,3.2439,3.2156,3.2051,3.119,3.108,3.1806,3.1433,3.1659,3.2634,3.3482,3.3956,3.4168,3.4428,3.4106,3.3417,3.2811,3.2796,3.338,3.2781,3.2729,3.3275,3.3365,3.3342,3.335,3.3417,3.3455,3.3372,3.3035,3.2714,3.2512,3.2183,3.1622,3.163,3.16,3.157,3.1496,3.1496,3.1496,3.1496,3.1496,3.1481,3.1406,3.1436,3.1458,3.1436,3.1414,3.1496,3.1496,3.1496,3.1496,3.1496,3.1496,3.1496,3.1496,3.1496,3.1496,3.1496,3.1496,3.1496,3.1496,3.154,3.175,3.2325,3.2168,3.2594,3.3455,3.4061,3.4622,3.5123,3.5489,3.5489,3.5489,3.5489,3.5489,3.5489,3.5489,3.5489,3.5489,3.5489,3.5489,3.5489,3.5489,3.5489,3.6417,3.6393,3.618,3.5994,3.5819,3.5779,3.5491,3.5018,3.5168,3.5307,3.547,3.5495,3.5831,3.6368,3.5979,3.5579,3.5255,3.5218,3.5218,3.5218,3.5218,3.5206,3.5194,3.5218,3.493,3.4515,3.4603,3.4414,3.3924,3.3694,3.3431,3.3128,3.2891,3.2778,3.264,3.2026,3.1665,3.1556,3.1084,3.112,3.169,3.2028,3.2522,3.3306,3.4525,3.4824,3.4158,3.3896,3.3702,3.3522,3.3245,3.3245,3.3455,3.3507,3.3507,3.3552,3.3904,3.4143,3.4158,3.4345,3.4225,3.3806,3.3582,3.2946,3.2325,3.2108,3.1966,3.1645,3.1511,3.1496,3.1496,3.1496,3.1496,3.1496,3.1496,3.1496,3.1496,3.1496,3.1496,3.1496,3.1496,3.1496,3.1496,3.1496,3.1496,3.1496,3.1496,3.1496,3.1496,3.1496,3.1496,3.1496,3.1511,3.1585,3.1772,3.1705,3.1951,3.2886,3.3619,3.4158,3.4682,3.525,3.537,3.5459,3.5489,3.5444,3.5429,3.5489,3.5489,3.5489,3.5489,3.5489,3.5489,3.5489,3.5489,3.6417,3.6417,3.6417,3.6156,3.5869,3.623,3.5967,3.5303,3.563,3.5794,3.5806,3.5806,3.6019,3.6355,3.6417,3.6205,3.5806,3.5794,3.577,3.5806,3.5806,3.5794,3.5782,3.5782,3.5493,3.5004,3.4778,3.4577,3.4426,3.4237,3.3872,3.3382,3.3355,3.3276,3.3029,3.2493,3.2001,3.161,3.0972,3.0755,3.1004,3.1155,3.1633,3.2678,3.4169,3.4827,3.4347,3.445,3.4436,3.4166,3.3941,3.3911,3.4121,3.4143,3.4143,3.4188,3.4578,3.4832,3.4832,3.504,3.4959,3.4533,3.4256,3.3739,3.2908,3.2826,3.2594,3.225,3.2146,3.2146,3.2131,3.2161,3.1981,3.163,3.1496,3.1496,3.1496,3.1496,3.1496,3.1496,3.1496,3.1496,3.1496,3.1496,3.1496,3.1496,3.1496,3.1496,3.1496,3.1496,3.1496,3.1525,3.1817,3.1772,3.2004,3.2161,3.2228,3.3013,3.3739,3.4128,3.4518,3.5048,3.531,3.5415,3.5415,3.537,3.5376,3.5474,3.5489,3.5489,3.5489,3.5489,3.5489,3.5489,3.5489,3.6417,3.6417,3.6417,3.638,3.633,3.638,3.638,3.6292,3.633,3.6318,3.6292,3.6355,3.6343,3.6417,3.6417,3.638,3.633,3.6305,3.6318,3.6318,3.633,3.633,3.6318,3.6305,3.6055,3.5519,3.5017,3.5005,3.5331,3.4916,3.4414,3.396,3.3834,3.3556,3.3113,3.2579,3.2217,3.189,3.1125,3.0643,3.0651,3.0898,3.1467,3.2379,3.3432,3.3973,3.3947,3.4343,3.4817,3.5235,3.4809,3.4824,3.525,3.5325,3.5415,3.5325,3.5444,3.5466,3.5376,3.4952,3.472,3.457,3.4001,3.3754,3.3582,3.3507,3.344,3.3275,3.3297,3.338,3.3335,3.3305,3.2826,3.178,3.1615,3.1615,3.1511,3.1496,3.1496,3.1496,3.1496,3.1496,3.1496,3.1496,3.1496,3.1496,3.1496,3.1496,3.1496,3.1496,3.1496,3.1638,3.2019,3.2258,3.2534,3.2841,3.302,3.3334,3.3986,3.4511,3.4854,3.5295,3.5295,3.537,3.5265,3.522,3.5429,3.5489,3.5489,3.5489,3.5489,3.5489,3.5489,3.5489,3.5489,3.6417,3.6417,3.6417,3.6417,3.6417,3.6417,3.6417,3.6417,3.6417,3.6417,3.6417,3.6417,3.6417,3.6417,3.6417,3.6417,3.6417,3.6417,3.6417,3.643,3.6417,3.6417,3.6417,3.6417,3.6318,3.6118,3.5967,3.5718,3.5507,3.5331,3.4816,3.4073,3.3922,3.3619,3.314,3.2878,3.2501,3.1685,3.1346,3.0821,3.0153,3.0176,3.0413,3.079,3.2191,3.304,3.3119,3.442,3.5254,3.5481,3.531,3.5288,3.5459,3.5489,3.5489,3.5489,3.5489,3.5489,3.5474,3.5325,3.5145,3.5145,3.4959,3.4659,3.4263,3.4173,3.3986,3.3627,3.3507,3.3507,3.3507,3.3507,3.3155,3.2303,3.2176,3.1989,3.163,3.1511,3.1496,3.1496,3.1496,3.1496,3.1496,3.1496,3.1496,3.1496,3.1496,3.1496,3.1496,3.1496,3.1496,3.157,3.2191,3.2901,3.3305,3.3701,3.4015,3.4082,3.4487,3.4802,3.516,3.5055,3.51,3.5175,3.507,3.5205,3.5415,3.5489,3.5489,3.5489,3.5489,3.5489,3.5489,3.5489,3.5489,3.6417,3.6417,3.6417,3.6417,3.6417,3.6417,3.6417,3.6417,3.6417,3.6417,3.6417,3.6417,3.6417,3.6417,3.6417,3.6417,3.6417,3.6417,3.6518,3.6631,3.6468,3.6417,3.6417,3.6417,3.6417,3.6417,3.6406,3.6218,3.5869,3.5794,3.5368,3.4628,3.4501,3.4135,3.3468,3.3379,3.2927,3.2112,3.161,3.1082,3.0454,2.9993,2.996,3.0428,3.1485,3.22,3.2651,3.4132,3.5116,3.5416,3.5489,3.5489,3.5489,3.5489,3.5489,3.5489,3.5489,3.5489,3.5489,3.5474,3.5489,3.5489,3.5489,3.534,3.4959,3.4877,3.4629,3.4337,3.4277,3.4247,3.4262,3.4262,3.3933,3.332,3.3006,3.2579,3.2004,3.1645,3.1511,3.1496,3.1496,3.1496,3.1496,3.1496,3.1496,3.1496,3.1496,3.1496,3.1496,3.1496,3.1525,3.178,3.2452,3.3208,3.4015,3.4517,3.4989,3.5034,3.507,3.519,3.5376,3.4688,3.4412,3.4666,3.4681,3.5235,3.5489,3.5489,3.5489,3.5489,3.5489,3.5489,3.5489,3.5489,3.5489,3.6417,3.6417,3.6417,3.6417,3.6417,3.6417,3.6417,3.6417,3.6417,3.6417,3.6417,3.6417,3.6417,3.6417,3.6417,3.6417,3.6418,3.6519,3.6733,3.6934,3.6796,3.6582,3.643,3.6417,3.6417,3.6417,3.6417,3.638,3.6305,3.6293,3.6081,3.5419,3.5294,3.4955,3.4099,3.3922,3.3556,3.2889,3.1974,3.1446,3.1173,3.0382,3.018,3.0936,3.118,3.1715,3.2625,3.3762,3.4691,3.5352,3.5489,3.5489,3.5489,3.5489,3.5489,3.5489,3.5489,3.5489,3.5489,3.5489,3.5489,3.5489,3.5489,3.5489,3.54,3.5355,3.534,3.5257,3.5295,3.537,3.5355,3.5325,3.504,3.4578,3.3814,3.317,3.2617,3.2063,3.1802,3.1608,3.1518,3.157,3.163,3.16,3.1705,3.154,3.163,3.1839,3.1735,3.1795,3.169,3.2176,3.2953,3.3514,3.4322,3.4853,3.5265,3.5303,3.5325,3.5376,3.5436,3.4763,3.4352,3.4532,3.4666,3.5205,3.5489,3.5489,3.5489,3.5489,3.5489,3.5489,3.5489,3.5489,3.5489,3.6417,3.6417,3.6417,3.6417,3.6417,3.6417,3.6417,3.6417,3.6417,3.6417,3.6417,3.6417,3.6417,3.6417,3.6417,3.6417,3.6506,3.6783,3.701,3.7211,3.7525,3.7072,3.6531,3.6417,3.6417,3.6417,3.6417,3.6417,3.6417,3.6417,3.6093,3.5508,3.5545,3.5206,3.4527,3.4124,3.3632,3.309,3.2401,3.1577,3.0924,3.062,3.0311,3.0184,3.0846,3.1669,3.266,3.4225,3.5189,3.5441,3.5489,3.5489,3.5489,3.5489,3.5489,3.5489,3.5489,3.5489,3.5489,3.5489,3.5489,3.5489,3.5489,3.5489,3.5489,3.5489,3.5489,3.5489,3.5489,3.5489,3.5489,3.5489,3.537,3.516,3.4285,3.3522,3.3275,3.308,3.2639,3.1832,3.2392,3.2392,3.2168,3.2243,3.2467,3.1929,3.2108,3.2632,3.2265,3.2437,3.2482,3.3028,3.3672,3.4061,3.4555,3.5092,3.5421,3.5444,3.5436,3.5421,3.5451,3.5235,3.51,3.519,3.5085,3.5444,3.5489,3.5489,3.5489,3.5489,3.5489,3.5489,3.5489,3.5489,3.5489,3.6859,3.706,3.6833,3.6732,3.6683,3.6494,3.6417,3.6417,3.6417,3.6417,3.6417,3.6417,3.6417,3.6417,3.6417,3.6531,3.6745,3.6821,3.7248,3.7977,3.8241,3.7738,3.6934,3.6569,3.6417,3.6417,3.6417,3.6417,3.6417,3.6417,3.6205,3.5968,3.5881,3.5581,3.5079,3.4742,3.4175,3.3483,3.2866,3.2139,3.1341,3.1047,3.0635,3.0427,3.1042,3.2029,3.3183,3.4302,3.5019,3.5367,3.5489,3.5489,3.5489,3.5489,3.5489,3.5489,3.5489,3.5489,3.5489,3.5489,3.5489,3.5489,3.5489,3.5489,3.5489,3.5489,3.5489,3.5489,3.5489,3.5489,3.5489,3.5489,3.5489,3.5385,3.4801,3.424,3.3971,3.3642,3.3185,3.2766,3.2931,3.3559,3.305,3.3237,3.2706,3.2198,3.2138,3.2422,3.249,3.2946,3.3365,3.3754,3.4091,3.4398,3.4659,3.5145,3.5436,3.5489,3.5489,3.5481,3.5376,3.537,3.528,3.525,3.5385,3.5489,3.5489,3.5489,3.5489,3.5489,3.5489,3.5489,3.5489,3.5489,3.5489,3.755,3.7952,3.7412,3.7223,3.7173,3.6658,3.6468,3.6494,3.6431,3.6456,3.6519,3.6494,3.6644,3.6569,3.6783,3.6859,3.7261,3.7097,3.7788,3.8517,3.8818,3.8291,3.7524,3.6984,3.6771,3.672,3.6556,3.6519,3.6544,3.6494,3.6417,3.6318,3.6331,3.6106,3.5644,3.5458,3.4955,3.4175,3.3494,3.2878,3.2227,3.1725,3.1213,3.0885,3.1442,3.2277,3.318,3.3902,3.4436,3.5279,3.5416,3.5481,3.5489,3.5489,3.5489,3.5489,3.5489,3.5489,3.5489,3.5489,3.5489,3.5489,3.5489,3.5489,3.5489,3.5489,3.5489,3.5489,3.5489,3.5489,3.5489,3.5489,3.5489,3.5474,3.5406,3.5175,3.4674,3.4076,3.3717,3.3709,3.3732,3.433,3.4472,3.403,3.2811,3.2804,3.2848,3.3245,3.3372,3.3626,3.3881,3.4075,3.4367,3.4637,3.4892,3.5153,3.5355,3.5489,3.5489,3.5436,3.5227,3.5175,3.5093,3.5108,3.537,3.5489,3.5489,3.5489,3.5489,3.5489,3.5489,3.5489,3.5489,3.5489,3.5489,3.7902,3.7965,3.7436,3.7437,3.7638,3.6821,3.6657,3.6997,3.6594,3.6683,3.6947,3.7034,3.7248,3.7625,3.755,3.7739,3.7889,3.8102,3.8843,3.9333,3.9057,3.8831,3.8404,3.7927,3.7675,3.7525,3.7186,3.701,3.6947,3.6607,3.6417,3.6417,3.6393,3.6343,3.6156,3.5744,3.5433,3.5005,3.4237,3.353,3.2966,3.2378,3.1844,3.142,3.1776,3.1874,3.2114,3.3223,3.4061,3.4436,3.5003,3.5384,3.5465,3.5489,3.5489,3.5489,3.5489,3.5489,3.5489,3.5489,3.5489,3.5489,3.5489,3.5489,3.5489,3.5489,3.5489,3.5489,3.5489,3.5489,3.5489,3.5489,3.5489,3.5489,3.5489,3.5459,3.528,3.513,3.4959,3.4981,3.4966,3.4936,3.4614,3.4898,3.415,3.3619,3.3716,3.4247,3.4322,3.427,3.4434,3.4539,3.4786,3.5034,3.5108,3.5303,3.537,3.5489,3.5489,3.5489,3.5265,3.5205,3.5205,3.5295,3.5444,3.5489,3.5489,3.5489,3.5489,3.5489,3.5489,3.5489,3.5489,3.5489,3.5489,3.8555,3.873,3.8228,3.8165,3.8253,3.755,3.7311,3.75,3.7298,3.7299,3.7525,3.7575,3.7739,3.8002,3.8015,3.8115,3.8517,3.8994,3.9245,3.9346,3.922,3.9296,3.9245,3.8906,3.858,3.8052,3.7449,3.7236,3.706,3.6732,3.6417,3.6417,3.6406,3.6393,3.6393,3.6081,3.5794,3.5457,3.498,3.44,3.3848,3.3283,3.2866,3.247,3.243,3.2262,3.2471,3.3134,3.3491,3.3652,3.4259,3.505,3.5424,3.5481,3.5496,3.5489,3.5489,3.5489,3.5489,3.5489,3.5489,3.5489,3.5489,3.5489,3.5489,3.5489,3.5489,3.5489,3.5489,3.5489,3.5489,3.5489,3.5489,3.5489,3.5489,3.5489,3.5489,3.5489,3.5489,3.5489,3.5415,3.5242,3.5167,3.5197,3.4876,3.4076,3.3559,3.4038,3.4443,3.4473,3.4861,3.507,3.528,3.5429,3.5429,3.5459,3.5444,3.5489,3.5489,3.5489,3.5415,3.5415,3.5459,3.5489,3.5489,3.5489,3.5489,3.5489,3.5489,3.5489,3.5489,3.5489,3.5489,3.5489,3.5489,3.9208,3.9634,3.912,3.8944,3.8894,3.8278,3.8027,3.8128,3.804,3.7965,3.814,3.8128,3.8241,3.8279,3.8341,3.8605,3.9007,3.9371,3.9497,3.9258,3.9484,3.9597,3.9584,3.9471,3.9157,3.8241,3.7839,3.7587,3.7274,3.6821,3.6632,3.6544,3.6418,3.6506,3.6507,3.6393,3.6143,3.5743,3.5458,3.5193,3.4741,3.4212,3.3805,3.3305,3.3012,3.2702,3.2718,3.2948,3.2965,3.2593,3.3327,3.416,3.4814,3.5246,3.5271,3.5223,3.5149,3.5116,3.5149,3.5328,3.5489,3.5489,3.5489,3.5489,3.5489,3.5489,3.5489,3.5489,3.5489,3.5489,3.5489,3.5489,3.5489,3.5489,3.5489,3.5489,3.5489,3.5489,3.5489,3.5489,3.5489,3.5376,3.525,3.519,3.4892,3.4563,3.4091,3.3896,3.4361,3.472,3.5108,3.5295,3.5444,3.5489,3.5489,3.5489,3.5489,3.5489,3.5489,3.5489,3.5489,3.5489,3.5489,3.5489,3.5489,3.5489,3.5489,3.5489,3.5489,3.5489,3.5489,3.5489,3.5489,3.5489,3.5519,3.922,3.966,3.9132,3.917,3.9371,3.8467,3.8341,3.8605,3.8266,3.8316,3.8718,3.8756,3.8994,3.9245,3.9396,3.9496,3.9522,3.9647,3.9647,3.9509,3.9659,3.9697,3.971,3.9697,3.9521,3.9371,3.8831,3.8328,3.7789,3.7362,3.6947,3.6934,3.6657,3.6632,3.6746,3.6645,3.6393,3.6106,3.5794,3.5506,3.5305,3.4839,3.4114,3.3471,3.3184,3.2715,3.2077,3.2112,3.218,3.2155,3.2568,3.2911,3.3351,3.3931,3.4251,3.4386,3.4411,3.4461,3.4641,3.5101,3.5416,3.5489,3.5489,3.5489,3.5489,3.5489,3.5489,3.5489,3.5489,3.5489,3.5489,3.5489,3.5489,3.5489,3.5489,3.5489,3.5489,3.5489,3.5489,3.5489,3.5489,3.5489,3.5385,3.531,3.5198,3.5078,3.4869,3.4696,3.4959,3.5168,3.534,3.5444,3.5474,3.5489,3.5489,3.5489,3.5489,3.5489,3.5489,3.5489,3.5489,3.5489,3.5489,3.5489,3.5489,3.5489,3.5489,3.5489,3.5489,3.5489,3.5489,3.5504,3.5549,3.5594,3.5661,3.9208,3.9659,3.9409,3.9459,3.9584,3.9119,3.9032,3.9245,3.9007,3.9044,3.9245,3.9321,3.9433,3.9647,3.971,3.971,3.971,3.971,3.971,3.971,3.971,3.971,3.971,3.971,3.971,3.9635,3.9396,3.8831,3.8015,3.7437,3.7148,3.6845,3.6745,3.6833,3.6821,3.6808,3.6632,3.6419,3.6118,3.5956,3.5894,3.5393,3.4565,3.3809,3.3454,3.2916,3.2095,3.1957,3.1806,3.1536,3.1925,3.2327,3.2659,3.3019,3.3538,3.3885,3.3996,3.4262,3.4643,3.5287,3.5465,3.5489,3.5489,3.5489,3.5489,3.5489,3.5489,3.5489,3.5489,3.5489,3.5489,3.5489,3.5489,3.5489,3.5489,3.5489,3.5489,3.5489,3.5489,3.5489,3.5489,3.5489,3.5489,3.5459,3.5489,3.5489,3.5489,3.5489,3.5489,3.5489,3.5489,3.5489,3.5489,3.5489,3.5489,3.5489,3.5489,3.5489,3.5489,3.5489,3.5489,3.5489,3.5489,3.5489,3.5489,3.5489,3.5489,3.5489,3.5489,3.5504,3.5541,3.5586,3.5639,3.5699,3.5885,3.922,3.971,3.971,3.971,3.971,3.971,3.9685,3.971,3.9672,3.9647,3.971,3.9697,3.9685,3.971,3.971,3.971,3.971,3.971,3.971,3.971,3.971,3.971,3.971,3.971,3.971,3.9697,3.9647,3.9157,3.8379,3.7876,3.7386,3.7285,3.7386,3.7286,3.7148,3.7324,3.7034,3.6732,3.6568,3.6543,3.6281,3.5906,3.523,3.43,3.4112,3.3572,3.274,3.2288,3.175,3.1439,3.1698,3.2265,3.2359,3.2619,3.3174,3.3837,3.3979,3.4478,3.4905,3.5432,3.5489,3.5489,3.5489,3.5489,3.5489,3.5489,3.5489,3.5489,3.5489,3.5489,3.5489,3.5489,3.5489,3.5489,3.5489,3.5489,3.5489,3.5489,3.5489,3.5489,3.5489,3.5489,3.5489,3.5489,3.5489,3.5489,3.5489,3.5489,3.5489,3.5489,3.5489,3.5489,3.5489,3.5489,3.5489,3.5489,3.5489,3.5489,3.5489,3.5489,3.5489,3.5489,3.5519,3.5549,3.5489,3.5489,3.5489,3.5504,3.5489,3.5526,3.5601,3.575,3.5953,3.6282,3.6588,3.922,3.9685,3.9697,3.971,3.9685,3.9685,3.971,3.971,3.971,3.971,3.971,3.971,3.971,3.971,3.971,3.971,3.971,3.971,3.971,3.971,3.971,3.971,3.971,3.971,3.971,3.971,3.971,3.9371,3.8843,3.8642,3.8542,3.8329,3.7989,3.8027,3.8102,3.7989,3.7625,3.7198,3.7072,3.6845,3.6468,3.6305,3.5855,3.5305,3.4805,3.4275,3.3497,3.2807,3.2016,3.1559,3.2285,3.2308,3.1829,3.2796,3.3486,3.389,3.4018,3.4084,3.4459,3.518,3.5624,3.5624,3.5541,3.5504,3.5519,3.5579,3.5594,3.5489,3.5489,3.5489,3.5489,3.5489,3.5489,3.5489,3.5489,3.5489,3.5489,3.5489,3.5489,3.5489,3.5489,3.5489,3.5489,3.5489,3.5489,3.5489,3.5489,3.5489,3.5489,3.5489,3.5489,3.5489,3.5489,3.5489,3.5489,3.5489,3.5489,3.5489,3.5489,3.5504,3.5549,3.5579,3.5624,3.5639,3.5639,3.5684,3.578,3.575,3.5571,3.5765,3.6139,3.6312,3.6395,3.6791,3.7276,3.8517,3.8768,3.9107,3.9233,3.9283,3.9559,3.971,3.971,3.971,3.971,3.971,3.971,3.971,3.971,3.971,3.971,3.971,3.971,3.971,3.971,3.971,3.971,3.971,3.971,3.971,3.971,3.9685,3.9634,3.9308,3.9007,3.8781,3.8467,3.8479,3.8354,3.8655,3.8517,3.7952,3.7362,3.6896,3.662,3.6456,3.6368,3.6118,3.5557,3.527,3.4715,3.3974,3.3522,3.2704,3.2162,3.2401,3.2604,3.2409,3.2756,3.3093,3.4406,3.3602,3.3768,3.4785,3.5555,3.5843,3.5899,3.5749,3.5504,3.5556,3.5777,3.5777,3.5534,3.5504,3.5489,3.5489,3.5489,3.5489,3.5489,3.5489,3.5489,3.5489,3.5489,3.5489,3.5489,3.5489,3.5489,3.5489,3.5489,3.5489,3.5489,3.5489,3.5489,3.5489,3.5489,3.5489,3.5489,3.5489,3.5489,3.5489,3.5489,3.5489,3.5489,3.5489,3.5519,3.5624,3.5669,3.5848,3.6189,3.647,3.643,3.6237,3.6146,3.6132,3.6453,3.6821,3.6911,3.7045,3.7548,3.8033,3.76,3.7688,3.8517,3.8969,3.9132,3.9547,3.971,3.971,3.971,3.971,3.971,3.971,3.971,3.971,3.971,3.971,3.971,3.971,3.971,3.971,3.971,3.971,3.971,3.971,3.971,3.971,3.971,3.9659,3.9559,3.9321,3.8931,3.8442,3.8944,3.8894,3.8705,3.8781,3.858,3.7513,3.6972,3.6632,3.6431,3.6417,3.6168,3.5832,3.5483,3.5044,3.4274,3.3897,3.3307,3.2447,3.2821,3.3183,3.3024,3.3257,3.3583,3.4417,3.3906,3.4005,3.4726,3.5289,3.5915,3.6062,3.5938,3.5514,3.5194,3.5745,3.5974,3.533,3.5483,3.5485,3.5489,3.5489,3.5489,3.5489,3.5489,3.5489,3.5519,3.5564,3.5549,3.5489,3.5489,3.5489,3.5489,3.5489,3.5489,3.5489,3.5489,3.5489,3.5489,3.5489,3.5489,3.5489,3.5489,3.5489,3.5489,3.5489,3.5489,3.5579,3.5579,3.5714,3.5908,3.6133,3.6365,3.6745,3.7185,3.7216,3.7039,3.6873,3.6762,3.7133,3.7456,3.7545,3.777,3.8257,3.8631,3.6506,3.6644,3.8228,3.9095,3.9534,3.9685,3.9659,3.9534,3.9609,3.9622,3.9635,3.971,3.971,3.971,3.971,3.971,3.971,3.971,3.971,3.971,3.971,3.971,3.971,3.971,3.971,3.971,3.971,3.971,3.9697,3.9622,3.9534,3.9597,3.9459,3.9547,3.9446,3.9283,3.8931,3.799,3.7349,3.6833,3.6569,3.6443,3.6343,3.6205,3.5781,3.5231,3.4665,3.43,3.3608,3.2575,3.342,3.3659,3.3346,3.368,3.4105,3.4202,3.4159,3.4133,3.4384,3.4462,3.4641,3.5404,3.5838,3.5452,3.4731,3.4843,3.4939,3.5021,3.5196,3.5416,3.5448,3.5519,3.5654,3.5699,3.5789,3.5878,3.5848,3.5706,3.5661,3.5549,3.5579,3.5729,3.5616,3.5646,3.5504,3.5489,3.5489,3.5489,3.5489,3.5489,3.5489,3.5489,3.5489,3.5489,3.5489,3.5534,3.5631,3.5818,3.5908,3.6133,3.6387,3.6635,3.7039,3.7291,3.7697,3.7765,3.7841,3.7712,3.7679,3.7895,3.8099,3.8234,3.8398,3.8742,3.9026,3.6607,3.6947,3.7612,3.7977,3.8178,3.8504,3.8655,3.8655,3.8655,3.8894,3.9258,3.9534,3.971,3.971,3.971,3.971,3.971,3.971,3.971,3.971,3.971,3.971,3.971,3.971,3.971,3.971,3.971,3.971,3.971,3.971,3.971,3.971,3.971,3.9697,3.9647,3.9446,3.8969,3.8492,3.7713,3.706,3.6921,3.6531,3.6417,3.6355,3.6268,3.5756,3.5269,3.5018,3.4239,3.3705,3.3968,3.3723,3.3359,3.3651,3.375,3.382,3.3678,3.3467,3.3962,3.4094,3.475,3.4803,3.548,3.5541,3.4392,3.4775,3.4799,3.4834,3.4933,3.5268,3.5179,3.569,3.6156,3.6126,3.6186,3.6282,3.6297,3.6184,3.6154,3.6169,3.6178,3.6246,3.6043,3.5832,3.5646,3.5489,3.5489,3.5489,3.5489,3.5489,3.5489,3.5489,3.5489,3.5691,3.5721,3.5765,3.5825,3.608,3.6327,3.6596,3.6941,3.7563,3.7928,3.8094,3.833,3.8623,3.8728,3.8581,3.856,3.8641,3.8778,3.8952,3.9131,3.9281,3.9445,3.6619,3.6947,3.6959,3.716,3.7475,3.7839,3.8002,3.8002,3.8027,3.8341,3.8931,3.9321,3.9572,3.966,3.971,3.971,3.971,3.971,3.971,3.971,3.971,3.971,3.971,3.971,3.971,3.971,3.971,3.971,3.971,3.971,3.971,3.971,3.971,3.971,3.9622,3.9371,3.9082,3.8693,3.804,3.7311,3.7173,3.6683,3.6406,3.6417,3.6355,3.6043,3.5606,3.5319,3.4966,3.4313,3.404,3.388,3.3558,3.3296,3.3178,3.3098,3.2993,3.2659,3.3581,3.4311,3.4723,3.4242,3.5008,3.4875,3.4477,3.4487,3.4392,3.4299,3.4718,3.5179,3.5215,3.6113,3.6696,3.6761,3.6761,3.6851,3.6926,3.6872,3.6872,3.6872,3.6836,3.674,3.6395,3.6133,3.5885,3.5669,3.5504,3.5504,3.5489,3.5489,3.5489,3.5489,3.5489,3.575,3.6026,3.6236,3.6498,3.6939,3.7142,3.7225,3.7599,3.8212,3.8841,3.9167,3.9412,3.9631,3.9517,3.9245,3.923,3.9307,3.9331,3.9257,3.958,3.9699,3.9873,3.638,3.643,3.6431,3.7009,3.7776,3.7965,3.7927,3.7839,3.7914,3.8266,3.8781,3.8957,3.927,3.9609,3.971,3.971,3.971,3.971,3.971,3.971,3.971,3.971,3.971,3.971,3.971,3.971,3.971,3.971,3.971,3.971,3.971,3.971,3.971,3.971,3.971,3.9697,3.9409,3.8906,3.8303,3.7801,3.7286,3.6784,3.6569,3.6417,3.6417,3.6118,3.5831,3.5682,3.5342,3.4791,3.435,3.4155,3.3926,3.3887,3.3856,3.3842,3.3843,3.4022,3.4586,3.4706,3.4269,3.3641,3.4402,3.4246,3.3573,3.3548,3.392,3.3942,3.4734,3.55,3.6071,3.664,3.6996,3.7404,3.7404,3.7554,3.7635,3.753,3.7516,3.7674,3.7479,3.7218,3.6808,3.6449,3.6178,3.59,3.5616,3.5579,3.5729,3.5848,3.596,3.5729,3.5759,3.608,3.643,3.6819,3.7178,3.7656,3.7896,3.7904,3.8189,3.8733,3.9376,4.0029,4.0148,4.0088,3.9984,3.9849,3.9705,3.9517,3.9412,3.9451,3.9795,4.0058,4.0172,3.5794,3.5831,3.623,3.6607,3.6921,3.6934,3.6947,3.7009,3.7336,3.7789,3.8316,3.8693,3.9208,3.9559,3.971,3.971,3.971,3.971,3.971,3.971,3.971,3.971,3.971,3.971,3.971,3.971,3.971,3.971,3.971,3.971,3.971,3.971,3.971,3.971,3.971,3.971,3.9559,3.9358,3.8881,3.8329,3.7739,3.7198,3.6733,3.6443,3.6417,3.6268,3.6068,3.6006,3.5742,3.5293,3.4916,3.4728,3.4502,3.4438,3.4426,3.4438,3.4438,3.4501,3.4674,3.4655,3.4392,3.3956,3.367,3.3838,3.3611,3.3349,3.3509,3.3788,3.4396,3.5013,3.5427,3.6391,3.7024,3.7906,3.8161,3.8437,3.8518,3.8242,3.8153,3.8467,3.8467,3.7791,3.7298,3.7144,3.6889,3.6887,3.6738,3.6618,3.6693,3.6768,3.6842,3.6319,3.6184,3.6498,3.6872,3.7501,3.8015,3.847,3.8554,3.8458,3.8832,3.9406,3.9864,4.0487,4.0511,4.0481,4.0531,4.0447,3.9915,3.9645,3.9696,3.969,3.9894,4.0133,4.0322,3.5219,3.5281,3.5844,3.6081,3.6118,3.6318,3.6417,3.6506,3.6972,3.75,3.8052,3.8642,3.9208,3.9572,3.971,3.971,3.971,3.971,3.971,3.971,3.971,3.971,3.971,3.971,3.971,3.971,3.971,3.971,3.971,3.971,3.971,3.971,3.971,3.971,3.971,3.9685,3.9685,3.9496,3.9095,3.8567,3.7977,3.7437,3.6897,3.6569,3.6417,3.638,3.6393,3.6343,3.623,3.5869,3.5594,3.5381,3.5092,3.498,3.4968,3.498,3.5204,3.5166,3.5077,3.5014,3.4831,3.4583,3.3949,3.3859,3.4073,3.396,3.3987,3.413,3.4171,3.4772,3.557,3.6547,3.7329,3.8197,3.8623,3.8887,3.8463,3.8147,3.7841,3.8278,3.8561,3.802,3.7878,3.783,3.7697,3.78,3.7911,3.777,3.7575,3.7545,3.753,3.7127,3.6827,3.7142,3.771,3.8449,3.8928,3.9322,3.9287,3.9155,3.9753,4.0367,4.0645,4.0954,4.1239,4.1394,4.1309,4.1061,4.0558,4.0264,4.0234,4.0184,4.0088,4.0367,4.0726,3.4678,3.4766,3.5245,3.5495,3.5607,3.6143,3.6417,3.6455,3.6934,3.7437,3.7977,3.8542,3.907,3.9547,3.9672,3.971,3.971,3.971,3.971,3.971,3.971,3.971,3.971,3.971,3.971,3.971,3.971,3.971,3.971,3.971,3.971,3.971,3.971,3.971,3.971,3.971,3.971,3.9559,3.9308,3.8781,3.8241,3.7713,3.7198,3.6821,3.6657,3.6582,3.6531,3.6456,3.6431,3.6193,3.5869,3.5669,3.5533,3.5509,3.552,3.5669,3.6055,3.5868,3.5644,3.5545,3.5519,3.5354,3.5041,3.4841,3.4653,3.4564,3.4526,3.4663,3.4844,3.5475,3.6194,3.6934,3.7669,3.8255,3.8734,3.8537,3.7968,3.7572,3.7195,3.7357,3.7738,3.7803,3.8344,3.8446,3.8446,3.8512,3.8554,3.8434,3.8234,3.8009,3.7994,3.7934,3.7755,3.786,3.8443,3.9062,3.9445,3.969,3.9999,4.0053,4.069,4.1134,4.1343,4.1652,4.2161,4.2316,4.2177,4.1769,4.1236,4.1027,4.0913,4.0812,4.0771,4.1139,4.1553,3.4124,3.4186,3.4715,3.5156,3.557,3.6131,3.6417,3.6431,3.6594,3.6947,3.745,3.8027,3.863,3.9132,3.9534,3.9635,3.9697,3.971,3.971,3.971,3.971,3.971,3.971,3.971,3.971,3.971,3.971,3.971,3.971,3.971,3.971,3.971,3.971,3.971,3.971,3.971,3.971,3.9672,3.9484,3.9082,3.873,3.8366,3.7751,3.7273,3.7274,3.7097,3.6657,3.6783,3.6757,3.6356,3.6243,3.6143,3.6143,3.6143,3.6143,3.6143,3.6305,3.6292,3.618,3.6131,3.6106,3.6068,3.5904,3.5667,3.5354,3.5067,3.4992,3.5203,3.5171,3.5548,3.6063,3.6766,3.7435,3.7928,3.8228,3.7945,3.7441,3.7175,3.6825,3.6813,3.7189,3.8129,3.8674,3.9125,3.914,3.9176,3.9146,3.9026,3.8892,3.8652,3.8494,3.8458,3.8518,3.8569,3.8808,3.9352,3.9714,4.0053,4.0427,4.0786,4.1154,4.1553,4.1907,4.2281,4.2636,4.288,4.2965,4.2477,4.1879,4.1765,4.166,4.1554,4.1543,4.1888,4.2112,3.3583,3.3657,3.4162,3.469,3.5219,3.5805,3.6055,3.6118,3.6519,3.6921,3.7224,3.7789,3.8203,3.8529,3.8843,3.9094,3.9358,3.9346,3.9434,3.971,3.971,3.971,3.971,3.971,3.971,3.971,3.971,3.971,3.971,3.971,3.971,3.971,3.971,3.971,3.971,3.971,3.971,3.971,3.9609,3.9358,3.9132,3.8919,3.8291,3.7814,3.7939,3.7462,3.6859,3.711,3.6884,3.6506,3.6406,3.6393,3.6393,3.6393,3.6393,3.6368,3.638,3.6393,3.6343,3.6355,3.6393,3.6417,3.6406,3.6205,3.5968,3.5692,3.5717,3.5798,3.5457,3.5351,3.5884,3.6406,3.6957,3.7488,3.7378,3.726,3.7036,3.6818,3.6656,3.6542,3.7189,3.8232,3.8929,3.9417,3.9655,3.9421,3.9421,3.952,3.943,3.9287,3.9122,3.9032,3.9137,3.9218,3.9487,3.9756,4.0124,4.0606,4.1154,4.1493,4.1718,4.2097,4.2551,4.2811,4.302,4.316,4.321,4.2971,4.2552,4.2453,4.2408,4.2387,4.2382,4.2547,4.2736,3.3,3.309,3.3669,3.42,3.4702,3.5269,3.5519,3.5582,3.657,3.7122,3.7198,3.7688,3.7902,3.8002,3.8191,3.8467,3.8781,3.8957,3.922,3.9647,3.971,3.971,3.971,3.971,3.971,3.971,3.971,3.971,3.971,3.971,3.971,3.971,3.971,3.971,3.971,3.971,3.971,3.971,3.9672,3.9496,3.917,3.8931,3.8705,3.8228,3.8102,3.7902,3.7387,3.7135,3.6985,3.662,3.6417,3.6417,3.6417,3.6417,3.6417,3.6417,3.6417,3.6417,3.6417,3.6417,3.6417,3.6417,3.6393,3.6355,3.6205,3.613,3.6143,3.6117,3.5826,3.5775,3.6186,3.635,3.672,3.6919,3.6865,3.6651,3.6371,3.6209,3.6113,3.6138,3.6666,3.7727,3.8779,3.9234,3.9469,3.9392,3.9457,3.9675,3.9816,3.9717,3.9857,3.9723,3.9756,3.9915,4.0139,4.0393,4.0662,4.1145,4.1718,4.2157,4.2381,4.2781,4.324,4.3255,4.3195,4.324,4.324,4.306,4.3,4.303,4.3035,4.3185,4.3255,4.318,4.312,3.2049,3.2493,3.3483,3.3985,3.42,3.5106,3.5244,3.4993,3.6093,3.657,3.6695,3.7122,3.7399,3.7436,3.7739,3.8027,3.8216,3.8529,3.8919,3.9245,3.9446,3.9647,3.971,3.971,3.971,3.971,3.971,3.971,3.971,3.971,3.971,3.971,3.971,3.971,3.971,3.971,3.971,3.971,3.9685,3.966,3.9484,3.9409,3.927,3.8994,3.8843,3.8379,3.7914,3.76,3.7148,3.6632,3.6456,3.6417,3.6417,3.6406,3.6417,3.6406,3.6431,3.6456,3.6417,3.6417,3.6417,3.6417,3.6417,3.6417,3.6393,3.6417,3.638,3.6343,3.6318,3.6318,3.6326,3.638,3.6412,3.6423,3.6424,3.6109,3.5807,3.5718,3.5633,3.5934,3.632,3.7146,3.8255,3.8967,3.917,3.9302,3.9363,3.9553,3.9869,3.9985,4.0668,4.0633,4.0489,4.0588,4.0747,4.1031,4.13,4.1639,4.2142,4.2591,4.2975,4.3145,4.3305,4.3305,4.33,4.3305,4.3305,4.3285,4.327,4.3305,4.3305,4.3305,4.3359,4.3314,4.33,3.1712,3.2292,3.3156,3.3533,3.3707,3.4439,3.4626,3.4539,3.5277,3.5792,3.6056,3.6545,3.6846,3.6858,3.7185,3.7513,3.7651,3.7964,3.8467,3.8869,3.9132,3.9459,3.9572,3.9647,3.971,3.971,3.971,3.971,3.971,3.971,3.971,3.971,3.971,3.971,3.971,3.971,3.971,3.971,3.971,3.971,3.971,3.966,3.9597,3.9446,3.9283,3.8781,3.8329,3.7965,3.7487,3.682,3.6443,3.6417,3.6481,3.6669,3.6619,3.6569,3.6569,3.6657,3.6494,3.6417,3.6417,3.6417,3.6417,3.6417,3.6417,3.6417,3.6417,3.6368,3.6368,3.6368,3.6368,3.6405,3.6403,3.6421,3.6394,3.6236,3.6102,3.6044,3.6043,3.6197,3.6334,3.6312,3.7598,3.927,3.9398,3.933,3.9394,4.0291,4.0476,4.0081,4.0829,4.1307,4.1016,4.0828,4.0782,4.13,4.1953,4.2292,4.2576,4.2856,4.316,4.3225,4.3305,4.3305,4.3305,4.3305,4.3305,4.3305,4.3305,4.3305,4.3305,4.3305,4.3419,4.3628,4.3788,3.1524,3.2141,3.274,3.304,3.318,3.3694,3.3872,3.3922,3.4452,3.4992,3.5444,3.603,3.6268,3.6393,3.6418,3.6733,3.706,3.7399,3.7964,3.8379,3.8693,3.9044,3.9308,3.9446,3.9396,3.9509,3.9622,3.9659,3.971,3.971,3.971,3.971,3.971,3.971,3.971,3.971,3.971,3.971,3.971,3.971,3.971,3.971,3.9672,3.9672,3.956,3.9032,3.8517,3.814,3.7751,3.7097,3.6418,3.6519,3.6582,3.677,3.6632,3.6569,3.6669,3.6644,3.6506,3.6417,3.6417,3.6417,3.6417,3.6417,3.6417,3.6417,3.6417,3.6417,3.6417,3.6417,3.6417,3.6417,3.6417,3.6406,3.6368,3.6355,3.633,3.6305,3.6366,3.6438,3.6273,3.607,3.71,3.882,3.943,3.9373,3.9945,4.1001,4.1486,4.0651,4.0517,4.1016,4.1125,4.0974,4.1148,4.1664,4.2512,4.2646,4.2876,4.3135,4.3305,4.3305,4.3305,4.3305,4.3305,4.3344,4.3329,4.3305,4.3305,4.3479,4.3698,4.3878,4.4072,4.4267,4.4471,3.068,3.1599,3.2152,3.264,3.3128,3.3646,3.368,3.3445,3.4275,3.4767,3.4954,3.5432,3.5918,3.6393,3.6417,3.6556,3.6682,3.6934,3.7148,3.75,3.8039,3.8542,3.8869,3.8919,3.8743,3.9032,3.9471,3.9672,3.971,3.971,3.971,3.971,3.971,3.971,3.971,3.971,3.971,3.971,3.971,3.971,3.971,3.971,3.971,3.9559,3.9245,3.8693,3.8241,3.8103,3.7437,3.6796,3.6431,3.662,3.6783,3.682,3.6619,3.6556,3.6669,3.6607,3.6481,3.6406,3.6417,3.6417,3.6417,3.6417,3.6417,3.6417,3.6417,3.6417,3.6417,3.6417,3.6417,3.6417,3.6417,3.6417,3.6393,3.638,3.6368,3.6368,3.6404,3.6416,3.6366,3.6288,3.6495,3.7949,3.9092,3.9224,3.9722,4.0642,4.0609,4.0379,4.0161,4.0535,4.0904,4.206,4.2624,4.2513,4.3025,4.309,4.3135,4.324,4.3305,4.3305,4.3329,4.3494,4.3449,4.3449,4.3404,4.3673,4.3788,4.4012,4.4332,4.4556,4.4725,4.492,4.5125]},{"header":{"parameterUnit":"m.s-1","parameterCategory":1,"la1":31.0,"la2":29.5877,"lo1":-88.7671,"lo2":-86.6584,"dy":0.0162,"dx":0.0185,"nx":115,"ny":88,"refTime":"2024-02-12T06:00:00:Z","depth":0,"parameterNumber":3,"parameterNumberName":"V-component_of_WINDS"},"data":[0.0,0.0,0.0,0.0,0.0,0.0,0.0,0.0,0.0,0.0,0.0,0.0,0.0,0.0,0.0,0.0,0.0,0.0,0.0,0.0,0.0,0.0,0.0,0.0,0.0,0.0,0.0,0.0,0.0,0.0,0.0,0.0,0.0,0.0,0.0,0.0,0.0,0.0,0.0,0.0,0.0,0.0,0.0,0.0,0.0,0.0,0.0,0.0,0.0,0.0,0.0,0.0,0.0,0.0,0.0,0.0,0.0,0.0,0.0,0.0,0.0,0.0,0.0,0.0,0.0,0.0,0.0,0.0,0.0,0.0,0.0,0.0,0.0,0.0,0.0,0.0,0.0,0.0,0.0,0.0,0.0,0.0,0.0,0.0,0.0,0.0,0.0,0.0,0.0,0.0,0.0,0.0,0.0,0.0,0.0,0.0,0.0,0.0,0.0,0.0,0.0,0.0,0.0,0.0,0.0,0.0,0.0,0.0,0.0,0.0,0.0,0.0,0.0,0.0,0.0,0.0,0.0,0.0,0.0,0.0,0.0,0.0,0.0,0.0,0.0,0.0,0.0,0.0,0.0,0.0,0.0,0.0,0.0,0.0,0.0,0.0,0.0,0.0,0.0,0.0,0.0,0.0,0.0,0.0,0.0,0.0,0.0,0.0,0.0,0.0,0.0,0.0,0.0,0.0,0.0,0.0,0.0,0.0,0.0,0.0,0.0,0.0,0.0,0.0,0.0,0.0,0.0,0.0,0.0,0.0,0.0,0.0,0.0,0.0,0.0,0.0,0.0,0.0,0.0,0.0,0.0,0.0,0.0,0.0,0.0,0.0,0.0,0.0,0.0,0.0,0.0,0.0,0.0,0.0,0.0,0.0,0.0,0.0,0.0,0.0,0.0,0.0,0.0,0.0,0.0,0.0,0.0,0.0,0.0,0.0,0.0,0.0,0.0,0.0,0.0,0.0,0.0,0.0,0.0,0.0,0.0,0.0,0.0,0.0,0.0,0.0,0.0,0.0,0.0,0.0,0.0,0.0,0.0,0.0,0.0,0.0,0.0,0.0,0.0,0.0,0.0,0.0,0.0,0.0,0.0,0.0,0.0,0.0,0.0,0.0,0.0,0.0,0.0,0.0,0.0,0.0,0.0,0.0,0.0,0.0,0.0,0.0,0.0,0.0,0.0,0.0,0.0,0.0,0.0,0.0,0.0,0.0,0.0,0.0,0.0,0.0,0.0,0.0,0.0,0.0,0.0,0.0,0.0,0.0,0.0,0.0,0.0,0.0,0.0,0.0,0.0,0.0,0.0,0.0,0.0,0.0,0.0,0.0,0.0,0.0,0.0,0.0,0.0,0.0,0.0,0.0,0.0,0.0,0.0,0.0,0.0,0.0,0.0,0.0,0.0,0.0,0.0,0.0,0.0,0.0,0.0,0.0,0.0,0.0,0.0,0.0,0.0,0.0,0.0,0.0,0.0,0.0,0.0,0.0,0.0,0.0,0.0,0.0,0.0,0.0,0.0,0.0,0.0,0.0,0.0,0.0,0.0,0.0,0.0,0.0,0.0,0.0,0.0,0.0,0.0,0.0,0.0,0.0,0.0,0.0,0.0,0.0,0.0,0.0,0.0,0.0,0.0,0.0,0.0,0.0,0.0,0.0,0.0,0.0,0.0,0.0,0.0,0.0,0.0,0.0,0.0,0.0,0.0,0.0,0.0,0.0,0.0,0.0,0.0,0.0,0.0,0.0,0.0,0.0,0.0,0.0,0.0,0.0,0.0,0.0,0.0,0.0,0.0,0.0,0.0,0.0,0.0,0.0,0.0,0.0,0.0,0.0,0.0,0.0,0.0,0.0,0.0,0.0,0.0,0.0,0.0,0.0,0.0,0.0,0.0,0.0,0.0,0.0,0.0,0.0,0.0,0.0,0.0,0.0,0.0,0.0,0.0,0.0,0.0,0.0,0.0,0.0,0.0,0.0,0.0,0.0,0.0,0.0,0.0,0.0,0.0,0.0,0.0,0.0,0.0,0.0,0.0,0.0,0.0,0.0,0.0,0.0,0.0,0.0,0.0,0.0,0.0,0.0,0.0,0.0,0.0,0.0,0.0,0.0,0.0,0.0,0.0,0.0,0.0,0.0,0.0,0.0,0.0,0.0,0.0,0.0,0.0,0.0,0.0,0.0,0.0,0.0,0.0,0.0,0.0,0.0,0.0,0.0,0.0,0.0,0.0,0.0,0.0,0.0,0.0,0.0,0.0,0.0,0.0,0.0,0.0,0.0,0.0,0.0,0.0,0.0,0.0,0.0,0.0,0.0,0.0,0.0,0.0,0.0,0.0,0.0,0.0,0.0,0.0,0.0,0.0,0.0,0.0,0.0,0.0,0.0,0.0,0.0,0.0,0.0,0.0,0.0,0.0,0.0,0.0,0.0,0.0,0.0,0.0,0.0,0.0,0.0,0.0,0.0,0.0,0.0,0.0,0.0,0.0,0.0,0.0,0.0,0.0,0.0,0.0,0.0,0.0,0.0,0.0,0.0,0.0,0.0,0.0,0.0,0.0,0.0,0.0,0.0,0.0,0.0,0.0,0.0,0.0,0.0,0.0,0.0,0.0,0.0,0.0,0.0,0.0,0.0,0.0,0.0,0.0,0.0,0.0,0.0,0.0,0.0,0.0,0.0,0.0,0.0,0.0,0.0,0.0,0.0,0.0,0.0,0.0,0.0,0.0,0.0,0.0,0.0,0.0,0.0,0.0,0.0,0.0,0.0,0.0,0.0,0.0,0.0,0.0,0.0,0.0,0.0,0.0,0.0,0.0,0.0,0.0,0.0,0.0,0.0,0.0,0.0,0.0,0.0,0.0,0.0,0.0,0.0,0.0,0.0,0.0,0.0,0.0,0.0,0.0,0.0,0.0,0.0,0.0,0.0,0.0,0.0,0.0,0.0,0.0,0.0,0.0,0.0,0.0,0.0,0.0,0.0,0.0,0.0,0.0,0.0,0.0,0.0,0.0,0.0,0.0,0.0,0.0,0.0,0.0,0.0,0.0,0.0,0.0,0.0,0.0,0.0,0.0,0.0,0.0,0.0,0.0,0.0,0.0,0.0,0.0,0.0,0.0,0.0,0.0,0.0,0.0,0.0,0.0,0.0,0.0,0.0,0.0,0.0,0.0,0.0,0.0,0.0,0.0,0.0,0.0,0.0,0.0,0.0,0.0,0.0,0.0,0.0,0.0,0.0,0.0,0.0,0.0,0.0,0.0,0.0,0.0,0.0,0.0,0.0,0.0,0.0,0.0,0.0,0.0,0.0,0.0,0.0,0.0,0.0,0.0,0.0,0.0,0.0,0.0,0.0,0.0,0.0,0.0,0.0,0.0,0.0,0.0,0.0,0.0,0.0,0.0,0.0,0.0,0.0,0.0,0.0,0.0,0.0,0.0,0.0,0.0,0.0,0.0,0.0,0.0,0.0,0.0,0.0,0.0,0.0,0.0,0.0,0.0,0.0,0.0,0.0,0.0,0.0,0.0,0.0,0.0,0.0,0.0,0.0,0.0,0.0,0.0,0.0,0.0,0.0,0.0,0.0,0.0,0.0,0.0,0.0,0.0,0.0,0.0,0.0,0.0,0.0,0.0,0.0,0.0,0.0,0.0,0.0,0.0,0.0,0.0,0.0,0.0,0.0,0.0,0.0,0.0,0.0,0.0,0.0,0.0,0.0,0.0,0.0,0.0,0.0,0.0,0.0,0.0,0.0,0.0,0.0,0.0,0.0,0.0,0.0,0.0,0.0,0.0,0.0,0.0,0.0,0.0,0.0,0.0,0.0,0.0,0.0,0.0,0.0,0.0,0.0,0.0,0.0,0.0,0.0,0.0,0.0,0.0,0.0,0.0,0.0,0.0,0.0,0.0,0.0,0.0,0.0,0.0,0.0,0.0,0.0,0.0,0.0,0.0,0.0,0.0,0.0,0.0,0.0,0.0,0.0,0.0,0.0,0.0,0.0,0.0,0.0,0.0,0.0,0.0,0.0,0.0,0.0,0.0,0.0,0.0,0.0,0.0,0.0,0.0,0.0,0.0,0.0,0.0,0.0,0.0,0.0,0.0,0.0,0.0,0.0,0.0,0.0,0.0,0.0,0.0,0.0,0.0,0.0,0.0,0.0,0.0,0.0,0.0,0.0,0.0,0.0,0.0,0.0,0.0,0.0,0.0,0.0,0.0,0.0,0.0,0.0,0.0,0.0,0.0,0.0,0.0,0.0,0.0,0.0,0.0,0.0,0.0,0.0,0.0,0.0,0.5693,0.0,0.0,0.0,0.0,0.0,0.0,0.0,0.0,0.0,0.0,0.0,0.0,0.0,0.0,0.0,0.0,0.0,0.0,0.0,0.0,0.0,0.0,0.0,0.0,0.0,0.0,0.0,0.0,0.0,0.0,0.0,0.0,0.0,0.0,0.0,0.0,0.0,0.0,0.0,0.0,0.0,0.0,0.0,0.0,0.0,0.0,0.0,0.0,0.0,0.0,0.0,0.0,0.0,0.0,0.0,0.0,0.0,0.0,0.0,0.0,0.0,0.0,0.0,0.0,0.0,0.0,0.0,0.0,0.0,0.0,0.0,0.0,0.0,0.0,0.0,0.0,0.0,0.0,0.0,0.0,0.0,0.0,0.0,0.0,0.0,0.0,0.0,0.0,0.0,0.0,0.0,0.0,0.0,0.0,0.0,0.0,0.0,0.0,0.0,0.0,0.0,0.0,0.0,0.0,0.0,0.0,0.0,0.0,0.0,0.0,0.51,0.51,0.51,0.5329,0.5778,0.0,0.0,0.0,0.0,0.0,0.0,0.0,0.0,0.0,0.0,0.0,0.0,0.0,0.0,0.0,0.0,0.0,0.0,0.0,0.0,0.0,0.0,0.0,0.0,0.0,0.0,0.0,0.0,0.0,0.0,0.0,0.0,0.0,0.0,0.0,0.0,0.0,0.0,0.0,0.0,0.0,0.0,0.0,0.0,0.0,0.0,0.0,0.0,0.0,0.0,0.0,0.0,0.0,0.0,0.0,0.0,0.0,0.0,0.0,0.0,0.0,0.0,0.0,0.0,0.0,0.0,0.0,0.0,0.0,0.0,0.0,0.0,0.0,0.0,0.0,0.0,0.0,0.0,0.0,0.0,0.0,0.0,0.0,0.0,0.0,0.0,0.0,0.0,0.0,0.0,0.0,0.0,0.0,0.0,0.0,0.0,0.0,0.0,0.0,0.0,0.0,0.0,0.0,0.0,0.0,0.0,0.0,0.0,0.0,0.0,0.0,0.0,0.5397,0.5671,0.6223,0.0,0.0,0.0,0.0,0.0,0.0,0.0,0.0,0.0,0.0,0.0,0.0,0.0,0.0,0.0,0.0,0.0,0.0,0.0,0.0,0.0,0.0,0.0,0.0,0.0,0.0,0.0,0.0,0.0,0.0,0.0,0.0,0.0,0.0,0.0,0.0,0.0,0.0,0.0,0.0,0.0,0.0,0.0,0.0,0.0,0.0,0.0,0.0,0.0,0.0,0.0,0.0,0.0,0.0,0.0,0.0,0.0,0.0,0.0,0.0,0.0,0.0,0.0,0.0,0.0,0.0,0.0,0.0,0.0,0.0,0.0,0.0,0.0,0.0,0.0,0.0,0.0,0.0,0.0,0.0,0.0,0.0,0.0,0.0,0.0,0.0,0.0,0.0,0.0,0.0,0.0,0.0,0.0,0.0,0.0,0.0,0.0,0.0,0.0,0.0,0.0,0.0,0.0,0.0,0.0,0.0,0.0,0.0,0.0,0.0,0.5477,0.6251,0.6283,0.0,0.7466,0.0,0.0,0.0,0.0,0.0,0.0,0.0,0.0,0.0,0.0,0.0,0.0,0.0,0.0,0.0,0.0,0.0,0.0,0.0,0.0,0.0,0.0,0.0,0.0,0.0,0.0,0.0,0.0,0.0,0.0,0.0,0.0,0.0,0.0,0.0,0.0,0.0,0.0,0.0,0.0,0.0,0.0,0.0,0.0,0.0,0.0,0.0,0.0,0.0,0.0,0.0,0.0,0.0,0.0,0.0,0.0,0.0,0.0,0.0,0.0,0.0,0.0,0.0,0.0,0.0,0.0,0.0,0.0,0.0,0.0,0.0,0.0,0.0,0.0,0.0,0.0,0.0,0.0,0.0,0.0,0.0,0.0,0.0,0.0,0.0,0.0,0.0,0.0,0.0,0.0,0.0,0.0,0.0,0.0,0.0,0.0,0.0,0.0,0.0,0.0,0.0,0.0,0.0,0.0,0.0,0.0,0.0,0.0,0.0,0.0,0.5804,0.6396,0.6901,0.7226,0.0,0.0,0.0,0.0,0.0,0.0,0.0,0.0,0.0,0.0,0.0,0.0,0.0,0.0,0.0,0.0,0.0,0.0,0.0,0.0,0.0,0.0,0.0,0.0,0.0,0.0,0.0,0.0,0.0,0.0,0.0,0.0,0.0,0.0,0.0,0.0,0.0,0.0,0.0,0.0,0.0,0.0,0.0,0.0,0.0,0.0,0.0,0.0,0.0,0.0,0.0,0.0,0.0,0.0,0.0,0.0,0.0,0.0,0.0,0.0,0.0,0.0,0.0,0.0,0.0,0.0,0.0,0.0,0.0,0.0,0.0,0.0,0.0,0.0,0.0,0.0,0.0,0.0,0.0,0.0,0.0,0.0,0.0,0.0,0.0,0.0,0.0,0.0,0.0,0.0,0.0,0.0,0.0,0.0,0.0,0.0,0.0,0.0,0.0,0.0,0.0,0.0,0.0,0.0,0.0,0.0,0.0,0.0,0.0,0.0,0.5915,0.6214,0.6742,0.7138,0.731,0.7275,0.0,0.0,0.0,0.0,0.0,0.0,0.0,0.0,0.0,0.0,0.0,0.0,0.0,0.0,0.0,0.0,0.0,0.0,0.0,0.0,0.0,0.0,0.0,0.0,0.0,0.0,0.0,0.0,0.0,0.0,0.0,0.0,0.0,0.0,0.0,0.0,0.0,0.0,0.0,0.0,0.0,0.0,0.0,0.0,0.0,0.0,0.0,0.0,0.0,0.0,0.0,0.0,0.0,0.0,0.0,0.0,0.0,0.0,0.0,0.0,0.0,0.0,0.0,0.0,0.0,0.0,0.0,0.0,0.0,0.0,0.0,0.0,0.0,0.0,0.0,0.0,0.0,0.0,0.0,0.0,0.0,0.0,0.0,0.0,0.0,0.0,0.0,0.0,0.0,0.0,0.0,0.0,0.0,0.0,0.0,0.0,0.0,0.0,0.0,0.0,0.0,0.0,0.0,0.0,0.0,0.0,0.0,0.0,0.7436,0.6774,0.6781,0.7546,0.6878,0.6839,0.0,0.0,0.0,0.0,0.0,0.0,0.0,0.0,0.0,0.0,0.0,0.0,0.0,0.0,0.0,0.0,0.0,0.0,0.0,0.0,0.0,0.0,0.0,0.0,0.0,0.0,0.0,0.0,0.0,0.0,0.0,0.0,0.0,0.0,0.0,0.0,0.0,0.0,0.0,0.0,0.0,0.0,0.0,0.0,0.0,0.0,0.0,0.0,0.0,0.0,0.0,0.0,0.0,0.0,0.0,0.0,0.0,0.0,0.0,0.0,0.0,0.0,0.0,0.0,0.0,0.0,0.0,0.0,0.0,0.0,0.0,0.0,0.0,0.0,0.0,0.0,0.0,0.0,0.0,0.0,0.0,0.0,0.0,0.0,0.0,0.0,0.0,0.0,0.0,0.0,0.0,0.0,0.0,0.0,0.0,0.0,0.0,0.0,0.0,0.0,0.0,0.0,0.0,0.0,0.0,0.0,0.0,0.0,0.0,0.6015,0.6276,0.6677,0.7271,0.7258,0.7371,0.0,0.0,0.0,0.0,0.0,0.0,0.0,0.0,0.0,0.0,0.0,0.0,0.0,0.0,0.0,0.0,0.0,0.0,0.0,0.0,0.0,0.0,0.0,0.0,0.0,0.0,0.0,0.0,0.0,0.0,0.0,0.0,0.0,0.0,0.0,0.0,0.0,0.0,0.0,0.0,0.0,0.0,0.0,0.0,0.0,0.0,0.0,0.0,0.0,0.0,0.0,0.0,0.0,0.0,0.0,0.0,0.0,0.0,0.0,0.0,0.0,0.0,0.0,0.0,0.0,0.0,0.0,0.0,0.0,0.0,0.0,0.0,0.0,0.0,0.0,0.0,0.0,0.0,0.0,0.0,0.0,0.0,0.0,0.0,0.0,0.0,0.0,0.0,0.0,0.0,0.0,0.0,0.0,0.0,0.0,0.0,0.0,0.0,0.0,0.0,0.0,0.0,0.0,0.0,0.0,0.0,0.0,0.0,0.0,0.5763,0.0,0.6914,0.7096,0.7376,0.7423,0.0,0.0,0.0,0.0,0.0,0.0,0.0,0.0,0.0,0.0,0.0,0.0,0.0,0.0,0.0,0.0,0.0,0.0,0.0,0.0,0.0,0.0,0.0,0.0,0.0,0.0,0.0,0.0,0.0,0.0,0.0,0.0,0.0,0.0,0.0,0.0,0.0,0.0,0.0,0.0,0.0,0.0,0.0,0.0,0.0,0.0,0.0,0.0,0.0,0.0,0.0,0.0,0.0,0.0,0.0,0.0,0.0,0.0,0.0,0.0,0.0,0.0,0.0,0.0,0.0,0.0,0.0,0.0,0.0,0.0,0.0,0.0,0.0,0.0,0.0,0.0,0.0,0.0,0.0,0.0,0.0,0.0,0.0,0.0,0.0,0.0,0.0,0.0,0.0,0.0,0.0,0.0,0.0,0.0,0.0,0.0,0.0,0.0,0.0,0.0,0.0,0.0,0.0,0.0,0.0,0.0,0.0,0.0,0.5777,0.7009,0.7434,0.7476,0.7145,0.7139,0.6917,0.0,0.0,0.0,0.0,0.0,0.0,0.0,0.0,0.0,0.0,0.0,0.0,0.0,0.0,0.0,0.0,0.0,0.0,0.0,0.0,0.0,0.0,0.0,0.0,0.0,0.0,0.0,0.0,0.0,0.0,0.0,0.0,0.0,0.0,0.0,0.0,0.0,0.0,0.0,0.0,0.0,0.0,0.0,0.0,0.0,0.0,0.0,0.0,0.0,0.0,0.0,0.0,0.0,0.0,0.0,0.0,0.0,0.0,0.0,0.0,0.0,0.0,0.0,0.0,0.0,0.0,0.0,0.0,0.0,0.0,0.0,0.0,0.0,0.0,0.0,0.0,0.0,0.0,0.0,0.0,0.0,0.0,0.0,0.0,0.0,0.0,0.0,0.0,0.0,0.0,0.0,0.0,0.0,0.0,0.0,0.0,0.0,0.0,0.0,0.0,0.0,0.0,0.0,0.0,0.0,0.0,0.0,0.0,0.0,0.6232,0.6911,0.751,0.7954,0.7409,0.7434,0.0,0.0,0.0,0.0,0.0,0.0,0.0,0.0,0.0,0.0,0.0,0.0,0.0,0.0,0.0,0.0,0.0,0.0,0.0,0.0,0.0,0.0,0.0,0.0,0.0,0.0,0.0,0.0,0.0,0.0,0.0,0.0,0.0,0.0,0.0,0.0,0.0,0.0,0.0,0.0,0.0,0.0,0.0,0.0,0.0,0.0,0.0,0.0,0.0,0.0,0.0,0.0,0.0,0.0,0.0,0.0,0.0,0.0,0.0,0.0,0.0,0.0,0.0,0.0,0.0,0.0,0.0,0.0,0.0,0.0,0.0,0.0,0.0,0.0,0.0,0.0,0.0,0.0,0.0,0.0,0.0,0.0,0.0,0.0,0.0,0.0,0.0,0.0,0.0,0.0,0.0,0.0,0.0,0.0,0.0,0.0,0.0,0.0,0.0,0.0,0.0,0.0,0.0,0.0,0.0,0.0,0.0,0.0,0.0,0.7286,0.7747,0.8152,0.8385,0.8004,0.7944,0.8258,0.0,0.0,0.0,0.0,0.0,0.0,0.0,0.0,0.0,0.0,0.0,0.0,0.0,0.0,0.0,0.0,0.0,0.0,0.0,0.0,0.0,0.0,0.0,0.0,0.0,0.0,0.0,0.0,0.0,0.0,0.0,0.0,0.0,0.0,0.0,0.0,0.0,0.0,0.0,0.0,0.0,0.0,0.0,0.0,0.0,0.0,0.0,0.0,0.0,0.0,0.0,0.0,0.0,0.0,0.0,0.0,0.0,0.0,0.0,0.0,0.0,0.0,0.0,0.0,0.0,0.0,0.0,0.0,0.0,0.0,0.0,0.0,0.0,0.0,0.0,0.0,0.0,0.0,0.0,0.0,0.0,0.0,0.0,0.0,0.0,0.0,0.0,0.0,0.0,0.0,0.0,0.0,0.0,0.0,0.0,0.0,0.0,0.0,0.0,0.0,0.0,0.0,0.0,0.0,0.0,0.0,0.0,0.0,0.9757,0.984,0.9523,0.8723,0.894,0.8506,0.0,0.0,0.0,0.0,0.0,0.0,0.0,0.0,0.0,0.0,0.0,0.0,0.0,0.0,0.0,0.0,0.0,0.0,0.0,0.0,0.0,0.0,0.0,0.0,0.0,0.0,0.0,0.0,0.0,0.0,0.0,0.0,0.0,0.0,0.0,0.0,0.0,0.0,0.0,0.0,0.0,0.0,0.0,0.0,0.0,0.0,0.0,0.0,0.0,0.0,0.0,0.0,0.0,0.0,0.0,0.0,0.0,0.0,0.0,0.0,0.0,0.0,0.0,0.0,0.0,0.0,0.0,0.0,0.0,0.0,0.0,0.0,0.0,0.0,0.0,0.0,0.0,0.0,0.0,0.0,0.0,0.0,0.0,0.0,0.0,0.0,0.0,0.0,0.0,0.0,0.0,0.0,0.0,0.0,0.0,0.0,0.0,0.0,0.0,0.0,0.0,0.0,0.0,0.0,0.0,0.0,0.0,0.0,0.0,1.1535,1.2777,1.2893,1.1745,1.0581,0.9809,0.0,0.0,0.0,0.0,0.0,0.0,0.0,0.0,0.0,0.0,0.0,0.0,0.0,0.0,0.0,0.0,0.0,0.0,0.0,0.0,0.0,0.0,0.0,0.0,0.0,0.0,0.0,0.0,0.0,0.0,0.0,0.0,0.0,0.0,0.0,0.0,0.0,0.0,0.0,0.0,0.0,0.0,0.0,0.0,0.0,0.0,0.0,0.0,0.0,0.0,0.0,0.0,0.0,0.0,0.0,0.0,0.0,0.0,0.0,0.0,0.0,0.0,0.0,0.0,0.0,0.0,0.0,0.0,0.0,0.0,0.0,0.0,0.0,0.0,0.0,0.0,0.0,0.0,0.0,0.0,0.0,0.0,0.0,0.0,0.0,0.0,0.0,0.0,0.0,0.0,0.0,0.0,0.0,0.0,0.0,0.0,0.0,0.0,0.0,0.0,0.0,0.0,0.0,0.0,0.0,0.0,0.0,0.0,1.1956,1.2993,1.4886,1.5454,1.4521,1.2652,1.1119,0.0,0.0,0.0,0.0,0.0,0.0,0.0,0.0,0.0,0.0,0.0,0.0,0.0,0.0,0.0,0.0,0.0,0.0,0.0,0.0,0.0,0.0,0.0,0.0,0.0,0.0,0.0,0.0,0.0,0.0,0.0,0.0,0.0,0.0,0.0,0.0,0.0,0.0,0.0,0.0,0.0,0.0,0.0,0.0,0.0,0.0,0.0,0.0,0.0,0.0,0.0,0.0,0.0,0.0,0.0,0.0,0.0,0.0,0.0,0.0,0.0,0.0,0.0,0.0,0.0,0.0,0.0,0.0,0.0,0.0,0.0,0.0,0.0,0.0,0.0,0.0,0.0,0.0,0.0,0.0,0.0,0.0,0.0,0.0,0.0,0.0,0.0,0.0,0.0,0.0,0.0,0.0,0.0,0.0,0.0,0.0,0.0,0.0,0.0,0.0,0.0,0.0,0.0,0.0,0.0,0.0,0.0,0.0,1.2905,1.4214,1.6357,1.7266,1.6802,1.4706,1.2391,0.0,0.0,0.0,0.0,0.0,0.0,0.0,0.0,0.0,0.0,0.0,0.0,0.0,0.0,0.0,0.0,0.0,0.0,0.0,0.0,0.0,0.0,0.0,0.0,0.0,0.0,0.0,0.0,0.0,0.0,0.0,0.0,0.0,0.0,0.0,0.0,0.0,0.0,0.0,0.0,0.0,0.0,0.0,0.0,0.0,0.0,0.0,0.0,0.0,0.0,0.0,0.0,0.0,0.0,0.0,0.0,0.0,0.0,0.0,0.0,0.0,0.0,0.0,0.0,0.0,0.0,0.0,0.0,0.0,0.0,0.0,0.0,0.0,0.0,0.0,0.0,0.0,0.0,0.0,0.0,0.0,0.0,0.0,0.0,0.0,0.0,0.0,0.0,0.0,0.0,0.0,0.0,0.0,0.0,0.0,0.0,0.0,0.0,0.0,0.0,0.0,0.0,0.0,0.0,0.0,0.0,0.0,0.0,1.3525,1.5113,1.6926,1.7842,1.7716,1.5291,1.3109,0.0,0.0,0.0,0.0,0.0,0.0,0.0,0.0,0.0,0.0,0.0,0.0,0.0,0.0,0.0,0.0,0.0,0.0,0.0,0.0,0.0,0.0,0.0,0.0,0.0,0.0,0.0,0.0,0.0,0.0,0.0,0.0,0.0,0.0,0.0,0.0,0.0,0.0,0.0,0.0,0.0,0.0,0.0,0.0,0.0,0.0,0.0,0.0,0.6238,0.0,0.0,0.0,0.0,0.0,0.0,0.0,0.0,0.0,0.0,0.0,0.0,0.0,0.0,0.0,0.0,0.0,0.0,0.0,0.0,0.0,0.0,0.0,0.0,0.0,0.0,0.0,0.0,0.0,0.0,0.0,0.0,0.0,0.0,0.0,0.0,0.0,0.0,0.0,0.0,0.0,0.0,0.0,0.0,0.0,0.0,0.0,0.0,0.0,0.0,0.0,0.0,0.0,0.0,0.0,0.0,0.0,0.0,0.0,1.4283,1.5981,1.7308,1.7911,1.7648,1.5759,1.3831,0.0,0.0,0.0,0.0,0.0,0.0,0.0,0.0,0.0,0.0,0.0,0.0,0.0,0.0,0.0,0.0,0.0,0.0,0.0,0.0,0.0,0.0,0.0,0.0,0.0,0.0,0.0,0.0,0.0,0.0,0.0,0.0,0.0,0.0,0.0,0.0,0.0,0.0,0.0,0.0,0.0,0.0,0.0,0.0,0.0,0.0,0.0,0.0,0.0,0.0,0.0,0.0,0.0,0.0,0.0,0.0,0.0,0.0,0.0,0.0,0.0,0.0,0.0,0.0,0.0,0.0,0.0,0.0,0.0,0.0,0.0,0.0,0.0,0.0,0.0,0.0,0.0,0.0,0.0,0.0,0.0,0.0,0.0,0.0,0.0,0.0,0.0,0.0,0.0,0.0,0.0,0.0,0.0,0.0,0.0,0.0,0.0,0.0,0.0,0.0,0.0,0.0,0.0,0.0,0.0,0.0,0.0,1.322,1.4855,1.6734,1.7532,1.7736,1.7398,1.6043,1.4364,1.2379,0.0,0.0,0.0,0.0,0.0,0.0,0.0,0.0,0.0,0.0,0.0,0.0,0.0,0.0,0.0,0.0,0.0,0.0,0.0,0.0,0.0,0.0,0.0,0.0,0.0,0.0,0.0,0.0,0.0,0.0,0.0,0.0,0.0,0.0,0.0,0.0,0.0,0.0,0.5368,0.6276,0.0,0.0,0.0,0.0,0.0,0.0,0.0,0.0,0.8512,0.0,0.0,0.0,0.0,0.0,0.0,0.0,0.0,0.0,0.0,0.0,0.0,0.0,0.0,0.0,0.0,0.0,0.0,0.0,0.0,0.0,0.0,0.0,0.0,0.0,0.0,0.0,0.0,0.0,0.0,0.0,0.0,0.0,0.0,0.0,0.0,0.0,0.0,0.0,0.0,0.0,0.0,0.0,0.0,0.0,0.0,0.0,0.0,0.0,0.0,0.0,0.0,0.0,0.0,0.0,0.0,1.3129,1.3137,1.445,1.7205,1.7429,1.7468,1.7352,1.5777,1.4225,1.2825,0.0,0.0,0.0,0.0,0.0,0.0,0.0,0.0,0.0,0.0,0.0,0.0,0.0,0.0,0.0,0.0,0.0,0.0,0.0,0.0,0.0,0.0,0.0,0.0,0.0,0.0,0.0,0.0,0.0,0.0,0.0,0.0,0.0,0.0,0.0,0.0,0.0,0.0,0.0,0.8203,0.8604,0.0,0.0,0.0,0.0,0.0,0.0,0.0,0.0,1.0395,0.0,0.0,0.0,0.0,0.0,0.0,0.0,0.0,0.0,0.0,0.0,0.0,0.0,0.0,0.0,0.0,0.0,0.0,0.0,0.0,0.0,0.0,0.0,0.0,0.0,0.0,0.0,0.0,0.0,0.0,0.0,0.0,0.0,0.0,0.0,0.0,0.0,0.0,0.0,0.0,0.0,0.0,0.0,0.0,0.0,0.0,0.0,0.0,0.0,0.0,0.0,0.0,0.0,0.0,0.0,1.3057,1.3848,1.5332,1.7606,1.7508,1.7192,1.6713,1.5234,1.375,0.0,0.0,0.0,0.0,0.0,0.0,0.0,0.0,0.0,0.0,0.0,0.0,0.0,0.0,0.0,0.0,0.0,0.0,0.0,0.0,0.0,0.0,0.0,0.0,0.0,0.0,0.0,0.0,0.0,0.0,0.0,0.0,0.0,0.0,0.0,0.0,0.0,0.0,0.0,0.0,0.8883,0.9408,0.9671,0.0,0.0,0.0,0.0,0.0,0.0,1.1317,1.2094,0.0,0.0,0.0,0.0,0.0,0.0,0.0,0.0,0.0,0.0,0.0,0.0,0.0,0.0,0.0,0.0,0.0,0.0,0.0,0.0,0.0,0.0,0.0,0.0,0.0,0.0,0.0,0.0,0.0,0.0,0.0,0.0,0.0,0.0,0.0,0.0,0.0,0.0,0.0,0.0,0.0,0.0,0.0,0.0,0.0,0.0,0.0,0.0,0.0,0.0,0.0,0.0,0.0,0.0,0.0,1.3003,1.4417,1.6045,1.7764,1.7461,1.6842,1.597,1.4715,1.3306,0.0,0.0,0.0,0.0,0.0,0.0,0.0,0.0,0.0,0.0,0.0,0.0,0.0,0.0,0.0,0.0,0.0,0.0,0.0,0.0,0.0,0.0,0.0,0.0,0.0,0.0,0.0,0.0,0.0,0.0,0.0,0.0,0.0,0.0,0.0,0.0,0.0,0.0,0.0,0.0,0.0,1.0256,1.0293,1.1183,0.0,0.0,0.0,0.0,1.1069,1.3282,0.0,0.0,0.0,0.0,0.0,0.0,0.0,0.0,0.0,0.0,0.0,0.0,0.0,0.0,0.0,0.0,0.0,0.0,0.0,0.0,0.0,0.0,0.0,0.0,0.0,0.0,0.0,0.0,0.0,0.0,0.0,0.0,0.0,0.0,0.0,0.0,0.0,0.0,0.0,0.0,0.0,0.0,0.0,0.0,0.0,0.0,0.0,0.0,0.0,0.0,0.0,0.0,0.0,0.0,0.0,0.0,1.3324,1.3958,1.5281,1.7313,1.7015,1.6363,1.5491,1.4399,1.3292,0.0,0.0,0.0,0.0,0.0,0.0,0.0,0.0,0.0,0.0,0.0,0.0,0.0,0.0,0.0,0.0,0.0,0.0,0.0,0.0,0.0,0.0,0.0,0.0,0.0,0.0,0.0,0.0,0.0,0.0,0.0,0.0,0.0,0.0,0.0,0.0,0.0,0.0,0.0,0.0,0.0,1.164,1.1373,1.189,1.2174,0.0,0.0,1.0302,1.1838,1.5134,0.0,0.0,0.0,0.0,0.0,0.0,0.0,0.0,0.0,0.0,0.0,0.0,0.0,0.0,0.0,0.0,0.0,0.0,0.0,0.0,0.0,0.0,0.0,0.0,0.0,0.0,0.0,0.0,0.0,0.0,0.0,0.0,0.0,0.0,0.0,0.0,0.0,0.0,0.0,0.0,0.0,0.0,0.0,0.0,0.0,0.0,0.0,0.0,0.0,0.0,0.0,0.0,0.0,0.0,0.0,1.1322,1.387,1.4719,1.6138,1.8147,1.7827,1.7165,1.6206,1.4961,1.3834,0.0,0.0,0.0,0.0,0.0,0.0,0.0,0.0,0.0,0.0,0.0,0.0,0.0,0.0,0.0,0.0,0.0,0.0,0.0,0.0,0.0,0.0,0.0,0.0,0.0,0.0,0.0,0.0,0.0,0.0,0.0,0.0,0.0,0.0,0.0,0.0,0.0,0.0,0.0,0.0,0.0,0.0,1.2811,1.3974,0.0,0.0,0.0,1.3637,1.4409,0.0,0.0,0.0,0.0,0.0,0.0,0.0,0.0,0.0,0.0,0.0,0.0,0.0,0.0,0.0,0.0,0.0,0.0,0.0,0.0,0.0,0.0,0.0,0.0,0.0,0.0,0.0,0.0,0.0,0.0,0.0,0.0,0.0,0.0,0.0,0.0,0.0,0.0,0.0,0.0,0.0,0.0,0.0,0.0,0.0,0.0,0.0,0.0,0.0,0.0,0.0,0.0,0.0,0.0,0.0,0.0,0.0,1.4721,1.5801,1.7184,1.8877,1.8647,1.7906,1.6671,1.5563,0.0,0.0,0.0,0.0,0.0,0.0,0.0,0.0,0.0,0.0,0.0,0.0,0.0,0.0,0.0,0.0,0.0,0.0,0.0,0.0,0.0,0.0,0.0,0.0,0.0,0.0,0.0,0.7833,0.0,0.0,0.0,0.0,0.0,0.0,0.0,0.0,0.0,0.0,0.0,0.0,0.0,0.0,1.4081,1.4122,1.5694,1.6535,0.0,0.0,1.6623,1.671,1.6962,1.6592,0.0,0.0,0.0,0.0,0.0,0.0,0.0,0.0,0.0,0.0,0.0,0.0,0.0,0.0,0.0,0.0,0.0,0.0,0.0,0.0,0.0,0.0,0.0,0.0,0.0,0.0,0.0,0.0,0.0,0.0,0.0,0.0,0.0,0.0,0.0,0.0,0.0,0.0,0.0,0.0,0.0,0.0,0.0,0.0,0.0,0.0,0.0,0.0,0.0,0.0,0.0,0.0,0.0,0.0,0.0,1.5985,1.7006,1.8002,1.9045,1.9071,1.8145,1.6301,1.5909,1.4932,0.0,0.0,0.0,0.0,0.0,0.0,0.0,0.0,0.0,0.0,0.0,0.0,0.0,0.0,0.0,0.0,0.0,0.0,0.0,0.0,0.0,0.0,0.0,0.0,0.0,0.0,0.0,0.0,0.0,0.0,0.0,0.0,0.0,0.0,0.0,0.0,0.0,0.0,0.0,0.0,0.0,1.5003,1.5021,1.6352,1.7588,0.0,0.0,1.7882,1.7886,2.0088,2.0253,1.5571,0.0,0.0,0.0,0.0,0.0,0.0,0.0,0.0,0.0,0.0,0.0,0.0,0.0,0.0,0.0,0.0,0.0,0.0,0.0,0.0,0.0,0.0,0.0,0.0,0.0,0.0,0.0,0.0,0.0,0.0,0.0,0.0,0.0,0.0,0.0,0.0,0.0,0.0,0.0,0.0,0.0,0.0,0.0,0.0,0.0,0.0,0.0,0.0,0.0,0.0,0.0,0.0,0.0,1.3598,1.6575,1.7476,1.8603,2.0011,2.0092,1.9249,1.7478,1.7006,1.5998,0.0,0.0,0.0,0.0,0.0,0.0,0.0,0.0,0.0,0.0,0.0,0.0,0.0,0.0,0.0,0.0,0.0,0.0,0.0,0.0,0.0,0.0,0.0,0.0,0.0,0.0,0.0,0.0,0.9306,0.9373,0.891,0.0,0.0,0.0,0.0,0.0,0.0,0.0,0.0,0.0,0.0,1.6056,1.6454,1.7907,0.0,0.0,1.8918,1.9268,1.955,1.9638,1.913,1.7575,1.5949,0.0,0.0,0.0,0.0,0.0,0.0,0.0,0.0,0.0,0.0,0.0,0.0,0.0,0.0,0.0,0.0,0.0,0.0,0.0,0.0,0.0,0.0,0.0,0.0,0.0,0.0,0.0,0.0,0.0,0.0,0.0,0.0,0.0,0.0,0.0,0.0,0.0,0.0,0.0,0.0,0.0,0.0,0.0,0.0,0.0,0.0,0.0,0.0,0.0,0.0,0.0,0.0,1.4305,1.7247,1.8338,1.9532,2.0923,2.095,2.0062,1.8267,1.7846,1.6859,0.0,0.0,0.0,0.0,0.0,0.0,0.0,0.0,0.0,0.0,0.0,0.0,0.0,0.0,0.0,0.0,0.0,0.0,0.0,0.0,0.0,0.0,0.0,0.0,0.0,0.0,0.0,0.0,0.981,0.9756,0.8924,0.0,0.0,0.0,0.0,0.0,0.0,0.0,0.0,0.0,0.0,1.7093,1.768,1.8994,1.9727,1.9268,1.9493,1.9834,2.0165,1.9257,1.8361,1.7911,0.0,0.0,0.0,0.0,0.0,0.0,0.0,0.0,0.0,0.0,0.0,0.0,0.0,0.0,0.0,0.0,0.0,0.0,0.0,0.0,0.0,0.0,0.0,0.0,0.0,0.0,0.0,0.0,0.0,0.0,0.9886,0.0,0.0,0.0,0.0,0.0,0.0,0.0,0.0,0.0,0.0,0.0,0.0,0.0,0.0,0.0,0.0,0.0,0.0,0.0,0.0,0.0,0.0,1.5404,1.8129,1.9754,2.0897,2.145,2.1468,2.0433,1.8305,1.8185,1.7388,1.5698,0.0,0.0,0.0,0.0,0.0,0.0,0.0,0.0,0.0,0.0,0.0,0.0,0.0,0.0,0.0,0.0,0.0,0.0,0.0,0.0,0.0,0.0,0.0,0.0,0.0,0.0,0.9036,0.9395,0.9328,0.0,0.0,0.0,0.0,0.0,0.0,0.0,0.0,0.0,0.0,1.6605,1.8118,1.8499,1.9318,2.0059,2.0449,1.9852,1.9335,1.9374,1.9512,1.8714,0.0,0.0,0.0,0.0,0.0,0.0,0.0,0.0,0.0,0.0,0.0,0.0,0.0,0.0,0.0,0.0,0.0,0.0,0.0,0.0,0.0,0.0,0.0,0.0,0.0,0.0,0.0,1.1899,1.1571,0.0,0.0,0.0,0.0,0.0,0.0,0.0,0.0,0.0,0.0,0.0,1.6,1.636,0.0,0.0,0.0,0.0,0.0,0.0,0.0,0.0,0.0,0.0,0.0,0.0,1.5814,1.8148,1.9843,2.0975,2.1468,2.1481,2.0614,1.8782,1.8393,1.7237,1.5231,0.0,0.0,0.0,0.0,0.0,0.0,0.0,0.0,0.0,0.0,0.0,0.0,0.0,0.0,0.0,0.0,0.0,0.0,0.0,0.0,0.0,0.0,0.0,0.0,0.0,0.9396,0.0,0.0,0.0,0.0,0.0,0.0,0.0,0.0,0.0,0.0,0.0,1.3769,1.5029,1.6826,1.8048,1.8176,1.9443,2.0303,0.0,0.0,0.0,0.0,0.0,0.0,0.0,0.0,0.0,0.0,0.0,0.0,0.0,0.0,1.6036,1.4379,1.4423,1.4695,1.4596,0.0,0.0,0.0,0.0,0.0,0.0,0.0,0.0,0.0,0.0,0.0,0.0,0.0,0.0,0.0,0.0,1.3161,0.0,0.0,0.0,0.0,0.0,0.0,0.0,0.0,1.6232,1.7391,1.826,1.9001,1.8963,0.0,1.7865,1.6317,0.0,0.0,0.0,0.0,0.0,0.0,0.0,0.0,1.6269,1.8418,1.995,2.0975,2.1476,2.1319,2.0514,1.9045,1.8298,1.7148,1.552,1.4944,1.4227,0.0,0.0,0.0,0.0,0.0,0.0,0.0,0.0,0.0,0.0,0.0,0.0,0.0,0.0,0.0,0.0,0.0,0.0,0.0,0.0,0.0,0.0,0.0,1.023,0.0,0.0,0.0,0.0,0.0,0.0,0.0,0.0,0.0,1.443,1.4492,1.4922,1.6324,1.7493,1.8321,1.8624,0.0,0.0,0.0,0.0,0.0,0.0,0.0,1.8622,2.0,2.0,1.9912,2.0293,2.0605,2.0664,2.0214,0.0,0.0,1.6444,1.7015,1.7616,1.7004,1.7153,1.7408,1.7581,1.7833,1.8142,0.0,0.0,0.0,0.0,0.0,0.0,0.0,0.0,1.4447,1.5007,0.0,1.4772,0.0,0.0,0.0,0.0,0.0,1.5352,0.0,0.0,1.9221,2.0459,2.0081,2.1098,2.1023,2.0043,2.0998,2.0119,1.7505,1.4812,0.0,0.0,0.0,0.0,0.0,0.0,1.6848,1.8989,2.0188,2.1006,2.1469,2.1006,2.0182,1.9014,1.799,1.716,1.6549,1.5989,1.5482,1.4947,1.3876,0.0,0.0,0.0,0.0,0.0,0.0,0.0,0.0,0.0,0.0,0.0,0.0,0.0,0.0,0.0,0.0,0.0,0.0,0.0,0.0,1.085,0.0,0.0,0.0,0.0,0.0,0.0,0.0,0.0,0.0,0.0,1.6179,1.6214,1.6742,1.8333,0.0,0.0,0.0,0.0,2.0078,2.0527,2.0244,2.0137,2.0547,1.8555,1.7241,1.8087,0.0,0.0,2.0371,2.0713,2.0908,1.9687,2.0186,2.0683,2.0615,2.0543,2.0432,1.9887,1.9231,1.8899,1.9296,1.9501,1.9521,1.9804,0.0,0.0,0.0,0.0,1.7865,1.8856,1.9949,1.9949,1.9447,1.8574,1.7891,0.0,0.0,0.0,0.0,0.0,0.0,1.9052,2.0432,2.1405,2.2385,2.3366,2.37,2.3482,2.2804,2.2704,2.2051,2.0859,1.9321,1.6882,1.369,0.0,0.0,0.0,0.0,1.8173,1.9572,2.1066,2.1719,2.1514,2.1351,2.0539,1.9033,1.8336,1.772,1.716,1.6579,1.6208,1.6022,1.5367,0.0,0.0,0.0,0.0,0.0,0.0,0.0,0.0,0.0,0.0,0.0,0.0,0.0,0.0,0.0,0.0,0.0,0.0,0.0,1.0987,1.1942,1.2091,0.0,0.0,0.0,0.0,0.0,0.0,0.0,0.0,0.0,1.7662,1.7402,1.7311,0.0,0.0,1.9072,1.8987,1.9785,2.0449,2.0566,0.0,0.0,0.0,2.0684,2.0498,2.0742,2.2088,2.2877,2.2293,2.24,2.2439,2.2029,2.2215,2.2381,2.2366,2.2371,2.2299,2.2113,2.1493,2.1123,2.1494,2.1806,2.1991,2.5455,2.3196,2.0819,2.0011,2.0368,2.1142,2.2046,2.298,2.2967,2.2636,2.204,2.1053,1.9697,1.8123,1.7815,0.0,0.0,0.0,2.1578,2.3306,2.3758,2.4627,2.5745,2.6017,2.5837,2.5285,2.4732,2.4039,2.3286,2.2429,2.032,1.7132,0.0,0.0,1.611,1.7902,1.9365,2.0451,2.1475,2.1933,2.1827,2.1414,2.0476,1.9052,1.87,1.8255,1.7738,1.737,1.7181,1.7163,1.6654,1.6224,0.0,0.0,0.0,0.0,0.0,0.0,0.0,0.0,0.0,0.0,0.0,1.068,0.0,0.0,0.0,0.0,1.153,1.1871,1.2312,1.2965,0.0,0.0,0.0,0.0,0.0,0.0,0.0,1.4705,1.5715,1.6988,1.8517,1.869,1.8758,1.9003,1.9335,1.9551,1.963,0.0,2.0967,2.1309,2.1787,2.21,2.198,2.2206,2.2383,2.2383,2.2771,2.3092,2.3112,2.3112,2.3112,2.3112,2.3112,2.3112,2.3112,2.3103,2.3104,2.309,2.2713,2.2489,2.2693,2.2926,2.3112,3.0935,3.0071,2.5185,2.3055,2.3008,2.4008,2.4482,2.4491,2.4433,2.4887,2.5607,2.4084,2.3321,2.3145,2.1733,0.0,2.1954,2.2965,2.4048,2.516,2.6168,2.6918,2.7428,2.7883,2.7833,2.7358,2.6864,2.6092,2.508,2.4523,2.3434,2.1821,2.0294,1.9396,1.9171,1.971,2.0539,2.1608,2.1689,2.1913,2.234,2.1262,2.0201,1.919,1.9045,1.8757,1.8292,1.8223,1.8235,1.8248,1.7777,1.753,1.7468,0.0,0.0,0.0,0.0,0.0,0.0,0.0,0.0,0.0,0.0,0.0,0.0,0.0,0.0,0.0,1.3176,0.0,1.3822,1.4202,0.0,0.0,0.0,1.5609,1.4114,1.6007,1.6756,1.5136,0.0,0.0,1.9046,0.0,2.0722,2.0868,2.0418,2.0342,2.1152,2.1269,2.16,2.2323,2.2498,2.2674,2.2917,2.3024,2.3034,2.3013,2.3112,2.3112,2.3112,2.3112,2.3112,2.3112,2.3112,2.3112,2.3112,2.3108,2.3102,2.3103,2.3092,2.3082,2.3082,2.3081,2.3112,3.3327,3.3611,3.1178,2.9413,2.8246,2.8202,2.8464,2.8799,2.8047,2.741,2.6838,2.6051,2.5217,2.4402,2.4418,2.4756,2.5355,2.6005,2.6892,2.7881,2.7786,2.8,2.8493,2.8226,2.8037,2.7908,2.7792,2.7573,2.7297,2.6775,2.5879,2.4652,2.4217,2.2781,2.0427,2.1236,2.2031,2.2719,2.3168,2.3243,2.2875,2.1457,2.0572,2.0314,1.9472,1.8939,1.8819,1.8424,1.838,1.8782,1.87,1.8625,1.8607,1.7343,0.0,0.0,0.0,0.0,0.0,0.0,0.0,0.0,0.0,1.3951,1.2728,0.0,1.3608,0.0,1.6256,1.7066,1.6809,1.7246,0.0,0.0,1.7212,1.7324,1.7863,1.762,1.7515,1.7843,1.8531,1.9497,2.0874,2.1052,2.1638,2.3148,2.2254,2.1514,2.1719,2.1991,2.2254,2.2521,2.2815,2.2985,2.3082,2.3112,2.32,2.3112,2.3113,2.3112,2.3113,2.3112,2.3112,2.3112,2.3112,2.3112,2.3135,2.3112,2.3112,2.3112,2.3112,2.3112,2.3112,2.3112,2.3112,3.5583,3.5976,3.5102,3.4206,3.322,3.1592,3.106,3.133,3.0796,3.0222,2.96,2.865,2.798,2.7533,2.6977,2.7276,2.821,2.8097,2.8486,2.927,2.8991,2.9004,2.927,2.9001,2.8863,2.8859,2.858,2.8464,2.8417,2.7921,2.7349,2.6728,2.6716,2.5682,2.3701,2.3258,2.3073,2.3095,2.3421,2.3429,2.3075,2.1764,2.095,2.0679,1.9823,1.9353,1.9365,1.9064,1.9058,1.9353,1.9353,1.9353,1.9334,1.8342,1.762,0.0,0.0,0.0,0.0,0.0,0.0,0.0,0.0,0.0,0.0,0.0,1.5846,0.0,1.7886,1.8669,1.8198,1.8609,1.8922,1.8904,1.9013,1.9152,1.9294,1.9573,1.9428,1.8594,1.9924,2.1305,2.235,2.2532,2.2925,2.4113,2.3854,2.3402,2.3042,2.3261,2.3523,2.3533,2.3874,2.3843,2.3233,2.4808,2.562,2.4488,2.468,2.501,2.4691,2.4606,2.4606,2.4574,2.3804,2.335,2.3934,2.3517,2.3463,2.4617,2.4005,2.32,2.3112,2.3112,2.3112,3.7539,3.7501,3.7441,3.7387,3.7186,3.4404,3.3098,3.289,3.2688,3.2593,3.2512,3.1254,3.0879,3.1083,2.9441,2.9417,3.0608,2.9868,2.9713,3.008,3.0225,3.0237,3.007,3.0007,3.0059,3.0123,2.9378,2.9073,2.9192,2.8583,2.8238,2.8113,2.8172,2.7867,2.7157,2.5276,2.4004,2.3333,2.3328,2.3328,2.3296,2.2126,2.1288,2.0798,2.015,1.9805,1.9805,1.9805,1.9805,1.9805,1.9805,1.9842,1.9886,1.8951,1.8442,0.0,1.7502,0.0,0.0,0.0,0.0,0.0,0.0,0.0,0.0,1.8788,1.8361,1.7787,1.8935,1.9527,1.9098,1.9504,1.9792,1.983,2.0683,2.0878,1.9996,2.1424,2.1601,1.9212,2.1276,2.3075,2.3829,2.41,2.4227,2.4672,2.5102,2.5192,2.4793,2.4838,2.4978,2.502,2.5316,2.5084,2.451,2.7128,2.8623,2.6307,2.6369,2.7221,2.6483,2.639,2.6431,2.6262,2.5012,2.4293,2.5471,2.4765,2.4807,2.6586,2.5073,2.355,2.3397,2.3222,2.3112,3.8221,3.8153,3.7629,3.7387,3.7347,3.6738,3.5752,3.4445,3.3161,3.2593,3.257,3.2305,3.2208,3.2262,3.1917,3.1914,3.2211,3.2554,3.2305,3.162,3.2487,3.2412,3.1581,3.1136,3.1337,3.1924,3.0407,3.0018,3.0744,2.9888,2.9023,2.8125,2.8521,2.8037,2.6692,0.0,0.0,0.0,2.4474,2.4482,2.442,2.2523,2.1457,2.1326,2.0345,0.0,1.9805,1.9805,1.9805,1.9805,1.9805,0.0,0.0,0.0,0.0,0.0,0.0,0.0,0.0,0.0,0.0,0.0,2.0182,1.9943,1.9691,1.9996,2.0066,1.9676,2.0898,2.1701,2.1629,2.2076,2.2381,2.2366,2.2013,2.1918,2.2295,2.1889,2.2017,2.3863,2.33,2.3572,2.5447,2.4971,2.4873,2.626,2.6052,2.5966,2.6602,2.6369,2.6192,2.6203,2.6348,2.6472,2.6697,2.846,2.903,2.6986,2.6441,2.672,2.6668,2.6596,2.6535,2.6586,2.6621,2.6761,2.714,2.786,2.7769,2.6198,2.5379,2.4882,2.4542,2.3735,2.3112,3.8892,0.0,3.8539,3.8389,0.0,3.8033,3.7423,3.6585,3.5465,3.498,3.4902,3.4132,3.4213,3.4922,3.3994,3.3841,3.4263,3.4144,3.3619,3.2822,3.3344,3.3138,3.2297,3.2014,3.2128,3.2562,3.1641,3.1434,3.1824,3.0945,3.0204,2.9637,2.9435,2.8947,2.8149,2.7821,2.6854,2.5222,2.4921,2.4921,2.5113,2.3293,2.2289,2.2257,0.0,0.0,0.0,0.0,0.0,0.0,0.0,0.0,0.0,0.0,0.0,2.1074,2.1066,2.116,2.1409,2.1719,2.2128,2.2688,2.2711,2.2246,2.1135,2.1834,2.2251,2.2064,2.2707,2.315,2.315,2.312,2.3095,2.3085,2.274,2.2659,2.2979,2.2807,2.316,2.4437,2.4418,2.479,2.6286,2.5889,2.5735,2.6724,2.6913,2.7019,2.7532,2.7471,2.7442,2.8009,2.8131,2.8263,2.8651,2.9219,2.9524,2.8383,2.8131,2.8131,2.8131,2.8131,2.8141,2.8163,2.8451,2.8664,2.8709,2.9332,2.9307,2.7911,2.6987,2.6534,2.6336,2.5115,2.3952,3.9511,3.9421,3.9526,3.9511,3.9346,3.8802,3.858,3.852,0.0,0.0,0.0,3.6016,3.6144,3.7269,3.5784,3.5507,3.6187,3.5566,3.4876,3.4194,3.4353,3.4003,3.3198,3.3073,3.3058,3.3084,3.2767,3.2673,3.2811,3.1897,3.1444,3.1374,3.0504,2.9909,2.9625,2.9167,2.7953,2.6122,2.5423,2.531,2.5695,2.4018,2.3095,2.3095,2.2071,2.1481,2.1481,2.1481,2.1481,2.15,2.1588,2.1681,2.1769,2.1877,2.1997,2.209,2.2495,2.2935,2.3384,2.3858,2.4335,2.4779,2.4816,2.4199,2.2834,2.3615,2.4134,2.4134,2.4134,2.4142,2.4134,2.3604,2.3258,2.3266,2.3163,2.3088,2.3133,2.3517,2.3876,2.4307,2.4943,2.572,2.6377,2.6456,2.6487,2.6637,2.7367,2.8235,2.8359,2.8421,2.8678,2.9427,2.9485,2.9682,2.976,2.9763,2.9779,2.9653,2.9672,2.9779,2.9779,2.9779,2.9779,2.9592,2.9769,2.9743,2.9763,2.9756,2.9711,2.9543,2.8561,2.7685,2.7633,2.6541,2.541,3.9924,3.9442,4.0029,3.9924,3.94,3.9302,3.9257,3.9152,3.7941,3.7387,3.7364,3.7163,3.7186,3.7387,3.7114,3.708,3.723,3.7652,3.7323,0.0,3.7298,3.6913,3.544,3.4908,3.4807,3.4949,3.3411,3.3022,3.3636,3.2864,3.2411,3.2294,3.1462,3.0356,2.9123,2.8938,2.8518,2.7736,2.6771,2.6298,2.6336,2.4222,2.3095,2.3058,2.2096,2.1481,2.1481,2.1518,2.1481,2.1493,2.1931,2.2388,2.2857,2.3356,2.3853,2.429,2.4395,2.447,2.4553,2.4633,2.4729,2.4796,2.4816,2.4683,2.449,2.4583,2.4683,2.4691,2.4691,2.4699,2.4666,2.4189,2.3858,2.3808,2.3424,2.3108,2.3133,2.3246,2.3697,2.46,2.4816,2.5372,2.6298,2.6487,2.6487,2.6629,2.7365,2.8389,2.911,2.955,2.9602,2.975,2.9779,2.9779,2.9779,2.9779,2.9779,2.9779,2.9779,2.9779,2.9779,2.9779,2.9779,2.9779,2.9779,2.9779,2.9779,2.9779,2.9463,2.8816,2.8287,2.7896,2.73,2.7247,2.7289,4.0756,4.0487,4.0427,4.0223,3.9915,3.9571,3.9397,3.9361,3.8763,3.8488,3.8434,3.8108,3.8129,3.8473,3.8488,3.8479,3.8503,3.8811,3.8481,3.7744,3.8159,3.7806,3.6766,3.6428,3.6377,3.6446,3.5314,3.5101,3.5632,3.4177,3.3527,3.378,3.2607,3.1599,3.0962,3.0912,3.0533,2.9741,2.7898,2.6939,2.6905,2.531,2.4307,2.4031,2.3524,2.315,2.2869,2.3125,2.3281,2.3273,2.3519,2.3775,2.3998,2.4269,2.4561,2.4783,2.5067,2.5234,2.5234,2.5536,2.572,2.5732,2.5728,2.5728,2.572,2.5431,2.5239,2.5226,2.5234,2.5226,2.5205,2.4749,2.4323,2.4029,2.3988,2.3913,2.368,2.3868,2.4352,2.508,2.5239,2.5561,2.6407,2.6487,2.6487,2.6571,2.7232,2.7996,2.8762,2.8891,2.9136,2.9654,2.9779,2.9779,2.9779,2.9779,2.9779,2.9779,2.9779,2.9779,2.9779,2.9779,2.9779,2.9779,2.9779,2.9779,2.9779,2.9779,2.9534,2.9275,2.9037,2.8749,2.8492,2.872,2.8789,4.1523,4.1358,4.1005,4.0765,4.0546,3.9744,3.9481,3.961,3.9466,3.9472,3.9535,3.8931,3.8907,3.9367,3.9397,3.9397,3.9397,3.9397,3.9107,3.8661,3.8616,3.8281,3.768,3.7629,3.7545,3.7366,3.6934,3.6941,3.7131,3.5613,3.4911,3.5055,3.3818,3.3032,3.2827,3.2662,3.2141,3.1134,2.9088,2.7887,2.7638,2.6561,2.5724,2.5226,2.5059,2.4729,2.4247,2.4591,2.4816,2.4816,2.4909,2.4996,2.498,2.5105,2.5168,2.5234,2.5573,2.5795,2.5841,2.6227,2.6487,2.6487,2.6487,2.6487,2.647,2.6076,2.5808,2.5816,2.5804,2.5816,2.5741,2.531,2.4812,2.4431,2.4603,2.4578,2.4297,2.4566,2.5005,2.5494,2.5603,2.5829,2.6315,2.6487,2.6571,2.6738,2.7043,2.7491,2.7975,2.81,2.8524,2.9139,2.9613,2.9701,2.9654,2.9739,2.9767,2.9779,2.9779,2.9779,2.9779,2.9779,2.9779,2.9779,2.9779,2.9779,2.9779,2.9779,2.976,2.9672,2.9653,2.9702,2.9624,2.9634,2.9753,4.1952,4.1523,4.1967,4.1871,4.1149,3.9954,3.9765,4.0157,3.9684,3.975,4.0178,3.9586,3.9346,3.9397,3.9442,3.9466,3.9436,3.9406,3.9376,3.9325,3.9311,3.896,3.8386,3.8317,3.7988,3.7501,3.7366,3.7375,3.7501,3.7174,3.6662,3.5924,3.5135,3.4365,3.3593,3.2978,3.2191,3.1209,3.0497,2.9682,2.8759,2.7695,2.6901,2.634,2.582,2.5276,2.4791,2.4783,2.4808,2.4842,2.5285,2.5536,2.5573,2.6038,2.6323,2.6311,2.6395,2.6411,2.6411,2.6461,2.6545,2.6487,2.6524,2.6512,2.6499,2.6436,2.642,2.6386,2.6377,2.6361,2.6365,2.5879,2.5494,2.5322,2.5088,2.4791,2.4766,2.4779,2.5013,2.5544,2.5661,2.5812,2.6373,2.6487,2.6684,2.7006,2.7106,2.7361,2.7799,2.7934,2.7959,2.8351,2.9041,2.9402,2.9145,2.9443,2.9553,2.9666,2.9767,2.9716,2.9679,2.9729,2.9779,2.9779,2.9779,2.9779,2.9779,2.9779,2.9779,2.9779,2.9779,2.9779,2.9779,2.9779,2.9779,4.2781,4.2521,4.2421,4.1777,4.0825,4.0631,4.0292,3.9819,3.9939,4.0157,4.0352,4.0113,4.0208,4.0567,4.0576,4.0382,4.0014,3.9999,3.9984,3.9999,3.9975,3.9843,3.9604,3.9583,3.9245,3.8584,3.8197,3.8204,3.8458,3.8197,3.7588,3.6883,3.6535,3.6221,3.5816,3.5229,3.4424,3.3468,3.2843,3.1796,3.0258,2.8635,2.7516,2.7056,2.7038,2.667,2.5933,2.6088,2.6134,2.5854,2.6005,2.6139,2.6139,2.6361,2.6487,2.6512,2.6805,2.6968,2.6981,2.7261,2.7302,2.6997,2.6968,2.6842,2.6545,2.6487,2.6487,2.6487,2.6487,2.6487,2.6474,2.6264,2.5984,2.5707,2.5695,2.5657,2.531,2.5582,2.5904,2.6114,2.6126,2.6189,2.6432,2.6487,2.6596,2.6809,2.6826,2.6981,2.7148,2.7157,2.7148,2.7216,2.7584,2.8018,2.8301,2.8429,2.8618,2.8809,2.9076,2.9255,2.9343,2.9616,2.9779,2.9779,2.9779,2.9779,2.9779,2.9779,2.9779,2.9779,2.9779,2.9779,2.9779,2.9779,2.9779,4.3305,4.321,4.2661,4.1942,4.121,4.1319,4.0969,4.0292,4.0571,4.0775,4.0939,4.0945,4.1304,4.1828,4.1573,4.1109,4.072,4.0666,4.0666,4.0666,4.0675,4.066,4.0675,4.0675,4.0322,3.9714,3.9394,3.9394,3.9595,3.9005,3.8422,3.7994,3.7778,3.7674,3.759,3.6919,3.6012,3.5016,3.4344,3.3206,3.158,2.986,2.8575,2.7878,2.8113,2.7892,2.6993,2.7182,2.7198,2.6955,2.6813,2.678,2.6939,2.693,2.6939,2.6968,2.7298,2.7525,2.7516,2.7754,2.7708,2.7349,2.7185,2.6918,2.66,2.6487,2.6487,2.6487,2.6487,2.6487,2.6487,2.6487,2.6298,2.5929,2.6264,2.6306,2.5942,2.6281,2.6449,2.6487,2.6436,2.6487,2.6487,2.6487,2.652,2.6533,2.652,2.6487,2.6487,2.6533,2.6524,2.6487,2.6524,2.6905,2.7654,2.7596,2.7559,2.8222,2.8756,2.9019,2.9073,2.9569,2.9779,2.9779,2.9779,2.9779,2.9779,2.9779,2.9779,2.9779,2.9779,2.9779,2.9779,2.9779,2.9779,4.3305,4.321,4.2676,4.2676,4.3055,4.1947,4.1718,4.1952,4.1592,4.1688,4.2171,4.2246,4.2621,4.3045,4.2007,4.1418,4.1358,4.1358,4.1358,4.1358,4.1358,4.1368,4.1349,4.1334,4.1014,4.0442,4.0786,4.078,4.0307,3.9684,3.9346,3.9257,3.8637,3.8365,3.8197,3.7212,3.605,3.5227,3.451,3.3581,3.258,3.1566,3.0357,2.9134,2.8856,2.8602,2.8025,2.7562,2.7519,2.8009,2.7507,2.7478,2.7921,2.7996,2.7962,2.7984,2.8025,2.8072,2.8018,2.7751,2.7465,2.7311,2.7035,2.6578,2.66,2.6575,2.6549,2.6487,2.6487,2.6487,2.6487,2.6487,2.6474,2.6411,2.6436,2.647,2.6436,2.6432,2.6487,2.6487,2.6487,2.6487,2.6487,2.6487,2.6487,2.6487,2.6487,2.6487,2.6487,2.6487,2.6487,2.6487,2.6524,2.67,2.7169,2.7052,2.7395,2.8072,2.8565,2.9019,2.9456,2.9779,2.9779,2.9779,2.9779,2.9779,2.9779,2.9779,2.9779,2.9779,2.9779,2.9779,2.9779,2.9779,2.9779,4.3305,4.33,4.307,4.2895,4.2711,4.2616,4.2297,4.1802,4.1982,4.2171,4.2366,4.2396,4.2726,4.327,4.2831,4.2402,4.2062,4.2041,4.2041,4.2041,4.2041,4.2027,4.2036,4.2041,4.1697,4.1179,4.1283,4.1059,4.0451,4.0133,3.9819,3.9436,3.9176,3.9041,3.8877,3.8167,3.7322,3.6542,3.5917,3.4924,3.3633,3.3148,3.2416,3.1297,3.0095,2.9205,2.8631,2.8427,2.8263,2.8113,2.7896,2.7896,2.8072,2.81,2.81,2.8138,2.8417,2.8618,2.8631,2.8803,2.8734,2.8351,2.8163,2.7645,2.7169,2.7002,2.6868,2.6612,2.6499,2.6487,2.6487,2.6487,2.6487,2.6487,2.6487,2.6487,2.6487,2.6487,2.6487,2.6487,2.6487,2.6487,2.6487,2.6487,2.6487,2.6487,2.6487,2.6487,2.6487,2.6487,2.6487,2.6487,2.6499,2.6562,2.6704,2.6663,2.6855,2.7625,2.821,2.8631,2.907,2.9578,2.9679,2.9754,2.9779,2.9741,2.9729,2.9779,2.9779,2.9779,2.9779,2.9779,2.9779,2.9779,2.9779,4.3305,4.3305,4.3305,4.3065,4.2771,4.313,4.2816,4.2073,4.2486,4.2681,4.2696,4.2696,4.2925,4.3255,4.3305,4.31,4.2696,4.2705,4.27,4.2696,4.2696,4.2681,4.269,4.269,4.2346,4.1762,4.1493,4.1254,4.105,4.0825,4.0367,3.9783,3.9729,3.9592,3.934,3.8745,3.8138,3.765,3.6911,3.5891,3.487,3.4261,3.3553,3.2536,3.1054,3.0075,2.9644,2.9164,2.8847,2.8652,2.8464,2.8439,2.8615,2.8649,2.8649,2.8687,2.8982,2.9195,2.9195,2.9402,2.9318,2.8944,2.8696,2.8279,2.7629,2.7544,2.7365,2.7106,2.7018,2.7018,2.7006,2.7031,2.688,2.66,2.6487,2.6487,2.6487,2.6487,2.6487,2.6487,2.6487,2.6487,2.6487,2.6487,2.6487,2.6487,2.6487,2.6487,2.6487,2.6487,2.6487,2.6512,2.6772,2.6734,2.6914,2.7031,2.7102,2.7747,2.831,2.8605,2.8932,2.9393,2.9628,2.9716,2.9716,2.9679,2.9701,2.9767,2.9779,2.9779,2.9779,2.9779,2.9779,2.9779,2.9779,4.3305,4.3305,4.3305,4.3285,4.3225,4.3285,4.3285,4.318,4.3225,4.321,4.318,4.3255,4.324,4.3305,4.3305,4.3285,4.3225,4.3195,4.321,4.321,4.3225,4.3225,4.3235,4.3195,4.2945,4.2401,4.1777,4.1787,4.2176,4.1658,4.1059,4.0472,4.0322,3.9969,3.9397,3.8826,3.8416,3.8027,3.7114,3.6498,3.6287,3.4886,3.3762,3.2806,3.176,3.1181,3.1123,2.9739,2.9183,2.9566,2.9192,2.9205,2.9578,2.9641,2.9716,2.9641,2.9741,2.9776,2.9701,2.9296,2.9085,2.896,2.8514,2.8292,2.8163,2.81,2.8059,2.7921,2.7955,2.8009,2.7971,2.7946,2.7575,2.6725,2.6587,2.6587,2.6499,2.6487,2.6487,2.6487,2.6487,2.6487,2.6487,2.6487,2.6487,2.6487,2.6487,2.6487,2.6487,2.6487,2.6487,2.6621,2.6927,2.7128,2.7345,2.7587,2.7769,2.8033,2.8502,2.891,2.923,2.9616,2.9616,2.9679,2.9591,2.9553,2.9729,2.9779,2.9779,2.9779,2.9779,2.9779,2.9779,2.9779,2.9779,4.3305,4.3305,4.3305,4.3305,4.3305,4.3305,4.3305,4.3305,4.3305,4.3305,4.3305,4.3305,4.3305,4.3305,4.3305,4.3305,4.3305,4.3305,4.3305,4.3319,4.3305,4.3305,4.3305,4.3305,4.321,4.302,4.2816,4.2591,4.2386,4.2176,4.1538,4.0606,4.0427,4.0043,3.9451,3.9161,3.8712,3.774,3.7336,3.6731,3.5915,3.5332,3.487,3.4459,3.3045,3.2168,3.2087,3.0452,2.9664,2.9789,2.9628,2.9594,2.9754,2.9779,2.9779,2.9779,2.9779,2.9779,2.9767,2.9641,2.949,2.949,2.9318,2.9067,2.8718,2.8643,2.8502,2.8201,2.81,2.81,2.81,2.81,2.7821,2.7135,2.7043,2.6901,2.66,2.6499,2.6487,2.6487,2.6487,2.6487,2.6487,2.6487,2.6487,2.6487,2.6487,2.6487,2.6487,2.6487,2.6487,2.6549,2.7056,2.7638,2.7977,2.8294,2.8558,2.863,2.8938,2.917,2.9503,2.9415,2.9453,2.9515,2.9428,2.9541,2.9716,2.9779,2.9779,2.9779,2.9779,2.9779,2.9779,2.9779,2.9779,4.3305,4.3305,4.3305,4.3305,4.3305,4.3305,4.3305,4.3305,4.3305,4.3305,4.3305,4.3305,4.3305,4.3305,4.3305,4.3305,4.3305,4.3305,4.3424,4.3559,4.3364,4.3305,4.3305,4.3305,4.3305,4.3305,4.3314,4.3115,4.2771,4.2705,4.2197,4.1313,4.1139,4.0681,3.9864,3.9735,3.9197,3.8248,3.765,3.7022,3.6274,3.5744,3.5311,3.4831,3.3745,3.2982,3.2562,3.1123,3.0158,2.9866,2.9779,2.9779,2.9779,2.9779,2.9779,2.9779,2.9779,2.9779,2.9779,2.9767,2.9779,2.9779,2.9779,2.9654,2.9318,2.9233,2.9041,2.8812,2.8762,2.8737,2.875,2.875,2.8473,2.7959,2.7695,2.7383,2.6914,2.6612,2.6499,2.6487,2.6487,2.6487,2.6487,2.6487,2.6487,2.6487,2.6487,2.6487,2.6487,2.6487,2.6512,2.6725,2.7261,2.788,2.8558,2.8963,2.9343,2.938,2.9428,2.9528,2.9701,2.9123,2.8875,2.9089,2.9101,2.9566,2.9779,2.9779,2.9779,2.9779,2.9779,2.9779,2.9779,2.9779,2.9779,4.3305,4.3305,4.3305,4.3305,4.3305,4.3305,4.3305,4.3305,4.3305,4.3305,4.3305,4.3305,4.3305,4.3305,4.3305,4.3305,4.3329,4.3449,4.3728,4.3967,4.3803,4.3549,4.3319,4.3305,4.3305,4.3305,4.3305,4.3285,4.3195,4.3205,4.2975,4.2281,4.2131,4.1727,4.066,4.0427,3.9969,3.9152,3.8084,3.7456,3.715,3.6207,3.52,3.4302,3.4027,3.3475,3.2589,3.1467,3.0558,2.9911,2.9779,2.9779,2.9779,2.9779,2.9779,2.9779,2.9779,2.9779,2.9779,2.9779,2.9779,2.9779,2.9779,2.9779,2.9704,2.9666,2.9654,2.96,2.9616,2.9679,2.9666,2.9641,2.9402,2.8982,2.8342,2.7833,2.7399,2.6934,2.6729,2.6596,2.652,2.6549,2.66,2.6575,2.6663,2.6524,2.66,2.6776,2.6688,2.6738,2.665,2.7043,2.7666,2.8122,2.88,2.9261,2.9591,2.9606,2.9641,2.9701,2.9751,2.9186,2.8825,2.8976,2.9089,2.9541,2.9779,2.9779,2.9779,2.9779,2.9779,2.9779,2.9779,2.9779,2.9779,4.3305,4.3305,4.3305,4.3305,4.3305,4.3305,4.3305,4.3305,4.3305,4.3305,4.3305,4.3305,4.3305,4.3305,4.3305,4.3305,4.3434,4.3788,4.4082,4.4322,4.4696,4.4132,4.3464,4.3305,4.3305,4.3305,4.3305,4.3305,4.3305,4.3305,4.299,4.241,4.2431,4.2027,4.1194,4.069,4.0058,3.9391,3.8593,3.7652,3.6874,3.6492,3.5884,3.5146,3.4409,3.3573,3.2554,3.102,3.0104,2.9837,2.9779,2.9779,2.9779,2.9779,2.9779,2.9779,2.9779,2.9779,2.9779,2.9779,2.9779,2.9779,2.9779,2.9779,2.9779,2.9779,2.9779,2.9779,2.9779,2.9779,2.9779,2.9779,2.9679,2.9503,2.8753,2.8113,2.7921,2.7758,2.7403,2.6754,2.7211,2.7211,2.7022,2.7085,2.7273,2.6851,2.7002,2.7412,2.7119,2.7248,2.7286,2.7729,2.8238,2.8565,2.8979,2.9462,2.9739,2.9741,2.9751,2.9739,2.9764,2.9566,2.9453,2.9528,2.944,2.9741,2.9779,2.9779,2.9779,2.9779,2.9779,2.9779,2.9779,2.9779,2.9779,4.3878,4.4117,4.3848,4.3703,4.3668,4.3419,4.3305,4.3305,4.3305,4.3305,4.3305,4.3305,4.3305,4.3305,4.3305,4.3464,4.3718,4.3833,4.4341,4.5209,4.5548,4.495,4.3967,4.3509,4.3305,4.3305,4.3305,4.3305,4.3305,4.3305,4.31,4.2865,4.2785,4.2451,4.1852,4.1473,4.075,3.9903,3.9146,3.8302,3.7392,3.7,3.653,3.5863,3.4914,3.377,3.2132,3.0936,3.0241,2.9924,2.9779,2.9779,2.9779,2.9779,2.9779,2.9779,2.9779,2.9779,2.9779,2.9779,2.9779,2.9779,2.9779,2.9779,2.9779,2.9779,2.9779,2.9779,2.9779,2.9779,2.9779,2.9779,2.9779,2.9691,2.9202,2.8715,2.8489,2.8213,2.7846,2.7525,2.7663,2.816,2.7763,2.7905,2.7474,2.7077,2.7027,2.7236,2.7277,2.7645,2.7996,2.8323,2.859,2.8831,2.9067,2.949,2.9751,2.9779,2.9779,2.9789,2.9701,2.9679,2.9603,2.9578,2.9691,2.9779,2.9779,2.9779,2.9779,2.9779,2.9779,2.9779,2.9779,2.9779,2.9779,4.4751,4.5255,4.4586,4.4337,4.4277,4.3638,4.3389,4.3419,4.3344,4.3374,4.3449,4.3419,4.3599,4.3509,4.3788,4.3878,4.4381,4.4162,4.4984,4.5852,4.6211,4.5583,4.467,4.4027,4.3773,4.3688,4.3494,4.3449,4.3479,4.3419,4.3305,4.321,4.325,4.3005,4.2526,4.2351,4.1727,4.075,3.9894,3.9161,3.8407,3.7808,3.7218,3.6524,3.5422,3.3938,3.2305,3.1287,3.0786,2.9998,2.9866,2.9789,2.9779,2.9779,2.9779,2.9779,2.9779,2.9779,2.9779,2.9779,2.9779,2.9779,2.9779,2.9779,2.9779,2.9779,2.9779,2.9779,2.9779,2.9779,2.9779,2.9779,2.9779,2.9767,2.9726,2.9515,2.9079,2.8577,2.8276,2.8285,2.8288,2.879,2.8925,2.8571,2.7562,2.7571,2.7609,2.7927,2.8018,2.8232,2.8445,2.8608,2.8837,2.9032,2.9245,2.9481,2.9666,2.9779,2.9779,2.9751,2.9575,2.9515,2.9431,2.9443,2.9679,2.9779,2.9779,2.9779,2.9779,2.9779,2.9779,2.9779,2.9779,2.9779,2.9779,4.517,4.5244,4.4566,4.4591,4.483,4.3833,4.3614,4.4042,4.3539,4.3668,4.4007,4.4087,4.4366,4.4815,4.4751,4.4975,4.5155,4.5384,4.6241,4.685,4.6495,4.6226,4.5717,4.5174,4.4875,4.4696,4.4292,4.4082,4.3982,4.3554,4.3305,4.3305,4.33,4.324,4.3065,4.2646,4.2321,4.1787,4.0825,3.9915,3.9266,3.8586,3.7887,3.7095,3.5778,3.4556,3.3364,3.1979,3.1143,3.0786,3.026,2.9905,2.9808,2.9779,2.9779,2.9779,2.9779,2.9779,2.9779,2.9779,2.9779,2.9779,2.9779,2.9779,2.9779,2.9779,2.9779,2.9779,2.9779,2.9779,2.9779,2.9779,2.9779,2.9779,2.9779,2.9754,2.9603,2.9478,2.9318,2.9352,2.934,2.9315,2.906,2.9299,2.8671,2.8241,2.8307,2.8737,2.88,2.8772,2.891,2.8998,2.9189,2.938,2.9443,2.9606,2.9679,2.9779,2.9779,2.9779,2.9591,2.9541,2.9541,2.9616,2.9741,2.9779,2.9779,2.9779,2.9779,2.9779,2.9779,2.9779,2.9779,2.9779,2.9779,4.5948,4.6157,4.5508,4.5433,4.5563,4.47,4.4441,4.4666,4.4401,4.4426,4.4721,4.4781,4.4975,4.5289,4.5304,4.5424,4.5877,4.6446,4.6745,4.6865,4.6715,4.6779,4.6745,4.6367,4.5978,4.5349,4.4606,4.4352,4.4142,4.3703,4.3305,4.3305,4.3314,4.33,4.33,4.2975,4.2681,4.2326,4.1757,4.102,4.0361,3.9688,3.8481,3.7352,3.6057,3.4996,3.3753,3.2936,3.2236,3.1726,3.0983,3.0235,2.9856,2.9789,2.9801,2.9779,2.9779,2.9779,2.9779,2.9779,2.9779,2.9779,2.9779,2.9779,2.9779,2.9779,2.9779,2.9779,2.9779,2.9779,2.9779,2.9779,2.9779,2.9779,2.9779,2.9779,2.9779,2.9779,2.9779,2.9779,2.9716,2.9588,2.9525,2.955,2.9264,2.8577,2.816,2.8561,2.8869,2.8894,2.9252,2.9428,2.9603,2.9729,2.9729,2.9754,2.9741,2.9779,2.9779,2.9779,2.9716,2.9716,2.9754,2.9779,2.9779,2.9779,2.9779,2.9779,2.9779,2.9779,2.9779,2.9779,2.9779,2.9779,2.9779,4.67,4.7234,4.657,4.636,4.6326,4.5618,4.5319,4.5439,4.5334,4.5244,4.5454,4.5464,4.5548,4.5644,4.5693,4.5982,4.6461,4.6894,4.7018,4.6734,4.7055,4.7164,4.7174,4.704,4.6666,4.5599,4.5069,4.4745,4.4396,4.3833,4.3584,4.3479,4.3329,4.3434,4.3459,4.33,4.305,4.2621,4.2351,4.2012,4.1448,4.0795,3.945,3.7893,3.7109,3.6022,3.4838,3.4025,3.3545,3.2951,3.1956,3.1063,3.0447,3.0037,3.0008,3.0033,3.012,3.0158,3.012,2.994,2.9779,2.9779,2.9779,2.9779,2.9779,2.9779,2.9779,2.9779,2.9779,2.9779,2.9779,2.9779,2.9779,2.9779,2.9779,2.9779,2.9779,2.9779,2.9779,2.9779,2.9779,2.9701,2.9578,2.9528,2.9245,2.8969,2.859,2.8427,2.8784,2.9085,2.9443,2.9616,2.9741,2.9779,2.9779,2.9779,2.9779,2.9779,2.9779,2.9779,2.9779,2.9779,2.9779,2.9779,2.9779,2.9779,2.9779,2.9779,2.9779,2.9779,2.9779,2.9779,2.9779,2.9779,2.9804,4.6689,4.7238,4.6585,4.6604,4.6894,4.5843,4.5668,4.5982,4.5603,4.5638,4.6117,4.6136,4.6446,4.677,4.695,4.7044,4.7074,4.7223,4.7223,4.7059,4.7264,4.7309,4.7298,4.7283,4.71,4.6894,4.6226,4.5627,4.501,4.4501,4.3982,4.3967,4.3614,4.3584,4.3743,4.3624,4.33,4.3005,4.2705,4.2361,4.2122,4.1519,4.0521,3.9017,3.8619,3.7863,3.6658,3.545,3.4699,3.4482,3.3141,3.2412,3.1874,3.1314,3.0992,3.0842,3.0814,3.0758,3.0614,3.0145,2.9866,2.9779,2.9779,2.9779,2.9779,2.9779,2.9779,2.9779,2.9779,2.9779,2.9779,2.9779,2.9779,2.9779,2.9779,2.9779,2.9779,2.9779,2.9779,2.9779,2.9779,2.9779,2.9691,2.9628,2.9518,2.9418,2.9242,2.9114,2.9318,2.9493,2.9654,2.9741,2.9767,2.9779,2.9779,2.9779,2.9779,2.9779,2.9779,2.9779,2.9779,2.9779,2.9779,2.9779,2.9779,2.9779,2.9779,2.9779,2.9779,2.9779,2.9779,2.9792,2.9829,2.9867,2.9939,4.67,4.7264,4.6939,4.6999,4.7174,4.6647,4.6516,4.6745,4.6486,4.6505,4.6745,4.6835,4.6995,4.7249,4.7298,4.7298,4.7298,4.7298,4.7298,4.7298,4.7298,4.7298,4.7298,4.7298,4.7298,4.7209,4.6899,4.6251,4.533,4.4616,4.4247,4.3838,4.3718,4.3848,4.3833,4.3818,4.3584,4.3354,4.302,4.2851,4.28,4.2226,4.1239,4.0292,3.9825,3.9206,3.8059,3.7355,3.6428,3.5704,3.4536,3.3512,3.2748,3.2218,3.1705,3.1306,3.1185,3.0951,3.0582,2.9988,2.9808,2.9779,2.9779,2.9779,2.9779,2.9779,2.9779,2.9779,2.9779,2.9779,2.9779,2.9779,2.9779,2.9779,2.9779,2.9779,2.9779,2.9779,2.9779,2.9779,2.9779,2.9779,2.9779,2.9754,2.9779,2.9779,2.9779,2.9779,2.9779,2.9779,2.9779,2.9779,2.9779,2.9779,2.9779,2.9779,2.9779,2.9779,2.9779,2.9779,2.9779,2.9779,2.9779,2.9779,2.9779,2.9779,2.9779,2.9779,2.9779,2.9792,2.9839,2.9877,2.9905,2.9955,3.0128,4.6689,4.7298,4.7298,4.7298,4.7298,4.7298,4.7268,4.7298,4.7253,4.7223,4.7298,4.7283,4.7268,4.7298,4.7298,4.7298,4.7298,4.7298,4.7298,4.7298,4.7298,4.7298,4.7298,4.7298,4.7298,4.7283,4.7223,4.6666,4.5738,4.5114,4.4481,4.4361,4.4506,4.4386,4.4222,4.4456,4.4087,4.3703,4.3484,4.3454,4.319,4.2791,4.2032,4.09,4.0675,4.0032,3.8996,3.833,3.7609,3.6668,3.5612,3.4486,3.3181,3.2815,3.2282,3.1415,3.1204,3.0739,3.0343,2.9847,2.9779,2.9779,2.9779,2.9779,2.9779,2.9779,2.9779,2.9779,2.9779,2.9779,2.9779,2.9779,2.9779,2.9779,2.9779,2.9779,2.9779,2.9779,2.9779,2.9779,2.9779,2.9779,2.9779,2.9779,2.9779,2.9779,2.9779,2.9779,2.9779,2.9779,2.9779,2.9779,2.9779,2.9779,2.9779,2.9779,2.9779,2.9779,2.9779,2.9779,2.9779,2.9779,2.9804,2.9829,2.9779,2.9779,2.9779,2.9792,2.9779,2.9826,2.9889,3.0015,3.0168,3.0444,3.0718,4.6689,4.7294,4.7283,4.7298,4.7268,4.7294,4.7298,4.7298,4.7298,4.7298,4.7298,4.7298,4.7298,4.7298,4.7298,4.7298,4.7298,4.7298,4.7298,4.7298,4.7298,4.7298,4.7298,4.7298,4.7298,4.7298,4.7298,4.6894,4.6266,4.6001,4.5882,4.5653,4.5249,4.5294,4.5358,4.5249,4.4815,4.4307,4.4132,4.3838,4.3389,4.3195,4.2731,4.2122,4.1547,4.087,3.9942,3.9119,3.8176,3.7361,3.6371,3.5219,3.4039,3.3464,3.255,3.1673,3.1189,3.1147,3.079,3.0263,2.9892,2.9892,2.9839,2.9792,2.9804,2.9854,2.9867,2.9779,2.9779,2.9779,2.9779,2.9779,2.9779,2.9779,2.9779,2.9779,2.9779,2.9779,2.9779,2.9779,2.9779,2.9779,2.9779,2.9779,2.9779,2.9779,2.9779,2.9779,2.9779,2.9779,2.9779,2.9779,2.9779,2.9779,2.9779,2.9779,2.9779,2.9779,2.9779,2.9792,2.9829,2.9854,2.9892,2.9905,2.9905,2.9942,3.004,3.0015,2.9864,3.0027,3.0341,3.047,3.0522,3.0871,3.1296,4.5903,4.6202,4.658,4.673,4.679,4.7119,4.7298,4.7298,4.7298,4.7298,4.7298,4.7298,4.7298,4.7298,4.7298,4.7298,4.7298,4.7298,4.7298,4.7298,4.7298,4.7298,4.7298,4.7298,4.7298,4.7298,4.7294,4.7234,4.682,4.6435,4.6166,4.5843,4.5832,4.5683,4.6016,4.5877,4.5204,4.4501,4.3923,4.3594,4.3374,4.327,4.302,4.2446,4.2126,4.1418,4.0511,3.9972,3.8975,3.8181,3.7438,3.6111,3.4565,3.3939,3.3583,3.1979,3.1922,3.1489,3.0539,3.0367,3.036,3.0173,3.0047,2.9792,2.9852,3.0104,3.0104,2.9817,2.9792,2.9779,2.9779,2.9779,2.9779,2.9779,2.9779,2.9779,2.9779,2.9779,2.9779,2.9779,2.9779,2.9779,2.9779,2.9779,2.9779,2.9779,2.9779,2.9779,2.9779,2.9779,2.9779,2.9779,2.9779,2.9779,2.9779,2.9779,2.9779,2.9779,2.9779,2.9804,2.9892,2.993,3.008,3.0282,3.0433,3.045,3.0407,3.0515,3.0622,3.0757,3.0896,3.0972,3.1085,3.1489,3.1913,4.4811,4.489,4.5877,4.639,4.6585,4.7104,4.7298,4.7298,4.7298,4.7298,4.7298,4.7298,4.7298,4.7298,4.7298,4.7298,4.7298,4.7298,4.7298,4.7298,4.7298,4.7298,4.7298,4.7298,4.7298,4.7298,4.7298,4.7264,4.7119,4.6835,4.6371,4.5813,4.6386,4.6326,4.6127,4.6191,4.5952,4.4706,4.4012,4.3584,4.3344,4.3305,4.3055,4.275,4.2381,4.1856,4.0846,4.0397,3.9694,3.8605,3.8133,3.6773,3.4952,3.4703,3.4361,3.3273,3.321,3.2856,3.1978,3.1532,3.1324,3.1125,3.1,3.1042,3.1257,3.1193,3.0929,3.0628,2.9939,2.9875,2.9779,2.9779,2.9779,2.9779,2.9779,2.9779,2.9804,2.9842,2.9829,2.9779,2.9779,2.9779,2.9779,2.9779,2.9779,2.9779,2.9779,2.9779,2.9779,2.9779,2.9779,2.9779,2.9779,2.9779,2.9779,2.9779,2.9779,2.9854,2.9854,2.9967,3.0131,3.0319,3.0497,3.0713,3.0978,3.1124,3.1183,3.1319,3.145,3.1435,3.1446,3.1522,3.171,3.2102,3.2416,4.3434,4.3599,4.5508,4.6565,4.7089,4.7268,4.7264,4.7115,4.7204,4.7194,4.7209,4.7298,4.7298,4.7298,4.7298,4.7298,4.7298,4.7298,4.7298,4.7298,4.7298,4.7298,4.7298,4.7298,4.7298,4.7298,4.7298,4.7298,4.7283,4.7194,4.7089,4.7189,4.6999,4.7104,4.6984,4.679,4.6371,4.5274,4.4486,4.3848,4.3509,4.3334,4.324,4.31,4.2666,4.2056,4.1358,4.09,4.0053,3.8778,3.8467,3.7526,3.6015,3.5783,3.5297,3.4766,3.4836,3.4697,3.4365,3.3535,3.3125,3.2942,3.2875,3.3005,3.3284,3.2598,3.2209,3.1916,3.1019,3.0198,3.0009,2.9804,2.9917,2.9955,3.003,3.0105,3.008,2.9977,2.9939,2.9829,2.9854,2.998,2.9902,2.9927,2.9792,2.9779,2.9779,2.9779,2.9779,2.9779,2.9779,2.9779,2.9779,2.9779,2.9779,2.9817,2.9914,3.0055,3.0131,3.0319,3.0532,3.0723,3.1062,3.1308,3.1614,3.1777,3.1929,3.1961,3.1969,3.1956,3.1986,3.21,3.2238,3.2527,3.2765,4.3554,4.3982,4.4775,4.5209,4.5473,4.5888,4.6067,4.6067,4.6067,4.6326,4.6734,4.7089,4.7298,4.7298,4.7298,4.7298,4.7298,4.7298,4.7298,4.7298,4.7298,4.7298,4.7298,4.7298,4.7298,4.7298,4.7298,4.7298,4.7298,4.7298,4.7298,4.7298,4.7298,4.7283,4.7223,4.6984,4.6416,4.5847,4.492,4.4142,4.3953,4.3464,4.3305,4.3255,4.3175,4.2636,4.2101,4.1802,4.0849,3.9946,3.9465,3.8306,3.7192,3.7087,3.6811,3.6268,3.6533,3.6885,3.6962,3.5849,3.4524,3.4276,3.4506,3.4946,3.5017,3.4248,3.3973,3.3347,3.2186,3.1203,3.1244,3.0719,3.0322,3.0297,3.0347,3.0444,3.0457,3.0379,3.0354,3.0366,3.0357,3.0397,3.0244,3.01,2.9927,2.9779,2.9779,2.9779,2.9779,2.9779,2.9779,2.9779,2.9779,2.9965,2.999,3.0027,3.0078,3.0291,3.0482,3.0708,3.0997,3.1501,3.1825,3.2053,3.2288,3.2516,3.2604,3.2535,3.25,3.2495,3.2575,3.2702,3.2853,3.2979,3.3117,4.3569,4.3982,4.3997,4.4237,4.4636,4.5095,4.5289,4.5289,4.5319,4.5668,4.632,4.6809,4.7134,4.7238,4.7298,4.7298,4.7298,4.7298,4.7298,4.7298,4.7298,4.7298,4.7298,4.7298,4.7298,4.7298,4.7298,4.7298,4.7298,4.7298,4.7298,4.7298,4.7298,4.7298,4.7194,4.6869,4.6525,4.6061,4.5309,4.4441,4.4277,4.3668,4.3314,4.3305,4.3255,4.293,4.2481,4.2161,4.1718,4.0915,4.0276,3.9515,3.8839,3.8471,3.8547,3.8307,3.8269,3.8835,3.8973,3.7753,3.6193,3.6381,3.6271,3.6372,3.6212,3.5986,3.5536,3.519,3.3692,3.2466,3.2428,3.1514,3.0894,3.0846,3.0846,3.0922,3.0984,3.0957,3.0957,3.0957,3.0909,3.0811,3.0522,3.0319,3.0128,2.993,2.9792,2.9792,2.9779,2.9779,2.9779,2.9779,2.9779,3.0015,3.0263,3.0439,3.0643,3.103,3.1183,3.1235,3.1549,3.2064,3.2591,3.2901,3.3126,3.3291,3.3214,3.3021,3.3009,3.3038,3.304,3.2977,3.323,3.333,3.3458,4.3285,4.3319,4.3344,4.4057,4.502,4.5244,4.52,4.5095,4.5185,4.5578,4.6166,4.6375,4.6775,4.7179,4.7298,4.7298,4.7298,4.7298,4.7298,4.7298,4.7298,4.7298,4.7298,4.7298,4.7298,4.7298,4.7298,4.7298,4.7298,4.7298,4.7298,4.7298,4.7298,4.7298,4.7298,4.7283,4.6939,4.6315,4.5623,4.5025,4.4411,4.3813,4.3509,4.3305,4.3305,4.302,4.2726,4.2571,4.2142,4.1508,4.096,4.0435,4.0142,4.0073,4.0125,4.0086,4.011,4.0546,4.0991,3.8949,3.8396,3.8508,3.8145,3.7971,3.8515,3.8044,3.7159,3.698,3.4981,3.3468,3.2765,3.2186,3.1807,3.1386,3.1386,3.1512,3.1597,3.1509,3.1497,3.1612,3.1449,3.1213,3.0851,3.055,3.0357,3.014,2.9902,2.9854,2.998,3.008,3.0191,2.998,3.0005,3.0291,3.0602,3.0929,3.1231,3.1633,3.1834,3.1823,3.2062,3.2537,3.3077,3.3607,3.3707,3.3657,3.3569,3.3456,3.3354,3.3214,3.3126,3.314,3.3429,3.3632,3.3709,4.2705,4.2726,4.313,4.3554,4.3953,4.3967,4.3982,4.4057,4.4446,4.501,4.5638,4.6061,4.6674,4.7119,4.7298,4.7298,4.7298,4.7298,4.7298,4.7298,4.7298,4.7298,4.7298,4.7298,4.7298,4.7298,4.7298,4.7298,4.7298,4.7298,4.7298,4.7298,4.7298,4.7298,4.7298,4.7298,4.7119,4.6879,4.6311,4.5653,4.4975,4.4307,4.3728,4.3359,4.3305,4.3175,4.296,4.291,4.2596,4.2107,4.1658,4.1433,4.1164,4.1064,4.105,4.1064,4.1064,4.1139,4.13,4.042,4.0157,3.9912,3.9488,3.9293,3.9769,3.9198,3.8932,3.8613,3.6825,3.5475,3.4644,3.3658,3.2991,3.2125,3.2003,3.2252,3.2338,3.2089,3.2014,3.2277,3.2277,3.1746,3.1331,3.115,3.0937,3.0969,3.0844,3.0743,3.0806,3.0869,3.0932,3.0492,3.0379,3.0643,3.0957,3.1484,3.1934,3.2334,3.2386,3.2288,3.2602,3.3102,3.3468,3.3972,3.3974,3.3949,3.401,3.3958,3.353,3.3303,3.3364,3.3341,3.3494,3.3694,3.3834,4.2066,4.2116,4.2741,4.3,4.302,4.321,4.3305,4.3434,4.4012,4.4666,4.5349,4.6027,4.6674,4.7134,4.7298,4.7298,4.7298,4.7298,4.7298,4.7298,4.7298,4.7298,4.7298,4.7298,4.7298,4.7298,4.7298,4.7298,4.7298,4.7298,4.7298,4.7298,4.7298,4.7298,4.7298,4.7294,4.7294,4.7044,4.654,4.5912,4.5259,4.4616,4.3948,4.3509,4.3305,4.3285,4.33,4.324,4.313,4.2771,4.2466,4.2236,4.1867,4.1757,4.1742,4.1757,4.1977,4.1932,4.1803,4.1728,4.1372,4.1147,4.0481,4.0352,4.0606,4.0293,4.0347,3.9917,3.8666,3.7782,3.6733,3.5622,3.4168,3.3314,3.2969,3.3231,3.3454,3.3252,3.3424,3.3606,3.3281,3.2652,3.1854,3.176,3.1614,3.1735,3.1846,3.171,3.1547,3.1522,3.1509,3.117,3.0919,3.1183,3.166,3.2298,3.27,3.305,3.3002,3.2855,3.3357,3.3872,3.4087,3.4327,3.4565,3.4714,3.4663,3.4473,3.407,3.3842,3.3817,3.3756,3.3657,3.3872,3.4173,4.1373,4.1478,4.2096,4.2396,4.2506,4.305,4.3305,4.3349,4.3967,4.4616,4.5285,4.5907,4.651,4.7104,4.7253,4.7298,4.7298,4.7298,4.7298,4.7298,4.7298,4.7298,4.7298,4.7298,4.7298,4.7298,4.7298,4.7298,4.7298,4.7298,4.7298,4.7298,4.7298,4.7298,4.7298,4.7298,4.7298,4.7119,4.682,4.6191,4.5574,4.4945,4.4307,4.3833,4.3614,4.3524,4.3464,4.3374,4.3344,4.3085,4.2771,4.2556,4.244,4.2435,4.2425,4.2556,4.2945,4.2746,4.2526,4.2431,4.2401,4.2157,4.1783,4.1568,4.1343,4.1214,4.1169,4.09,3.9973,3.9702,3.9154,3.7339,3.5552,3.4863,3.4212,3.4434,3.4772,3.4941,3.5201,3.5142,3.4675,3.3907,3.2604,3.2242,3.2242,3.2315,3.2386,3.2286,3.21,3.1911,3.1899,3.1848,3.1698,3.1786,3.2275,3.2813,3.3117,3.3341,3.3581,3.3608,3.4124,3.4477,3.4653,3.4892,3.5319,3.5468,3.5391,3.5087,3.4659,3.4483,3.4406,3.4283,3.4211,3.4501,3.4828,4.069,4.0741,4.1418,4.1967,4.2461,4.3035,4.3305,4.3344,4.3539,4.3982,4.4631,4.5294,4.6012,4.6585,4.7063,4.7209,4.7283,4.7298,4.7298,4.7298,4.7298,4.7298,4.7298,4.7298,4.7298,4.7298,4.7298,4.7298,4.7298,4.7298,4.7298,4.7298,4.7298,4.7298,4.7298,4.7298,4.7298,4.7253,4.7029,4.655,4.6132,4.5672,4.494,4.4371,4.4396,4.4162,4.3614,4.3788,4.3733,4.328,4.3145,4.305,4.305,4.305,4.305,4.305,4.3195,4.318,4.307,4.3035,4.3005,4.296,4.2741,4.2506,4.2157,4.1837,4.1747,4.1492,4.1135,4.0758,4.025,3.8806,3.7557,3.6947,3.6297,3.6028,3.6355,3.6572,3.6785,3.6354,3.5913,3.4653,3.336,3.283,3.2842,3.2891,3.2866,3.2765,3.2652,3.2451,3.2336,3.2288,3.2338,3.2399,3.26,3.3075,3.3343,3.3608,3.3922,3.4223,3.4513,3.4828,3.5106,3.5419,3.5756,3.5981,3.6092,3.5702,3.5199,3.5123,3.5035,3.4888,3.484,3.5128,3.5317,4.0023,4.0088,4.0735,4.1388,4.2066,4.2671,4.2945,4.302,4.3449,4.3953,4.4362,4.5035,4.5529,4.5892,4.6292,4.6591,4.6879,4.6865,4.6969,4.7298,4.7298,4.7298,4.7298,4.7298,4.7298,4.7298,4.7298,4.7298,4.7298,4.7298,4.7298,4.7298,4.7298,4.7298,4.7298,4.7298,4.7298,4.7298,4.7179,4.6879,4.6585,4.6305,4.5583,4.504,4.5214,4.4621,4.3878,4.4202,4.3908,4.3434,4.3314,4.33,4.33,4.33,4.33,4.327,4.3285,4.33,4.324,4.3255,4.33,4.3305,4.3314,4.31,4.2841,4.2536,4.2566,4.2473,4.2045,4.1597,4.1008,4.0389,3.9805,3.9224,3.8517,3.7813,3.7977,3.8189,3.7938,3.7532,3.6585,3.5322,3.4404,3.3814,3.3293,3.3115,3.3115,3.318,3.3104,3.3002,3.2864,3.2788,3.2876,3.2962,3.3189,3.3415,3.3705,3.4073,3.4513,3.4778,3.4966,3.5304,3.5705,3.5942,3.6118,3.6256,3.6318,3.6117,3.5765,3.5701,3.5663,3.5626,3.5602,3.5741,3.588,3.9263,3.9391,4.0103,4.078,4.1379,4.2101,4.2401,4.2476,4.3559,4.4192,4.4307,4.489,4.517,4.5264,4.5514,4.5843,4.6191,4.6375,4.6689,4.7223,4.7298,4.7298,4.7298,4.7298,4.7298,4.7298,4.7298,4.7298,4.7298,4.7298,4.7298,4.7298,4.7298,4.7298,4.7298,4.7298,4.7298,4.7298,4.7253,4.7044,4.6655,4.6345,4.6076,4.5533,4.5384,4.517,4.4531,4.4232,4.4052,4.3594,4.3305,4.3305,4.3305,4.3305,4.3305,4.3305,4.3305,4.3305,4.3305,4.3305,4.3305,4.3305,4.33,4.3255,4.31,4.301,4.3025,4.2995,4.2577,4.2517,4.2065,4.1587,4.1051,4.0689,4.0209,3.9822,3.9866,3.9776,3.9282,3.8966,3.8659,3.7236,3.5128,3.4502,3.3784,3.3422,3.3163,3.3329,3.3465,3.34,3.3537,3.3424,3.3415,3.353,3.3718,3.3932,3.4158,3.4525,3.4966,3.5354,3.5543,3.5917,3.6343,3.6355,3.6305,3.6343,3.6343,3.6192,3.6142,3.6167,3.6191,3.6317,3.6355,3.6292,3.6242,3.8174,3.8745,3.9903,4.0502,4.078,4.1907,4.2071,4.1772,4.299,4.3534,4.3683,4.4192,4.4521,4.4566,4.4975,4.5319,4.5544,4.5867,4.633,4.6745,4.701,4.7249,4.7298,4.7298,4.7298,4.7298,4.7298,4.7298,4.7298,4.7298,4.7298,4.7298,4.7298,4.7298,4.7298,4.7298,4.7298,4.7298,4.7268,4.7238,4.7029,4.6939,4.6775,4.6446,4.6266,4.5713,4.5159,4.4811,4.4247,4.3584,4.3374,4.3305,4.3305,4.3314,4.3305,4.3314,4.3344,4.3374,4.3305,4.3305,4.3305,4.3305,4.3305,4.3305,4.33,4.3305,4.3285,4.324,4.321,4.321,4.3101,4.2619,4.2258,4.2016,4.1808,4.1745,4.167,4.1179,4.0632,4.0549,4.0492,3.893,3.6721,3.5241,3.4427,3.3828,3.3305,3.3262,3.3584,3.3719,3.4333,3.4284,3.403,3.4095,3.4209,3.4448,3.4674,3.4939,3.5342,3.5718,3.6081,3.6243,3.6417,3.6417,3.6393,3.6417,3.6417,3.638,3.6368,3.6417,3.6417,3.6417,3.6443,3.6406,3.6393,3.7793,3.8505,3.9514,3.9963,4.0148,4.1089,4.1289,4.1184,4.2018,4.2631,4.297,4.3529,4.3863,4.3853,4.4267,4.4706,4.487,4.5219,4.5792,4.6296,4.661,4.7025,4.716,4.7223,4.7298,4.7298,4.7298,4.7298,4.7298,4.7298,4.7298,4.7298,4.7298,4.7298,4.7298,4.7298,4.7298,4.7298,4.7298,4.7298,4.7298,4.7238,4.7164,4.6958,4.6764,4.6191,4.5678,4.5244,4.4625,4.3808,4.3334,4.3305,4.3404,4.3628,4.3569,4.3509,4.3509,4.3614,4.3419,4.3305,4.3305,4.3305,4.3305,4.3305,4.3305,4.3305,4.3305,4.327,4.327,4.327,4.327,4.2932,4.2882,4.2738,4.2659,4.2614,4.2574,4.2342,4.2085,4.2056,4.1912,4.1361,3.9146,3.7043,3.6102,3.4777,3.4169,3.4053,3.4227,3.4479,3.4987,3.524,3.507,3.4506,3.4258,3.4674,3.5203,3.5467,3.5706,3.598,3.6256,3.633,3.6417,3.6417,3.6417,3.6417,3.6417,3.6417,3.6417,3.6417,3.6417,3.6417,3.6494,3.6669,3.6783,3.7569,3.8326,3.8996,3.9331,3.952,4.0133,4.0367,4.0427,4.1104,4.1747,4.2311,4.2915,4.3175,4.33,4.3329,4.3728,4.4142,4.4521,4.5194,4.5687,4.6061,4.6505,4.682,4.6984,4.6924,4.7085,4.7219,4.7264,4.7298,4.7298,4.7298,4.7298,4.7298,4.7298,4.7298,4.7298,4.7298,4.7298,4.7298,4.7298,4.7298,4.7298,4.7253,4.7253,4.7093,4.6491,4.5903,4.5454,4.4965,4.4137,4.3329,4.3449,4.3524,4.3748,4.3584,4.3509,4.3628,4.3599,4.3434,4.3305,4.3305,4.3305,4.3305,4.3305,4.3305,4.3305,4.3305,4.3305,4.3305,4.3305,4.3305,4.3305,4.3305,4.3314,4.327,4.3255,4.3225,4.3195,4.3195,4.3185,4.2966,4.2678,4.134,3.9182,3.7499,3.6158,3.5496,3.5446,3.5511,3.5847,3.6263,3.6408,3.6344,3.5657,3.4854,3.4999,3.5691,3.5804,3.6017,3.6255,3.6417,3.6417,3.6417,3.6417,3.6417,3.6431,3.6418,3.6417,3.6417,3.6544,3.6708,3.6859,3.7022,3.7185,3.7336,3.6543,3.7659,3.8317,3.8877,3.9436,4.0098,4.0094,3.9858,4.087,4.1502,4.1703,4.2296,4.2806,4.33,4.3305,4.3494,4.3643,4.3967,4.4247,4.4666,4.5284,4.5882,4.6296,4.6356,4.6172,4.6516,4.7014,4.7279,4.7298,4.7298,4.7298,4.7298,4.7298,4.7298,4.7298,4.7298,4.7298,4.7298,4.7298,4.7298,4.7298,4.7298,4.7298,4.7119,4.6745,4.6087,4.5574,4.5434,4.4591,4.3803,4.3344,4.3594,4.3788,4.3808,4.3569,4.3494,4.3628,4.3554,4.3404,4.3314,4.3305,4.3305,4.3305,4.3305,4.3305,4.3305,4.3305,4.3305,4.3305,4.3305,4.3305,4.3305,4.3305,4.3305,4.33,4.3285,4.327,4.327,4.3265,4.3255,4.3195,4.3056,4.2778,4.0696,3.8689,3.7488,3.6558,3.6534,3.6745,3.7142,3.7635,3.7635,3.7667,3.6967,3.6224,3.5811,3.6143,3.6217,3.6255,3.6343,3.6417,3.6417,3.6418,3.6556,3.6519,3.6519,3.6481,3.6707,3.6783,3.6972,3.7199,3.7387,3.755,3.7713,3.7864]}]]